[[{"header":{"parameterUnit":"m.s-1","parameterCategory":1,"la1":31.0,"la2":29.5877,"lo1":-88.7671,"lo2":-86.6584,"dy":0.0162,"dx":0.0185,"nx":115,"ny":88,"refTime":"2023-05-21T06:00:00:Z","depth":0,"parameterNumber":2,"parameterNumberName":"U-component_of_WINDS"},"data":[0.0,0.0,0.0,0.0,0.0,0.0,0.0,0.0,0.0,0.0,0.0,0.0,0.0,0.0,0.0,0.0,0.0,0.0,0.0,0.0,0.0,0.0,0.0,0.0,0.0,0.0,0.0,0.0,0.0,0.0,0.0,0.0,0.0,0.0,0.0,0.0,0.0,0.0,0.0,0.0,0.0,0.0,0.0,0.0,0.0,0.0,0.0,0.0,0.0,0.0,0.0,0.0,0.0,0.0,0.0,0.0,0.0,0.0,0.0,0.0,0.0,0.0,0.0,0.0,0.0,0.0,0.0,0.0,0.0,0.0,0.0,0.0,0.0,0.0,0.0,0.0,0.0,0.0,0.0,0.0,0.0,0.0,0.0,0.0,0.0,0.0,0.0,0.0,0.0,0.0,0.0,0.0,0.0,0.0,0.0,0.0,0.0,0.0,0.0,0.0,0.0,0.0,0.0,0.0,0.0,0.0,0.0,0.0,0.0,0.0,0.0,0.0,0.0,0.0,0.0,0.0,0.0,0.0,0.0,0.0,0.0,0.0,0.0,0.0,0.0,0.0,0.0,0.0,0.0,0.0,0.0,0.0,0.0,0.0,0.0,0.0,0.0,0.0,0.0,0.0,0.0,0.0,0.0,0.0,0.0,0.0,0.0,0.0,0.0,0.0,0.0,0.0,0.0,0.0,0.0,0.0,0.0,0.0,0.0,0.0,0.0,0.0,0.0,0.0,0.0,0.0,0.0,0.0,0.0,0.0,0.0,0.0,0.0,0.0,0.0,0.0,0.0,0.0,0.0,0.0,0.0,0.0,0.0,0.0,0.0,0.0,0.0,0.0,0.0,0.0,0.0,0.0,0.0,0.0,0.0,0.0,0.0,0.0,0.0,0.0,0.0,0.0,0.0,0.0,0.0,0.0,0.0,0.0,0.0,0.0,0.0,0.0,0.0,0.0,0.0,0.0,0.0,0.0,0.0,0.0,0.0,0.0,0.0,0.0,0.0,0.0,0.0,0.0,0.0,0.0,0.0,0.0,0.0,0.0,0.0,0.0,0.0,0.0,0.0,0.0,0.0,0.0,0.0,0.0,0.0,0.0,0.0,0.0,0.0,0.0,0.0,0.0,0.0,0.0,0.0,0.0,0.0,0.0,0.0,0.0,0.0,0.0,0.0,0.0,0.0,0.0,0.0,0.0,0.0,0.0,0.0,0.0,0.0,0.0,0.0,0.0,0.0,0.0,0.0,0.0,0.0,0.0,0.0,0.0,0.0,0.0,0.0,0.0,0.0,0.0,0.0,0.0,0.0,0.0,0.0,0.0,0.0,0.0,0.0,0.0,0.0,0.0,0.0,0.0,0.0,0.0,0.0,0.0,0.0,0.0,0.0,0.0,0.0,0.0,0.0,0.0,0.0,0.0,0.0,0.0,0.0,0.0,0.0,0.0,0.0,0.0,0.0,0.0,0.0,0.0,0.0,0.0,0.0,0.0,0.0,0.0,0.0,0.0,0.0,0.0,0.0,0.0,0.0,0.0,0.0,0.0,0.0,0.0,0.0,0.0,0.0,0.0,0.0,0.0,0.0,0.0,0.0,0.0,0.0,0.0,0.0,0.0,0.0,0.0,0.0,0.0,0.0,0.0,0.0,0.0,0.0,0.0,0.0,0.0,0.0,0.0,0.0,0.0,0.0,0.0,0.0,0.0,0.0,0.0,0.0,0.0,0.0,0.0,0.0,0.0,0.0,0.0,0.0,0.0,0.0,0.0,0.0,0.0,0.0,0.0,0.0,0.0,0.0,0.0,0.0,0.0,0.0,0.0,0.0,0.0,0.0,0.0,0.0,0.0,0.0,0.0,0.0,0.0,0.0,0.0,0.0,0.0,0.0,0.0,0.0,0.0,0.0,0.0,0.0,0.0,0.0,0.0,0.0,0.0,0.0,0.0,0.0,0.0,0.0,0.0,0.0,0.0,0.0,0.0,0.0,0.0,0.0,0.0,0.0,0.0,0.0,0.0,0.0,0.0,0.0,0.0,0.0,0.0,0.0,0.0,0.0,0.0,0.0,0.0,0.0,0.0,0.0,0.0,0.0,0.0,0.0,0.0,0.0,0.0,0.0,0.0,0.0,0.0,0.0,0.0,0.0,0.0,0.0,0.0,0.0,0.0,0.0,0.0,0.0,0.0,0.0,0.0,0.0,0.0,0.0,0.0,0.0,0.0,0.0,0.0,0.0,0.0,0.0,0.0,0.0,0.0,0.0,0.0,0.0,0.0,0.0,0.0,0.0,0.0,0.0,0.0,0.0,0.0,0.0,0.0,0.0,0.0,0.0,0.0,0.0,0.0,0.0,0.0,0.0,0.0,0.0,0.0,0.0,0.0,0.0,0.0,0.0,0.0,0.0,0.0,0.0,0.0,0.0,0.0,0.0,0.0,0.0,0.0,0.0,0.0,0.0,0.0,0.0,0.0,0.0,0.0,0.0,0.0,0.0,0.0,0.0,0.0,0.0,0.0,0.0,0.0,0.0,0.0,0.0,0.0,0.0,0.0,0.0,0.0,0.0,0.0,0.0,0.0,0.0,0.0,0.0,0.0,0.0,0.0,0.0,0.0,0.0,0.0,0.0,0.0,0.0,0.0,0.0,0.0,0.0,0.0,0.0,0.0,0.0,0.0,0.0,0.0,0.0,0.0,0.0,0.0,0.0,0.0,0.0,0.0,0.0,0.0,0.0,0.0,0.0,0.0,0.0,0.0,0.0,0.0,0.0,0.0,0.0,0.0,0.0,0.0,0.0,0.0,0.0,0.0,0.0,0.0,0.0,0.0,0.0,0.0,0.0,0.0,0.0,0.0,0.0,0.0,0.0,0.0,0.0,0.0,0.0,0.0,0.0,0.0,0.0,0.0,0.0,0.0,0.0,0.0,0.0,0.0,0.0,0.0,0.0,0.0,0.0,0.0,0.0,0.0,0.0,0.0,0.0,0.0,0.0,0.0,0.0,0.0,0.0,0.0,0.0,0.0,0.0,0.0,0.0,0.0,0.0,0.0,0.0,0.0,0.0,0.0,0.0,0.0,0.0,0.0,0.0,0.0,0.0,0.0,0.0,0.0,0.0,0.0,0.0,0.0,0.0,0.0,0.0,0.0,0.0,0.0,0.0,0.0,0.0,0.0,0.0,0.0,0.0,0.0,0.0,0.0,0.0,0.0,0.0,0.0,0.0,0.0,0.0,0.0,0.0,0.0,0.0,0.0,0.0,0.0,0.0,0.0,0.0,0.0,0.0,0.0,0.0,0.0,0.0,0.0,0.0,0.0,0.0,0.0,0.0,0.0,0.0,0.0,0.0,0.0,0.0,0.0,0.0,0.0,0.0,0.0,0.0,0.0,0.0,0.0,0.0,0.0,0.0,0.0,0.0,0.0,0.0,0.0,0.0,0.0,0.0,0.0,0.0,0.0,0.0,0.0,0.0,0.0,0.0,0.0,0.0,0.0,0.0,0.0,0.0,0.0,0.0,0.0,0.0,0.0,0.0,0.0,0.0,0.0,0.0,0.0,0.0,0.0,0.0,0.0,0.0,0.0,0.0,0.0,0.0,0.0,0.0,0.0,0.0,0.0,0.0,0.0,0.0,0.0,0.0,0.0,0.0,0.0,0.0,0.0,0.0,0.0,0.0,0.0,0.0,0.0,0.0,0.0,0.0,0.0,0.0,0.0,0.0,0.0,0.0,0.0,0.0,0.0,0.0,0.0,0.0,0.0,0.0,0.0,0.0,0.0,0.0,0.0,0.0,0.0,0.0,0.0,0.0,0.0,0.0,0.0,0.0,0.0,0.0,0.0,0.0,0.0,0.0,0.0,0.0,0.0,0.0,0.0,0.0,0.0,0.0,0.0,0.0,0.0,0.0,0.0,0.0,0.0,0.0,0.0,0.0,0.0,0.0,0.0,0.0,0.0,0.0,0.0,0.0,0.0,0.0,0.0,0.0,0.0,0.0,0.0,0.0,0.0,0.0,0.0,0.0,0.0,0.0,0.0,0.0,0.0,0.0,0.0,0.0,0.0,0.0,0.0,0.0,0.0,0.0,0.0,0.0,0.0,0.0,0.0,0.0,0.0,0.0,0.0,0.0,0.0,0.0,0.0,0.0,0.0,0.0,0.0,0.0,0.0,0.0,0.0,0.0,0.0,0.0,0.0,0.0,0.0,0.0,0.0,0.0,0.0,0.0,0.0,0.0,0.0,0.0,0.0,0.0,0.0,0.0,0.0,0.0,0.0,0.0,0.0,0.0,0.0,0.0,0.0,1.0718,0.0,0.0,0.0,0.0,0.0,0.0,0.0,0.0,0.0,0.0,0.0,0.0,0.0,0.0,0.0,0.0,0.0,0.0,0.0,0.0,0.0,0.0,0.0,0.0,0.0,0.0,0.0,0.0,0.0,0.0,0.0,0.0,0.0,0.0,0.0,0.0,0.0,0.0,0.0,0.0,0.0,0.0,0.0,0.0,0.0,0.0,0.0,0.0,0.0,0.0,0.0,0.0,0.0,0.0,0.0,0.0,0.0,0.0,0.0,0.0,0.0,0.0,0.0,0.0,0.0,0.0,0.0,0.0,0.0,0.0,0.0,0.0,0.0,0.0,0.0,0.0,0.0,0.0,0.0,0.0,0.0,0.0,0.0,0.0,0.0,0.0,0.0,0.0,0.0,0.0,0.0,0.0,0.0,0.0,0.0,0.0,0.0,0.0,0.0,0.0,0.0,0.0,0.0,0.0,0.0,0.0,0.0,0.0,0.0,0.0,1.1511,1.1413,1.1085,1.0887,1.0801,0.0,0.0,0.0,0.0,0.0,0.0,0.0,0.0,0.0,0.0,0.0,0.0,0.0,0.0,0.0,0.0,0.0,0.0,0.0,0.0,0.0,0.0,0.0,0.0,0.0,0.0,0.0,0.0,0.0,0.0,0.0,0.0,0.0,0.0,0.0,0.0,0.0,0.0,0.0,0.0,0.0,0.0,0.0,0.0,0.0,0.0,0.0,0.0,0.0,0.0,0.0,0.0,0.0,0.0,0.0,0.0,0.0,0.0,0.0,0.0,0.0,0.0,0.0,0.0,0.0,0.0,0.0,0.0,0.0,0.0,0.0,0.0,0.0,0.0,0.0,0.0,0.0,0.0,0.0,0.0,0.0,0.0,0.0,0.0,0.0,0.0,0.0,0.0,0.0,0.0,0.0,0.0,0.0,0.0,0.0,0.0,0.0,0.0,0.0,0.0,0.0,0.0,0.0,0.0,0.0,0.0,0.0,0.0,0.0,0.0,0.0,0.0,1.1216,1.092,1.0777,0.0,0.0,0.0,0.0,0.0,0.0,0.0,0.0,0.0,0.0,0.0,0.0,0.0,0.0,0.0,0.0,0.0,0.0,0.0,0.0,0.0,0.0,0.0,0.0,0.0,0.0,0.0,0.0,0.0,0.0,0.0,0.0,0.0,0.0,0.0,0.0,0.0,0.0,0.0,0.0,0.0,0.0,0.0,0.0,0.0,0.0,0.0,0.0,0.0,0.0,0.0,0.0,0.0,0.0,0.0,0.0,0.0,0.0,0.0,0.0,0.0,0.0,0.0,0.0,0.0,0.0,0.0,0.0,0.0,0.0,0.0,0.0,0.0,0.0,0.0,0.0,0.0,0.0,0.0,0.0,0.0,0.0,0.0,0.0,0.0,0.0,0.0,0.0,0.0,0.0,0.0,0.0,0.0,0.0,0.0,0.0,0.0,0.0,0.0,0.0,0.0,0.0,0.0,0.0,0.0,0.0,0.0,0.0,0.0,0.0,1.1857,1.2357,1.1442,0.0,1.0474,0.0,0.0,0.0,0.0,0.0,0.0,0.0,0.0,0.0,0.0,0.0,0.0,0.0,0.0,0.0,0.0,0.0,0.0,0.0,0.0,0.0,0.0,0.0,0.0,0.0,0.0,0.0,0.0,0.0,0.0,0.0,0.0,0.0,0.0,0.0,0.0,0.0,0.0,0.0,0.0,0.0,0.0,0.0,0.0,0.0,0.0,0.0,0.0,0.0,0.0,0.0,0.0,0.0,0.0,0.0,0.0,0.0,0.0,0.0,0.0,0.0,0.0,0.0,0.0,0.0,0.0,0.0,0.0,0.0,0.0,0.0,0.0,0.0,0.0,0.0,0.0,0.0,0.0,0.0,0.0,0.0,0.0,0.0,0.0,0.0,0.0,0.0,0.0,0.0,0.0,0.0,0.0,0.0,0.0,0.0,0.0,0.0,0.0,0.0,0.0,0.0,0.0,0.0,0.0,0.0,0.0,0.0,0.0,0.0,0.0,1.269,1.2928,1.1995,1.1182,0.0,0.0,0.0,0.0,0.0,0.0,0.0,0.0,0.0,0.0,0.0,0.0,0.0,0.0,0.0,0.0,0.0,0.0,0.0,0.0,0.0,0.0,0.0,0.0,0.0,0.0,0.0,0.0,0.0,0.0,0.0,0.0,0.0,0.0,0.0,0.0,0.0,0.0,0.0,0.0,0.0,0.0,0.0,0.0,0.0,0.0,0.0,0.0,0.0,0.0,0.0,0.0,0.0,0.0,0.0,0.0,0.0,0.0,0.0,0.0,0.0,0.0,0.0,0.0,0.0,0.0,0.0,0.0,0.0,0.0,0.0,0.0,0.0,0.0,0.0,0.0,0.0,0.0,0.0,0.0,0.0,0.0,0.0,0.0,0.0,0.0,0.0,0.0,0.0,0.0,0.0,0.0,0.0,0.0,0.0,0.0,0.0,0.0,0.0,0.0,0.0,0.0,0.0,0.0,0.0,0.0,0.0,0.0,0.0,0.0,1.3382,1.3178,1.286,1.2251,1.1518,1.0635,0.0,0.0,0.0,0.0,0.0,0.0,0.0,0.0,0.0,0.0,0.0,0.0,0.0,0.0,0.0,0.0,0.0,0.0,0.0,0.0,0.0,0.0,0.0,0.0,0.0,0.0,0.0,0.0,0.0,0.0,0.0,0.0,0.0,0.0,0.0,0.0,0.0,0.0,0.0,0.0,0.0,0.0,0.0,0.0,0.0,0.0,0.0,0.0,0.0,0.0,0.0,0.0,0.0,0.0,0.0,0.0,0.0,0.0,0.0,0.0,0.0,0.0,0.0,0.0,0.0,0.0,0.0,0.0,0.0,0.0,0.0,0.0,0.0,0.0,0.0,0.0,0.0,0.0,0.0,0.0,0.0,0.0,0.0,0.0,0.0,0.0,0.0,0.0,0.0,0.0,0.0,0.0,0.0,0.0,0.0,0.0,0.0,0.0,0.0,0.0,0.0,0.0,0.0,0.0,0.0,0.0,0.0,0.0,1.362,1.3411,1.2899,1.2125,1.204,1.1543,0.0,0.0,0.0,0.0,0.0,0.0,0.0,0.0,0.0,0.0,0.0,0.0,0.0,0.0,0.0,0.0,0.0,0.0,0.0,0.0,0.0,0.0,0.0,0.0,0.0,0.0,0.0,0.0,0.0,0.0,0.0,0.0,0.0,0.0,0.0,0.0,0.0,0.0,0.0,0.0,0.0,0.0,0.0,0.0,0.0,0.0,0.0,0.0,0.0,0.0,0.0,0.0,0.0,0.0,0.0,0.0,0.0,0.0,0.0,0.0,0.0,0.0,0.0,0.0,0.0,0.0,0.0,0.0,0.0,0.0,0.0,0.0,0.0,0.0,0.0,0.0,0.0,0.0,0.0,0.0,0.0,0.0,0.0,0.0,0.0,0.0,0.0,0.0,0.0,0.0,0.0,0.0,0.0,0.0,0.0,0.0,0.0,0.0,0.0,0.0,0.0,0.0,0.0,0.0,0.0,0.0,0.0,0.0,0.0,1.4659,1.4443,1.3969,1.3235,1.2677,1.2059,0.0,0.0,0.0,0.0,0.0,0.0,0.0,0.0,0.0,0.0,0.0,0.0,0.0,0.0,0.0,0.0,0.0,0.0,0.0,0.0,0.0,0.0,0.0,0.0,0.0,0.0,0.0,0.0,0.0,0.0,0.0,0.0,0.0,0.0,0.0,0.0,0.0,0.0,0.0,0.0,0.0,0.0,0.0,0.0,0.0,0.0,0.0,0.0,0.0,0.0,0.0,0.0,0.0,0.0,0.0,0.0,0.0,0.0,0.0,0.0,0.0,0.0,0.0,0.0,0.0,0.0,0.0,0.0,0.0,0.0,0.0,0.0,0.0,0.0,0.0,0.0,0.0,0.0,0.0,0.0,0.0,0.0,0.0,0.0,0.0,0.0,0.0,0.0,0.0,0.0,0.0,0.0,0.0,0.0,0.0,0.0,0.0,0.0,0.0,0.0,0.0,0.0,0.0,0.0,0.0,0.0,0.0,0.0,0.0,1.5179,0.0,1.4438,0.0,1.3122,1.2471,0.0,0.0,0.0,0.0,0.0,0.0,0.0,0.0,0.0,0.0,0.0,0.0,0.0,0.0,0.0,0.0,0.0,0.0,0.0,0.0,0.0,0.0,0.0,0.0,0.0,0.0,0.0,0.0,0.0,0.0,0.0,0.0,0.0,0.0,0.0,0.0,0.0,0.0,0.0,0.0,0.0,0.0,0.0,0.0,0.0,0.0,0.0,0.0,0.0,0.0,0.0,0.0,0.0,0.0,0.0,0.0,0.0,0.0,0.0,0.0,0.0,0.0,0.0,0.0,0.0,0.0,0.0,0.0,0.0,0.0,0.0,0.0,0.0,0.0,0.0,0.0,0.0,0.0,0.0,0.0,0.0,0.0,0.0,0.0,0.0,0.0,0.0,0.0,0.0,0.0,0.0,0.0,0.0,0.0,0.0,0.0,0.0,0.0,0.0,0.0,0.0,0.0,0.0,0.0,0.0,0.0,0.0,0.0,1.5208,1.5015,1.4544,1.417,1.3836,1.3291,1.2816,0.0,0.0,0.0,0.0,0.0,0.0,0.0,0.0,0.0,0.0,0.0,0.0,0.0,0.0,0.0,0.0,0.0,0.0,0.0,0.0,0.0,0.0,0.0,0.0,0.0,0.0,0.0,0.0,0.0,0.0,0.0,0.0,0.0,0.0,0.0,0.0,0.0,0.0,0.0,0.0,0.0,0.0,0.0,0.0,0.0,0.0,0.0,0.0,0.0,0.0,0.0,0.0,0.0,0.0,0.0,0.0,0.0,0.0,0.0,0.0,0.0,0.0,0.0,0.0,0.0,0.0,0.0,0.0,0.0,0.0,0.0,0.0,0.0,0.0,0.0,0.0,0.0,0.0,0.0,0.0,0.0,0.0,0.0,0.0,0.0,0.0,0.0,0.0,0.0,0.0,0.0,0.0,0.0,0.0,0.0,0.0,0.0,0.0,0.0,0.0,0.0,0.0,0.0,0.0,0.0,0.0,0.0,0.0,0.0,1.4947,1.46,1.4424,1.4393,1.3613,1.3163,0.0,0.0,0.0,0.0,0.0,0.0,0.0,0.0,0.0,0.0,0.0,0.0,0.0,0.0,0.0,0.0,0.0,0.0,0.0,0.0,0.0,0.0,0.0,0.0,0.0,0.0,0.0,0.0,0.0,0.0,0.0,0.0,0.0,0.0,0.0,0.0,0.0,0.0,0.0,0.0,0.0,0.0,0.0,0.0,0.0,0.0,0.0,0.0,0.0,0.0,0.0,0.0,0.0,0.0,0.0,0.0,0.0,0.0,0.0,0.0,0.0,0.0,0.0,0.0,0.0,0.0,0.0,0.0,0.0,0.0,0.0,0.0,0.0,0.0,0.0,0.0,0.0,0.0,0.0,0.0,0.0,0.0,0.0,0.0,0.0,0.0,0.0,0.0,0.0,0.0,0.0,0.0,0.0,0.0,0.0,0.0,0.0,0.0,0.0,0.0,0.0,0.0,0.0,0.0,0.0,0.0,0.0,0.0,0.0,1.536,1.5225,1.5095,1.4888,1.4356,1.3911,1.3493,0.0,0.0,0.0,0.0,0.0,0.0,0.0,0.0,0.0,0.0,0.0,0.0,0.0,0.0,0.0,0.0,0.0,0.0,0.0,0.0,0.0,0.0,0.0,0.0,0.0,0.0,0.0,0.0,0.0,0.0,0.0,0.0,0.0,0.0,0.0,0.0,0.0,0.0,0.0,0.0,0.0,0.0,0.0,0.0,0.0,0.0,0.0,0.0,0.0,0.0,0.0,0.0,0.0,0.0,0.0,0.0,0.0,0.0,0.0,0.0,0.0,0.0,0.0,0.0,0.0,0.0,0.0,0.0,0.0,0.0,0.0,0.0,0.0,0.0,0.0,0.0,0.0,0.0,0.0,0.0,0.0,0.0,0.0,0.0,0.0,0.0,0.0,0.0,0.0,0.0,0.0,0.0,0.0,0.0,0.0,0.0,0.0,0.0,0.0,0.0,0.0,0.0,0.0,0.0,0.0,0.0,0.0,0.0,1.6086,1.6304,1.6025,1.5263,1.5285,1.4891,0.0,0.0,0.0,0.0,0.0,0.0,0.0,0.0,0.0,0.0,0.0,0.0,0.0,0.0,0.0,0.0,0.0,0.0,0.0,0.0,0.0,0.0,0.0,0.0,0.0,0.0,0.0,0.0,0.0,0.0,0.0,0.0,0.0,0.0,0.0,0.0,0.0,0.0,0.0,0.0,0.0,0.0,0.0,0.0,0.0,0.0,0.0,0.0,0.0,0.0,0.0,0.0,0.0,0.0,0.0,0.0,0.0,0.0,0.0,0.0,0.0,0.0,0.0,0.0,0.0,0.0,0.0,0.0,0.0,0.0,0.0,0.0,0.0,0.0,0.0,0.0,0.0,0.0,0.0,0.0,0.0,0.0,0.0,0.0,0.0,0.0,0.0,0.0,0.0,0.0,0.0,0.0,0.0,0.0,0.0,0.0,0.0,0.0,0.0,0.0,0.0,0.0,0.0,0.0,0.0,0.0,0.0,0.0,0.0,1.709,1.6956,1.648,1.5648,1.5158,1.4713,0.0,0.0,0.0,0.0,0.0,0.0,0.0,0.0,0.0,0.0,0.0,0.0,0.0,0.0,0.0,0.0,0.0,0.0,0.0,0.0,0.0,0.0,0.0,0.0,0.0,0.0,0.0,0.0,0.0,0.0,0.0,0.0,0.0,0.0,0.0,0.0,0.0,0.0,0.0,0.0,0.0,0.0,0.0,0.0,0.0,0.0,0.0,0.0,0.0,0.0,0.0,0.0,0.0,0.0,0.0,0.0,0.0,0.0,0.0,0.0,0.0,0.0,0.0,0.0,0.0,0.0,0.0,0.0,0.0,0.0,0.0,0.0,0.0,0.0,0.0,0.0,0.0,0.0,0.0,0.0,0.0,0.0,0.0,0.0,0.0,0.0,0.0,0.0,0.0,0.0,0.0,0.0,0.0,0.0,0.0,0.0,0.0,0.0,0.0,0.0,0.0,0.0,0.0,0.0,0.0,0.0,0.0,0.0,1.734,1.724,1.6947,1.6597,1.6192,1.5619,1.4961,0.0,0.0,0.0,0.0,0.0,0.0,0.0,0.0,0.0,0.0,0.0,0.0,0.0,0.0,0.0,0.0,0.0,0.0,0.0,0.0,0.0,0.0,0.0,0.0,0.0,0.0,0.0,0.0,0.0,0.0,0.0,0.0,0.0,0.0,0.0,0.0,0.0,0.0,0.0,0.0,0.0,0.0,0.0,0.0,0.0,0.0,0.0,0.0,0.0,0.0,0.0,0.0,0.0,0.0,0.0,0.0,0.0,0.0,0.0,0.0,0.0,0.0,0.0,0.0,0.0,0.0,0.0,0.0,0.0,0.0,0.0,0.0,0.0,0.0,0.0,0.0,0.0,0.0,0.0,0.0,0.0,0.0,0.0,0.0,0.0,0.0,0.0,0.0,0.0,0.0,0.0,0.0,0.0,0.0,0.0,0.0,0.0,0.0,0.0,0.0,0.0,0.0,0.0,0.0,0.0,0.0,0.0,0.0,1.7073,1.6876,1.6607,1.6522,1.662,1.6258,1.5414,0.0,0.0,0.0,0.0,0.0,0.0,0.0,0.0,0.0,0.0,0.0,0.0,0.0,0.0,0.0,0.0,0.0,0.0,0.0,0.0,0.0,0.0,0.0,0.0,0.0,0.0,0.0,0.0,0.0,0.0,0.0,0.0,0.0,0.0,0.0,0.0,0.0,0.0,0.0,0.0,0.0,0.0,0.0,0.0,0.0,0.0,0.0,0.0,0.0,0.0,0.0,0.0,0.0,0.0,0.0,0.0,0.0,0.0,0.0,0.0,0.0,0.0,0.0,0.0,0.0,0.0,0.0,0.0,0.0,0.0,0.0,0.0,0.0,0.0,0.0,0.0,0.0,0.0,0.0,0.0,0.0,0.0,0.0,0.0,0.0,0.0,0.0,0.0,0.0,0.0,0.0,0.0,0.0,0.0,0.0,0.0,0.0,0.0,0.0,0.0,0.0,0.0,0.0,0.0,0.0,0.0,0.0,0.0,1.685,1.6607,1.6461,1.6386,1.6331,1.5882,1.5299,0.0,0.0,0.0,0.0,0.0,0.0,0.0,0.0,0.0,0.0,0.0,0.0,0.0,0.0,0.0,0.0,0.0,0.0,0.0,0.0,0.0,0.0,0.0,0.0,0.0,0.0,0.0,0.0,0.0,0.0,0.0,0.0,0.0,0.0,0.0,0.0,0.0,0.0,0.0,0.0,0.0,0.0,0.0,0.0,0.0,0.0,0.0,0.0,0.9239,0.0,0.0,0.0,0.0,0.0,0.0,0.0,0.0,0.0,0.0,0.0,0.0,0.0,0.0,0.0,0.0,0.0,0.0,0.0,0.0,0.0,0.0,0.0,0.0,0.0,0.0,0.0,0.0,0.0,0.0,0.0,0.0,0.0,0.0,0.0,0.0,0.0,0.0,0.0,0.0,0.0,0.0,0.0,0.0,0.0,0.0,0.0,0.0,0.0,0.0,0.0,0.0,0.0,0.0,0.0,0.0,0.0,0.0,0.0,1.6832,1.6911,1.6523,1.6367,1.6544,1.5954,1.5416,0.0,0.0,0.0,0.0,0.0,0.0,0.0,0.0,0.0,0.0,0.0,0.0,0.0,0.0,0.0,0.0,0.0,0.0,0.0,0.0,0.0,0.0,0.0,0.0,0.0,0.0,0.0,0.0,0.0,0.0,0.0,0.0,0.0,0.0,0.0,0.0,0.0,0.0,0.0,0.0,0.0,0.0,0.0,0.0,0.0,0.0,0.0,0.0,0.0,0.0,0.0,0.0,0.0,0.0,0.0,0.0,0.0,0.0,0.0,0.0,0.0,0.0,0.0,0.0,0.0,0.0,0.0,0.0,0.0,0.0,0.0,0.0,0.0,0.0,0.0,0.0,0.0,0.0,0.0,0.0,0.0,0.0,0.0,0.0,0.0,0.0,0.0,0.0,0.0,0.0,0.0,0.0,0.0,0.0,0.0,0.0,0.0,0.0,0.0,0.0,0.0,0.0,0.0,0.0,0.0,0.0,0.0,1.6918,1.7036,1.7405,1.674,1.65,1.6929,1.6203,1.562,1.529,0.0,0.0,0.0,0.0,0.0,0.0,0.0,0.0,0.0,0.0,0.0,0.0,0.0,0.0,0.0,0.0,0.0,0.0,0.0,0.0,0.0,0.0,0.0,0.0,0.0,0.0,0.0,0.0,0.0,0.0,0.0,0.0,0.0,0.0,0.0,0.0,0.0,0.0,0.762,0.8415,0.0,0.0,0.0,0.0,0.0,0.0,0.0,0.0,1.0404,0.0,0.0,0.0,0.0,0.0,0.0,0.0,0.0,0.0,0.0,0.0,0.0,0.0,0.0,0.0,0.0,0.0,0.0,0.0,0.0,0.0,0.0,0.0,0.0,0.0,0.0,0.0,0.0,0.0,0.0,0.0,0.0,0.0,0.0,0.0,0.0,0.0,0.0,0.0,0.0,0.0,0.0,0.0,0.0,0.0,0.0,0.0,0.0,0.0,0.0,0.0,0.0,0.0,0.0,0.0,0.0,1.7567,1.7435,1.7476,1.7698,1.7159,1.6822,1.6652,1.6113,1.5756,1.568,0.0,0.0,0.0,0.0,0.0,0.0,0.0,0.0,0.0,0.0,0.0,0.0,0.0,0.0,0.0,0.0,0.0,0.0,0.0,0.0,0.0,0.0,0.0,0.0,0.0,0.0,0.0,0.0,0.0,0.0,0.0,0.0,0.0,0.0,0.0,0.0,0.0,0.0,0.0,0.9714,0.9828,0.0,0.0,0.0,0.0,0.0,0.0,0.0,0.0,1.1151,0.0,0.0,0.0,0.0,0.0,0.0,0.0,0.0,0.0,0.0,0.0,0.0,0.0,0.0,0.0,0.0,0.0,0.0,0.0,0.0,0.0,0.0,0.0,0.0,0.0,0.0,0.0,0.0,0.0,0.0,0.0,0.0,0.0,0.0,0.0,0.0,0.0,0.0,0.0,0.0,0.0,0.0,0.0,0.0,0.0,0.0,0.0,0.0,0.0,0.0,0.0,0.0,0.0,0.0,0.0,1.7784,1.79,1.8088,1.8399,1.7747,1.7323,1.711,1.6522,1.6068,0.0,0.0,0.0,0.0,0.0,0.0,0.0,0.0,0.0,0.0,0.0,0.0,0.0,0.0,0.0,0.0,0.0,0.0,0.0,0.0,0.0,0.0,0.0,0.0,0.0,0.0,0.0,0.0,0.0,0.0,0.0,0.0,0.0,0.0,0.0,0.0,0.0,0.0,0.0,0.0,1.001,1.0059,1.0205,0.0,0.0,0.0,0.0,0.0,0.0,1.185,1.1769,0.0,0.0,0.0,0.0,0.0,0.0,0.0,0.0,0.0,0.0,0.0,0.0,0.0,0.0,0.0,0.0,0.0,0.0,0.0,0.0,0.0,0.0,0.0,0.0,0.0,0.0,0.0,0.0,0.0,0.0,0.0,0.0,0.0,0.0,0.0,0.0,0.0,0.0,0.0,0.0,0.0,0.0,0.0,0.0,0.0,0.0,0.0,0.0,0.0,0.0,0.0,0.0,0.0,0.0,0.0,1.8067,1.829,1.8601,1.9083,1.824,1.775,1.7581,1.6833,1.6224,0.0,0.0,0.0,0.0,0.0,0.0,0.0,0.0,0.0,0.0,0.0,0.0,0.0,0.0,0.0,0.0,0.0,0.0,0.0,0.0,0.0,0.0,0.0,0.0,0.0,0.0,0.0,0.0,0.0,0.0,0.0,0.0,0.0,0.0,0.0,0.0,0.0,0.0,0.0,0.0,0.0,1.0244,1.0479,1.0855,0.0,0.0,0.0,0.0,1.2487,1.2417,0.0,0.0,0.0,0.0,0.0,0.0,0.0,0.0,0.0,0.0,0.0,0.0,0.0,0.0,0.0,0.0,0.0,0.0,0.0,0.0,0.0,0.0,0.0,0.0,0.0,0.0,0.0,0.0,0.0,0.0,0.0,0.0,0.0,0.0,0.0,0.0,0.0,0.0,0.0,0.0,0.0,0.0,0.0,0.0,0.0,0.0,0.0,0.0,0.0,0.0,0.0,0.0,0.0,0.0,0.0,0.0,1.8551,1.8469,1.8778,1.9405,1.8388,1.775,1.7581,1.6484,1.5852,0.0,0.0,0.0,0.0,0.0,0.0,0.0,0.0,0.0,0.0,0.0,0.0,0.0,0.0,0.0,0.0,0.0,0.0,0.0,0.0,0.0,0.0,0.0,0.0,0.0,0.0,0.0,0.0,0.0,0.0,0.0,0.0,0.0,0.0,0.0,0.0,0.0,0.0,0.0,0.0,0.0,1.0723,1.1226,1.1257,1.1612,0.0,0.0,0.0,1.303,1.3185,0.0,0.0,0.0,0.0,0.0,0.0,0.0,0.0,0.0,0.0,0.0,0.0,0.0,0.0,0.0,0.0,0.0,0.0,0.0,0.0,0.0,0.0,0.0,0.0,0.0,0.0,0.0,0.0,0.0,0.0,0.0,0.0,0.0,0.0,0.0,0.0,0.0,0.0,0.0,0.0,0.0,0.0,0.0,0.0,0.0,0.0,0.0,0.0,0.0,0.0,0.0,0.0,0.0,0.0,0.0,1.8188,1.8793,1.8982,1.9341,1.9786,1.9258,1.8647,1.8055,1.7545,1.6942,0.0,0.0,0.0,0.0,0.0,0.0,0.0,0.0,0.0,0.0,0.0,0.0,0.0,0.0,0.0,0.0,0.0,0.0,0.0,0.0,0.0,0.0,0.0,0.0,0.0,0.0,0.0,0.0,0.0,0.0,0.0,0.0,0.0,0.0,0.0,0.0,0.0,0.0,0.0,0.0,0.0,0.0,1.146,1.2027,0.0,0.0,0.0,1.3195,1.3379,0.0,0.0,0.0,0.0,0.0,0.0,0.0,0.0,0.0,0.0,0.0,0.0,0.0,0.0,0.0,0.0,0.0,0.0,0.0,0.0,0.0,0.0,0.0,0.0,0.0,0.0,0.0,0.0,0.0,0.0,0.0,0.0,0.0,0.0,0.0,0.0,0.0,0.0,0.0,0.0,0.0,0.0,0.0,0.0,0.0,0.0,0.0,0.0,0.0,0.0,0.0,0.0,0.0,0.0,0.0,0.0,0.0,1.8943,1.9227,1.9554,2.0003,1.9724,1.9245,1.8597,1.835,0.0,0.0,0.0,0.0,0.0,0.0,0.0,0.0,0.0,0.0,0.0,0.0,0.0,0.0,0.0,0.0,0.0,0.0,0.0,0.0,0.0,0.0,0.0,0.0,0.0,0.0,0.0,0.8093,0.0,0.0,0.0,0.0,0.0,0.0,0.0,0.0,0.0,0.0,0.0,0.0,0.0,0.0,1.1532,1.1871,1.26,1.3125,0.0,0.0,1.3621,1.361,1.3467,1.3362,0.0,0.0,0.0,0.0,0.0,0.0,0.0,0.0,0.0,0.0,0.0,0.0,0.0,0.0,0.0,0.0,0.0,0.0,0.0,0.0,0.0,0.0,0.0,0.0,0.0,0.0,0.0,0.0,0.0,0.0,0.0,0.0,0.0,0.0,0.0,0.0,0.0,0.0,0.0,0.0,0.0,0.0,0.0,0.0,0.0,0.0,0.0,0.0,0.0,0.0,0.0,0.0,0.0,0.0,0.0,1.9035,1.8817,1.9182,2.0118,1.9309,1.8884,1.892,1.8226,1.7846,0.0,0.0,0.0,0.0,0.0,0.0,0.0,0.0,0.0,0.0,0.0,0.0,0.0,0.0,0.0,0.0,0.0,0.0,0.0,0.0,0.0,0.0,0.0,0.0,0.0,0.0,0.0,0.0,0.0,0.0,0.0,0.0,0.0,0.0,0.0,0.0,0.0,0.0,0.0,0.0,0.0,1.1954,1.272,1.2886,1.3082,0.0,0.0,1.3773,1.3621,1.3668,1.3716,1.3621,0.0,0.0,0.0,0.0,0.0,0.0,0.0,0.0,0.0,0.0,0.0,0.0,0.0,0.0,0.0,0.0,0.0,0.0,0.0,0.0,0.0,0.0,0.0,0.0,0.0,0.0,0.0,0.0,0.0,0.0,0.0,0.0,0.0,0.0,0.0,0.0,0.0,0.0,0.0,0.0,0.0,0.0,0.0,0.0,0.0,0.0,0.0,0.0,0.0,0.0,0.0,0.0,0.0,1.8432,1.9211,1.9303,1.9684,2.0346,2.0041,1.9775,1.9598,1.9309,1.897,0.0,0.0,0.0,0.0,0.0,0.0,0.0,0.0,0.0,0.0,0.0,0.0,0.0,0.0,0.0,0.0,0.0,0.0,0.0,0.0,0.0,0.0,0.0,0.0,0.0,0.0,0.0,0.0,0.8992,0.9014,0.9235,0.0,0.0,0.0,0.0,0.0,0.0,0.0,0.0,0.0,0.0,1.2769,1.3361,1.3742,0.0,0.0,1.4581,1.4631,1.4469,1.4281,1.4237,1.4547,1.4032,0.0,0.0,0.0,0.0,0.0,0.0,0.0,0.0,0.0,0.0,0.0,0.0,0.0,0.0,0.0,0.0,0.0,0.0,0.0,0.0,0.0,0.0,0.0,0.0,0.0,0.0,0.0,0.0,0.0,0.0,0.0,0.0,0.0,0.0,0.0,0.0,0.0,0.0,0.0,0.0,0.0,0.0,0.0,0.0,0.0,0.0,0.0,0.0,0.0,0.0,0.0,0.0,1.9202,1.9691,1.9873,2.0171,2.0649,2.0549,2.0398,2.0233,2.0131,1.9889,0.0,0.0,0.0,0.0,0.0,0.0,0.0,0.0,0.0,0.0,0.0,0.0,0.0,0.0,0.0,0.0,0.0,0.0,0.0,0.0,0.0,0.0,0.0,0.0,0.0,0.0,0.0,0.0,0.9962,0.9869,0.9963,0.0,0.0,0.0,0.0,0.0,0.0,0.0,0.0,0.0,0.0,1.3491,1.4049,1.4513,1.4839,1.4945,1.5112,1.5164,1.4997,1.4779,1.4726,1.5081,0.0,0.0,0.0,0.0,0.0,0.0,0.0,0.0,0.0,0.0,0.0,0.0,0.0,0.0,0.0,0.0,0.0,0.0,0.0,0.0,0.0,0.0,0.0,0.0,0.0,0.0,0.0,0.0,0.0,0.0,0.0,0.0,0.0,0.0,0.0,0.0,0.0,0.0,0.0,0.0,0.0,0.0,0.0,0.0,0.0,0.0,0.0,0.0,0.0,0.0,0.0,0.0,0.0,0.0,2.0639,2.0355,2.046,2.0957,2.0623,2.051,2.0746,2.0422,2.0308,2.0508,0.0,0.0,0.0,0.0,0.0,0.0,0.0,0.0,0.0,0.0,0.0,0.0,0.0,0.0,0.0,0.0,0.0,0.0,0.0,0.0,0.0,0.0,0.0,0.0,0.0,0.0,1.1792,1.161,1.1295,0.0,0.0,0.0,0.0,0.0,0.0,0.0,0.0,0.0,0.0,1.3695,1.4039,1.4676,1.4924,1.4934,1.486,1.5028,1.5185,1.5028,1.5112,1.5154,0.0,0.0,0.0,0.0,0.0,0.0,0.0,0.0,0.0,0.0,0.0,0.0,0.0,0.0,0.0,0.0,0.0,0.0,0.0,0.0,0.0,0.0,0.0,0.0,0.0,0.0,0.0,0.0,1.4848,0.0,0.0,0.0,0.0,0.0,0.0,0.0,0.0,0.0,0.0,0.0,1.713,1.7429,0.0,0.0,0.0,0.0,0.0,0.0,0.0,0.0,0.0,0.0,0.0,0.0,2.0475,2.068,2.0745,2.0797,2.0961,2.0848,2.0799,2.0851,2.0725,2.0479,2.01,0.0,0.0,0.0,0.0,0.0,0.0,0.0,0.0,0.0,0.0,0.0,0.0,0.0,0.0,0.0,0.0,0.0,0.0,0.0,0.0,0.0,0.0,0.0,0.0,0.0,1.1501,0.0,0.0,0.0,0.0,0.0,0.0,0.0,0.0,0.0,0.0,0.0,1.3103,1.3409,1.3851,1.4335,1.4992,1.5019,1.5129,0.0,0.0,0.0,0.0,0.0,0.0,0.0,0.0,0.0,0.0,0.0,0.0,0.0,0.0,1.5636,1.5509,1.5195,1.4892,1.4829,0.0,0.0,0.0,0.0,0.0,0.0,0.0,0.0,0.0,0.0,0.0,0.0,0.0,0.0,0.0,0.0,1.5127,0.0,0.0,0.0,0.0,0.0,0.0,0.0,0.0,1.7732,1.793,1.8219,1.8503,1.8519,0.0,1.862,1.8614,0.0,0.0,0.0,0.0,0.0,0.0,0.0,0.0,2.1074,2.1088,2.1137,2.1144,2.1158,2.1095,2.1059,2.105,2.1037,2.0647,1.9908,1.9561,1.8963,0.0,0.0,0.0,0.0,0.0,0.0,0.0,0.0,0.0,0.0,0.0,0.0,0.0,0.0,0.0,0.0,0.0,0.0,0.0,0.0,0.0,0.0,0.0,1.2509,0.0,0.0,0.0,0.0,0.0,0.0,0.0,0.0,0.0,1.2759,1.334,1.3892,1.3952,1.4215,1.4631,1.5177,0.0,0.0,0.0,0.0,0.0,0.0,0.0,1.583,1.6181,1.5944,1.5941,1.6353,1.6462,1.6452,1.6498,0.0,0.0,1.5965,1.5597,1.5325,1.5205,1.4922,1.4706,1.4569,1.4284,1.4024,0.0,0.0,0.0,0.0,0.0,0.0,0.0,0.0,1.6704,1.6631,0.0,1.6494,0.0,0.0,0.0,0.0,0.0,0.0,0.0,0.0,1.9479,1.9717,1.9557,1.9399,1.922,1.902,1.8879,1.9137,1.9625,1.8921,0.0,0.0,0.0,0.0,0.0,0.0,2.1793,2.1793,2.1554,2.1423,2.1423,2.1277,2.1277,2.1375,2.1277,2.0828,2.0104,2.0133,1.9601,1.8328,1.8149,0.0,0.0,0.0,0.0,0.0,0.0,0.0,0.0,0.0,0.0,0.0,0.0,0.0,0.0,0.0,0.0,0.0,0.0,0.0,0.0,1.4418,0.0,0.0,0.0,0.0,0.0,0.0,0.0,0.0,0.0,0.0,1.4162,1.4434,1.4795,1.4962,0.0,0.0,0.0,0.0,1.5712,1.5702,1.5838,1.5916,1.5916,1.6128,1.6336,1.6457,0.0,0.0,1.7461,1.7461,1.7368,1.7222,1.7181,1.7022,1.6523,1.6207,1.5984,1.6013,1.5904,1.5725,1.5254,1.4798,1.4347,1.9236,0.0,0.0,0.0,0.0,1.6558,1.6882,1.7349,1.6743,1.6817,1.7268,1.6683,0.0,0.0,0.0,0.0,0.0,0.0,1.894,1.9537,1.9608,1.9574,1.9416,1.9722,1.9771,1.9668,2.0446,2.0928,2.1098,2.1135,2.0941,2.0445,0.0,0.0,0.0,0.0,2.1935,2.1949,2.165,2.1609,2.1691,2.1574,2.1423,2.1277,2.1131,2.0953,2.0695,2.0393,2.002,1.9615,1.8804,0.0,0.0,0.0,0.0,0.0,0.0,0.0,0.0,0.0,0.0,0.0,0.0,0.0,0.0,0.0,0.0,0.0,0.0,0.0,1.4786,1.4516,1.4505,0.0,0.0,0.0,0.0,0.0,0.0,0.0,0.0,0.0,1.6471,1.5797,1.5281,0.0,0.0,1.5595,1.5667,1.5898,1.6046,1.5988,0.0,0.0,0.0,1.6641,1.6792,1.6668,1.6964,1.7232,1.7294,1.7409,1.7419,1.7242,1.7106,1.6944,1.6693,1.6579,1.649,1.649,1.6135,1.5816,1.5786,1.5385,1.4877,2.0555,1.8985,1.902,1.8771,1.8393,1.8394,1.8519,1.8626,1.8073,1.7914,1.8057,1.7541,1.7666,1.8295,1.8374,0.0,0.0,0.0,1.9881,2.0173,2.0345,2.0426,2.0453,2.0734,2.0878,2.1029,2.1729,2.2014,2.1957,2.2086,2.2093,2.1884,0.0,0.0,2.2117,2.208,2.2077,2.2091,2.1807,2.1753,2.1774,2.1705,2.1616,2.1471,2.1375,2.1277,2.118,2.0893,2.0631,2.0308,1.9427,1.8782,0.0,0.0,0.0,0.0,0.0,0.0,0.0,0.0,0.0,0.0,0.0,1.5633,1.5537,0.0,0.0,0.0,1.5405,1.5404,1.5498,1.5048,0.0,0.0,0.0,0.0,0.0,0.0,0.0,1.702,1.7805,1.8041,1.7132,1.6622,1.622,1.5984,1.6111,1.6288,1.6179,0.0,1.6233,1.6296,1.648,1.6602,1.6665,1.6865,1.7096,1.7207,1.7431,1.7616,1.7616,1.7745,1.7755,1.7561,1.7431,1.7357,1.7161,1.7031,1.6919,1.6778,1.6437,1.6204,1.6321,1.5926,1.5519,2.1964,2.1304,2.1363,2.1355,2.1366,2.1305,2.091,2.0373,2.0152,1.9664,1.8983,1.8892,1.9167,1.9685,2.009,0.0,0.0,2.0726,2.095,2.0879,2.142,2.189,2.2274,2.2139,2.228,2.2618,2.2664,2.259,2.2401,2.2232,2.2677,2.3626,2.2888,2.2644,2.302,2.2548,2.2301,2.2301,2.1977,2.1841,2.1793,2.1793,2.1793,2.1793,2.1807,2.165,2.1471,2.1554,2.1308,2.0623,2.0044,1.9546,1.9084,0.0,0.0,0.0,0.0,0.0,0.0,0.0,0.0,0.0,0.0,0.0,0.0,0.0,0.0,0.0,1.6547,0.0,1.6409,1.5898,0.0,0.0,0.0,1.6388,1.7308,1.7869,1.8145,1.7995,0.0,0.0,0.0,0.0,1.7486,1.7565,1.7167,1.6864,1.6769,1.6533,1.6415,1.666,1.6616,1.6645,1.6947,1.7193,1.7552,1.7901,1.8193,1.8279,1.823,1.8287,1.8182,1.7959,1.7998,1.791,1.7696,1.7463,1.7263,1.6908,1.6803,1.6736,1.6589,1.6262,1.598,2.3061,2.2946,2.2946,2.2271,2.1169,2.112,2.1031,2.0894,2.0776,2.0625,2.0403,2.0297,2.0209,2.0136,2.0206,2.045,2.0863,2.0925,2.1433,2.2285,2.2341,2.2557,2.2946,2.2927,2.283,2.2729,2.3155,2.3289,2.3188,2.3417,2.3921,2.4608,2.403,2.3931,2.4226,2.3574,2.3126,2.3031,2.2423,2.203,2.1935,2.1882,2.1773,2.1793,2.1602,2.1568,2.1698,2.1616,2.1547,2.1492,2.1097,2.0829,2.0748,2.0132,0.0,0.0,0.0,0.0,0.0,0.0,0.0,0.0,0.0,1.8234,1.814,0.0,1.8689,0.0,1.7815,1.7254,1.7097,1.6644,0.0,0.0,1.7256,1.7616,1.8829,1.8589,1.8392,1.8594,1.8985,1.9041,1.8399,1.8733,1.8932,1.8687,1.7624,1.6847,1.6617,1.6967,1.7111,1.7042,1.7338,1.7745,1.8115,1.8475,1.866,1.8334,1.8556,1.8577,1.7969,1.8124,1.8202,1.7852,1.7784,1.7647,1.7364,1.7028,1.6869,1.6821,1.6626,1.6473,1.6505,1.5929,1.5386,2.3643,2.3987,2.3898,2.3555,2.3046,2.2349,2.1892,2.1636,2.1503,2.122,2.0877,2.0993,2.0942,2.083,2.102,2.1332,2.1657,2.1792,2.2202,2.2845,2.2981,2.3254,2.3647,2.3626,2.3549,2.3507,2.3881,2.3989,2.386,2.4315,2.4663,2.4911,2.5164,2.5295,2.534,2.45,2.3846,2.3498,2.2682,2.2358,2.2468,2.215,2.1963,2.1983,2.1855,2.1793,2.1888,2.1807,2.1807,2.1888,2.1457,2.1271,2.136,2.0782,2.0529,0.0,0.0,0.0,0.0,0.0,0.0,0.0,0.0,0.0,0.0,0.0,1.8932,0.0,1.846,0.0,1.7709,1.7453,1.7504,1.7936,1.7802,1.8111,1.9266,1.9145,1.9,1.9188,1.9466,1.941,1.8804,1.8914,1.9003,1.8721,1.7954,1.7364,1.7326,1.7382,1.7375,1.7504,1.7872,1.8368,1.8929,1.9203,1.915,1.8618,1.8643,1.8556,1.793,1.7998,1.8066,1.7774,1.7784,1.7725,1.7295,1.7107,1.6982,1.6625,1.6422,1.6295,1.6363,1.5834,1.538,2.3862,2.4437,2.436,2.4776,2.5358,2.4151,2.33,2.2705,2.2406,2.1914,2.136,2.1744,2.1867,2.1841,2.2332,2.2569,2.2574,2.2973,2.3119,2.319,2.3571,2.3964,2.4313,2.4254,2.4304,2.4523,2.4642,2.4591,2.4456,2.5019,2.5211,2.5138,2.6081,2.6485,2.6312,2.5436,2.4601,2.3865,2.3036,2.2776,2.3118,2.2578,2.2255,2.2184,2.2184,2.2091,2.2044,2.203,2.2044,2.203,2.1573,2.1457,2.165,2.1196,2.0969,0.0,2.1111,0.0,0.0,0.0,0.0,0.0,0.0,0.0,0.0,1.8802,1.8758,1.8768,1.8853,1.8738,1.8251,1.8196,1.8143,1.8123,1.8072,1.8417,1.9309,1.9581,1.9698,1.9829,1.9812,1.951,1.8822,1.8654,1.8529,1.8612,1.835,1.8232,1.8296,1.7767,1.7451,1.7998,1.8377,1.8938,1.9486,1.958,1.9336,1.8806,1.8679,1.8545,1.8018,1.8008,1.793,1.7716,1.7794,1.7735,1.7245,1.7254,1.7047,1.6438,1.6079,1.6002,1.6088,1.581,1.5502,2.3472,2.3756,2.4306,2.4594,2.4625,2.4918,2.4971,2.4829,2.4112,2.3884,2.4018,2.4087,2.404,2.3926,2.4032,2.3978,2.3854,2.3926,2.4165,2.4459,2.4538,2.4765,2.507,2.4955,2.4784,2.462,2.5098,2.5261,2.5149,2.5604,2.6077,2.6591,2.6497,2.6688,0.0,0.0,0.0,0.0,2.4218,2.3702,2.3257,2.2937,2.2594,2.2198,2.1983,0.0,2.2137,2.217,2.2231,2.2324,2.2423,0.0,0.0,0.0,0.0,0.0,0.0,0.0,0.0,0.0,0.0,0.0,2.0241,2.0031,2.0554,2.0636,2.0532,2.0247,1.9877,1.9447,1.8948,1.8906,1.8977,1.9221,1.9274,1.9562,2.014,2.0149,2.002,2.003,1.9931,1.9843,1.9626,1.9341,1.9266,1.9557,1.9259,1.9093,1.9253,1.835,1.785,1.8387,1.911,1.968,2.0014,2.0371,2.0112,1.9267,1.9088,1.8767,1.7958,1.794,1.7872,1.7598,1.7539,1.747,1.7047,1.676,1.6482,1.6202,1.5709,1.548,1.5757,1.5251,1.4778,2.359,0.0,2.4696,2.5174,0.0,2.5656,2.6011,2.6359,2.5174,2.4683,2.4731,2.4628,2.4554,2.4447,2.4447,2.4368,2.421,2.4561,2.4813,2.4972,2.5212,2.555,2.5885,2.5751,2.5702,2.5759,2.6018,2.6131,2.6032,2.6503,2.6765,2.6703,2.7025,2.716,2.7126,2.7136,2.6718,2.5727,2.4883,2.4562,2.4651,2.3978,2.3604,2.3547,0.0,0.0,0.0,0.0,0.0,0.0,0.0,0.0,0.0,0.0,0.0,2.4245,2.3799,2.3545,2.3517,2.2566,2.1971,2.1988,2.1365,2.0927,2.0818,2.0779,2.074,2.051,2.0486,2.0241,1.9724,2.0109,2.0302,2.014,2.0402,2.0699,2.072,2.0662,2.0635,2.0495,2.0442,2.0377,2.0388,2.0259,2.014,2.027,1.9991,1.9839,1.9754,1.8933,1.8527,1.9252,1.9928,2.0508,2.0742,2.0566,2.0286,1.9517,1.9111,1.865,1.7821,1.7784,1.7725,1.7461,1.7314,1.7245,1.6821,1.6542,1.6333,1.6,1.5647,1.5254,1.5227,1.476,1.4294,2.3803,2.4509,2.5174,2.5865,2.6527,2.6398,2.6722,2.7255,0.0,0.0,0.0,2.4961,2.4835,2.4805,2.4789,2.474,2.466,2.5263,2.5447,2.5307,2.5859,2.6238,2.6534,2.6446,2.6624,2.6922,2.7005,2.698,2.6907,2.7487,2.7457,2.6903,2.7603,2.7667,2.6988,2.722,2.7115,2.6587,2.5691,2.5524,2.6108,2.5274,2.4881,2.498,2.4657,2.4332,2.4118,2.4269,2.4269,2.4168,2.4168,2.4255,2.4326,2.4555,2.474,2.4811,2.4797,2.4776,2.4676,2.4042,2.3533,2.3286,2.2568,2.1725,2.0758,2.0718,2.0686,2.069,2.1104,2.1173,2.067,2.1304,2.1529,2.1001,2.1384,2.1529,2.1227,2.1285,2.1285,2.1158,2.125,2.1284,2.1307,2.1399,2.1392,2.1243,2.1061,2.0742,2.0443,1.9792,1.9475,2.0154,2.0657,2.112,2.1329,2.0999,2.0292,1.9667,1.9137,1.8574,1.7929,1.7774,1.7638,1.7382,1.7235,1.7028,1.6673,1.6473,1.6263,1.5867,1.5576,1.5213,1.4641,1.4281,1.4008,2.3886,2.47,2.5311,2.5985,2.6722,2.7121,2.7238,2.7117,2.6894,2.6681,2.6403,2.6387,2.6337,2.6303,2.637,2.6337,2.6269,2.6438,2.6335,0.0,2.6673,2.6809,2.6629,2.6926,2.7068,2.7099,2.7431,2.7562,2.7656,2.8171,2.8324,2.8134,2.8158,2.7929,2.7505,2.7444,2.7248,2.6951,2.7137,2.6924,2.6301,2.656,2.6153,2.5075,2.5067,2.4756,2.4132,2.4347,2.4469,2.4419,2.4504,2.4575,2.4702,2.5185,2.5524,2.5597,2.551,2.5422,2.5283,2.5197,2.4935,2.4529,2.3933,2.2962,2.1423,2.1713,2.1951,2.1716,2.2169,2.2401,2.2221,2.2152,2.2133,2.2111,2.1961,2.191,2.2011,2.2061,2.2073,2.2035,2.2456,2.2647,2.2635,2.2941,2.319,2.3435,2.253,2.2105,2.1731,2.1032,2.0596,2.0781,2.1083,2.1395,2.1532,2.1461,2.0757,1.976,1.9479,1.9011,1.8115,1.793,1.7803,1.7539,1.7245,1.7028,1.6682,1.6211,1.5929,1.5576,1.5292,1.4864,1.4346,1.4,1.379,2.4593,2.5392,2.6037,2.6454,2.6722,2.7148,2.7261,2.7137,2.7483,2.7555,2.7352,2.686,2.6842,2.7145,2.686,2.664,2.6554,2.6725,2.6808,2.6856,2.7151,2.7487,2.7835,2.7985,2.8201,2.8427,2.8489,2.8541,2.8588,2.8685,2.8748,2.8653,2.8381,2.8039,2.7725,2.7575,2.7565,2.7607,2.7336,2.7108,2.6963,2.6736,2.6554,2.621,2.5991,2.5625,2.5341,2.5826,2.5945,2.5497,2.5902,2.6035,2.5741,2.6067,2.6278,2.6329,2.6159,2.604,2.5988,2.5531,2.5086,2.4554,2.4207,2.3663,2.2807,2.2963,2.2961,2.2731,2.3001,2.3085,2.2954,2.317,2.3256,2.3078,2.3071,2.3207,2.3245,2.2936,2.2837,2.3084,2.3096,2.3071,2.3207,2.3691,2.3823,2.3655,2.2862,2.2385,2.2492,2.2139,2.1853,2.175,2.1976,2.2062,2.1897,2.1342,2.0771,2.0052,1.9525,1.8963,1.8251,1.8076,1.7872,1.7529,1.7176,1.6821,1.6473,1.607,1.5726,1.5355,1.515,1.4721,1.4201,1.3702,1.3257,2.5464,2.624,2.672,2.6933,2.694,2.7157,2.7299,2.7461,2.7878,2.8237,2.8354,2.7536,2.7466,2.7851,2.7435,2.7164,2.7094,2.7131,2.73,2.7523,2.7651,2.813,2.8796,2.8965,2.9237,2.9499,2.9396,2.9305,2.9259,2.9059,2.892,2.8826,2.8462,2.8198,2.8067,2.7966,2.8077,2.834,2.7667,2.7494,2.7907,2.7453,2.7423,2.7626,2.7295,2.6911,2.6797,2.7406,2.7489,2.6935,2.7446,2.7585,2.7132,2.7161,2.7156,2.7088,2.6875,2.6741,2.6775,2.5993,2.5351,2.4972,2.4773,2.4535,2.4423,2.4371,2.4094,2.3724,2.3811,2.387,2.3808,2.4106,2.4331,2.3962,2.4047,2.4119,2.4119,2.3679,2.3457,2.3885,2.3733,2.3752,2.4064,2.461,2.4805,2.4264,2.3455,2.3254,2.3478,2.3436,2.3164,2.3126,2.3112,2.2848,2.2382,2.1553,2.082,2.0441,1.9671,1.9083,1.86,1.8269,1.8076,1.7794,1.7304,1.6881,1.6542,1.6211,1.5859,1.5559,1.5355,1.4991,1.4489,1.384,1.3029,2.635,2.7,2.7038,2.7226,2.7561,2.7504,2.7768,2.8247,2.8168,2.8833,2.9782,2.913,2.8752,2.8693,2.8735,2.8742,2.871,2.8237,2.7981,2.8013,2.8426,2.8628,2.8661,2.9468,2.9848,2.9766,2.947,2.9305,2.9305,2.9183,2.8998,2.8842,2.8636,2.8639,2.8809,2.8716,2.8839,2.9243,2.9005,2.9,2.9261,2.9838,2.9822,2.9026,2.9073,2.8785,2.7997,2.8396,2.8565,2.8521,2.8633,2.8799,2.8807,2.8483,2.8225,2.8075,2.7543,2.7417,2.7637,2.6891,2.649,2.6869,2.6447,2.6107,2.5884,2.6112,2.571,2.4855,2.4833,2.4954,2.5022,2.4875,2.4771,2.4691,2.4487,2.43,2.4366,2.4099,2.4041,2.4067,2.4728,2.5355,2.5704,2.6339,2.6774,2.6311,2.5722,2.5369,2.5333,2.4834,2.4685,2.4869,2.4225,2.3255,2.301,2.2182,2.1371,2.0913,2.0216,1.9588,1.9122,1.8808,1.8472,1.8452,1.7978,1.7501,1.7088,1.6682,1.6263,1.6184,1.5965,1.5604,1.5188,1.4657,1.389,2.7216,2.7947,2.7911,2.7924,2.7961,2.7853,2.8145,2.8694,2.9001,2.9627,3.0448,3.0509,3.0173,2.958,2.927,2.9121,2.9053,2.8528,2.8442,2.868,2.8895,2.9084,2.9376,2.9988,3.0215,3.0044,2.9722,2.9531,2.9412,2.9213,2.8998,2.8794,2.8684,2.8568,2.8549,2.8414,2.8695,2.9451,2.9585,2.987,3.0221,2.9478,2.8853,2.8521,2.8144,2.8028,2.8144,2.863,2.8931,2.8975,2.941,2.9607,2.9416,2.9203,2.8928,2.8472,2.7691,2.7336,2.7483,2.7091,2.701,2.7166,2.7001,2.6855,2.6659,2.6712,2.6477,2.5973,2.5793,2.5729,2.5619,2.5508,2.5439,2.5397,2.5258,2.5213,2.548,2.501,2.4922,2.5579,2.5778,2.6117,2.6625,2.6873,2.7056,2.7026,2.6472,2.5861,2.5708,2.5387,2.537,2.5445,2.4695,2.4008,2.3537,2.2582,2.1789,2.1114,2.0595,2.004,1.9932,1.9594,1.933,1.9299,1.8767,1.8307,1.7842,1.7619,1.7335,1.7179,1.7073,1.688,1.6351,1.5753,1.5068,2.7958,2.8478,2.85,2.8406,2.8209,2.8099,2.8523,2.9259,2.9697,3.0316,3.1078,3.1504,3.1268,3.0551,3.0063,2.9807,2.9687,2.9214,2.918,2.9572,2.9498,2.9641,2.9993,3.0439,3.0468,3.0258,3.0027,2.9782,2.9576,2.9366,2.9183,2.9014,2.8826,2.8666,2.8593,2.8564,2.9061,2.9877,3.0379,3.0845,3.1138,2.9692,2.8843,2.8851,2.8454,2.8439,2.8921,2.9504,2.974,2.9755,3.044,3.0612,3.0218,3.0117,2.9674,2.8815,2.7897,2.7372,2.7386,2.7321,2.7269,2.7284,2.7284,2.7284,2.7144,2.7144,2.7144,2.693,2.6683,2.6418,2.6165,2.6096,2.6096,2.6096,2.6002,2.6021,2.6176,2.5786,2.5783,2.6589,2.6602,2.6987,2.7808,2.7882,2.7839,2.8036,2.6961,2.6022,2.6078,2.6031,2.5813,2.5982,2.5579,2.4813,2.4062,2.306,2.2215,2.1778,2.1255,2.0873,2.0805,2.056,2.0313,2.0279,1.9748,1.9344,1.9023,1.8803,1.8594,1.8344,1.8207,1.8112,1.7451,1.6912,1.6439,2.8601,2.8669,2.8562,2.8414,2.83,2.8164,2.8912,3.0168,3.0001,3.0695,3.1864,3.1896,3.1821,3.166,3.1408,3.1401,3.1339,3.0638,3.0384,3.0523,3.0377,3.0282,3.0221,3.0662,3.0733,3.0526,3.0316,3.006,2.981,2.971,2.9576,2.9441,2.9167,2.9187,2.9379,2.9816,3.0455,3.0745,3.1448,3.1982,3.2028,3.1372,3.1021,3.1036,3.101,3.0845,3.1108,3.1315,3.133,3.136,3.1645,3.1819,3.166,3.1293,3.0441,2.9297,2.8319,2.779,2.774,2.7675,2.7524,2.7437,2.764,2.764,2.7452,2.759,2.764,2.756,2.7473,2.7269,2.6788,2.6736,2.6669,2.6669,2.6563,2.6486,2.634,2.6292,2.6284,2.6835,2.7427,2.8307,2.9693,2.9897,2.9606,2.9316,2.8473,2.7679,2.7607,2.7064,2.6816,2.6919,2.651,2.5597,2.491,2.3867,2.3145,2.2684,2.2202,2.1815,2.1753,2.169,2.1502,2.1267,2.0923,2.0595,2.0353,2.0125,1.9882,1.9665,1.9427,1.9175,1.8676,1.8126,1.7656,2.8687,2.8694,2.8712,2.8612,2.8484,2.8466,2.9251,3.0463,3.0348,3.1062,3.2161,3.2214,3.2126,3.2018,3.1965,3.1875,3.1716,3.1025,3.0733,3.075,3.0554,3.0463,3.0441,3.0874,3.0992,3.0814,3.0609,3.0359,3.0044,2.987,2.9694,2.9515,2.9305,2.9201,2.9186,2.9325,2.9661,3.0089,3.0871,3.1442,3.1774,3.2091,3.2237,3.2053,3.0598,2.9801,2.9771,3.034,3.0873,3.1313,3.1509,3.1778,3.2038,3.1244,3.0514,2.9945,2.8847,2.8152,2.8088,2.7974,2.7974,2.794,2.7905,2.7936,2.7806,2.7855,2.7905,2.7855,2.7855,2.774,2.7575,2.7473,2.7357,2.7321,2.7306,2.7203,2.7151,2.7325,2.7783,2.8315,2.9266,3.0374,3.0645,3.0488,2.9963,2.9783,2.8674,2.8033,2.7884,2.7491,2.7321,2.7336,2.7002,2.6465,2.6036,2.4797,2.3844,2.3419,2.3042,2.2847,2.2749,2.2651,2.2518,2.1968,2.1752,2.1356,2.0862,2.06,2.0509,2.0854,2.0665,2.0204,1.9924,1.924,1.8977,2.8785,2.8767,2.881,2.8785,2.8694,2.8718,2.9355,3.0312,3.0241,3.08,3.1727,3.1996,3.2052,3.202,3.2213,3.2232,3.2039,3.1428,3.1149,3.1132,3.0934,3.0842,3.0874,3.113,3.1173,3.1078,3.0935,3.0733,3.0468,3.0225,3.0011,2.981,2.9649,2.9396,2.9229,2.9218,2.9532,3.0074,3.0861,3.1529,3.208,3.2739,3.2917,3.242,3.0944,2.9955,2.977,3.0118,3.0545,3.0997,3.1195,3.1573,3.2075,3.099,3.0355,3.0351,2.9234,2.8429,2.8378,2.8517,2.867,2.8639,2.8606,2.8572,2.8556,2.8388,2.8281,2.825,2.825,2.825,2.825,2.8186,2.8057,2.7875,2.789,2.789,2.7735,2.8291,2.8959,2.9828,3.094,3.1708,3.1723,3.0968,3.036,2.9955,2.8878,2.8217,2.8057,2.8008,2.7894,2.776,2.764,2.7327,2.6957,2.6111,2.5134,2.4654,2.4111,2.3884,2.3567,2.3496,2.3161,2.2654,2.2191,2.1769,2.1405,2.1087,2.1262,2.1663,2.1455,2.0966,2.068,2.0351,1.9929,2.8952,2.8905,2.8905,2.8905,2.8905,2.8858,2.9234,2.9842,2.971,3.0084,3.085,3.1346,3.1679,3.1685,3.2272,3.2539,3.2386,3.2022,3.1826,3.179,3.1642,3.1531,3.1531,3.1376,3.1312,3.1295,3.1213,3.1112,3.0975,3.0781,3.0601,3.0443,3.0146,2.9842,2.9697,2.9861,3.037,3.1018,3.1634,3.2459,3.3391,3.3419,3.3232,3.2676,3.2238,3.1943,3.1649,3.1,3.0705,3.0709,3.0908,3.1303,3.1726,3.0882,3.03,3.0639,2.9526,2.8745,2.8745,2.918,2.9446,2.9415,2.9652,2.9543,2.937,2.9027,2.8747,2.87,2.8747,2.8747,2.8732,2.8795,2.8637,2.8317,2.8348,2.8348,2.8419,2.8878,2.9817,3.1151,3.2122,3.2384,3.2034,3.1479,3.082,3.0129,2.9311,2.8764,2.8701,2.8654,2.8606,2.8511,2.8319,2.811,2.7864,2.75,2.6686,2.5915,2.5397,2.497,2.4299,2.3998,2.3445,2.2884,2.2273,2.1849,2.1709,2.1434,2.1179,2.1443,2.142,2.121,2.0664,2.0239,2.0421,2.9062,2.9062,2.9089,2.9112,2.9112,2.9089,2.9457,3.0015,2.9926,3.0259,3.0902,3.1512,3.178,3.1849,3.2414,3.269,3.2539,3.2301,3.2144,3.2037,3.1858,3.1783,3.1709,3.1579,3.1504,3.1504,3.1462,3.1385,3.1329,3.1095,3.0838,3.0609,3.0401,3.0162,2.9946,2.9996,3.0325,3.0846,3.1566,3.227,3.2958,3.3505,3.3617,3.346,3.306,3.2594,3.195,3.1515,3.1052,3.0592,3.072,3.1087,3.1531,3.1754,3.1815,3.1779,3.0735,2.9911,2.9785,2.9626,2.9578,2.9546,2.9516,2.9437,2.9328,2.9061,2.8858,2.8842,2.8811,2.8858,2.8826,2.9045,2.9029,2.8684,2.8763,2.914,2.9673,3.0616,3.1817,3.2636,3.2992,3.2909,3.2431,3.1833,3.1182,3.0622,2.978,2.9213,2.9227,2.9182,2.9059,2.892,2.892,2.8685,2.8217,2.7702,2.707,2.6365,2.5893,2.5299,2.4741,2.4062,2.352,2.2944,2.2268,2.1944,2.1874,2.1625,2.1244,2.0911,2.074,2.0428,2.004,2.0047,2.0266,2.9178,2.9181,2.9225,2.9206,2.9246,2.9246,2.9477,2.9743,2.9727,2.9923,3.0257,3.083,3.124,3.1482,3.2112,3.2521,3.2621,3.2574,3.2422,3.2196,3.1984,3.1875,3.1856,3.1802,3.1748,3.1728,3.1709,3.1688,3.1596,3.1389,3.1173,3.0918,3.0773,3.0568,3.03,3.0231,3.043,3.0936,3.1394,3.1868,3.2579,3.334,3.3745,3.3762,3.3714,3.3175,3.2327,3.215,3.151,3.058,3.0461,3.08,3.1401,3.1563,3.1694,3.1678,3.0956,3.0218,3.0202,3.0148,3.0064,3.0125,2.999,2.9916,2.9806,2.9542,2.9227,2.9198,2.9243,2.9243,2.9243,2.9396,2.9537,2.961,2.9641,3.0085,3.0959,3.1725,3.2604,3.3275,3.3642,3.3393,3.2917,3.2305,3.1641,3.1173,3.0384,2.9782,2.9826,2.9754,2.9508,2.9214,2.9006,2.8726,2.8342,2.785,2.7389,2.6734,2.6105,2.5419,2.4737,2.3869,2.3192,2.2408,2.178,2.1574,2.1426,2.1075,2.0725,2.04,2.0148,2.0053,1.9944,2.0044,2.0243,2.927,2.9293,2.9293,2.9312,2.9332,2.9372,2.9365,2.9259,2.9189,2.9108,2.912,2.9751,3.0216,3.0743,3.1434,3.1992,3.2556,3.2645,3.2464,3.223,3.2074,3.202,3.1948,3.202,3.202,3.1984,3.202,3.2001,3.1873,3.1746,3.1617,3.1351,3.1213,3.1078,3.0764,3.0617,3.0806,3.1303,3.1331,3.1679,3.2367,3.2973,3.351,3.3653,3.4096,3.3829,3.2911,3.2525,3.1764,3.0359,3.0369,3.0789,3.1013,3.0544,3.0843,3.1336,3.0417,3.0136,3.0212,3.0386,3.0642,3.0582,3.0593,3.0945,3.0542,3.0064,2.975,2.975,2.9897,2.9957,2.9853,2.9941,3.0233,3.0713,3.0806,3.1405,3.2288,3.2192,3.2757,3.3614,3.4087,3.404,3.3448,3.2853,3.222,3.1643,3.0889,3.045,3.0186,2.9929,2.9723,2.9377,2.8909,2.8637,2.8227,2.7582,2.7127,2.6706,2.6074,2.5304,2.4499,2.3603,2.25,2.178,2.1407,2.1194,2.0849,2.0461,2.0084,1.9785,1.9693,1.9869,1.9858,1.9789,1.9924,2.8751,2.937,2.9388,2.9411,2.9414,2.9411,2.937,2.933,2.9283,2.9134,2.9182,2.9667,2.9976,3.0161,3.0776,3.116,3.1446,3.1862,3.1916,3.178,3.2243,3.2283,3.2161,3.2197,3.2301,3.2301,3.2232,3.2179,3.2214,3.2001,3.1802,3.1688,3.1521,3.1329,3.1095,3.0958,3.1157,3.1606,3.1663,3.1934,3.2458,3.2812,3.3333,3.3889,3.3656,3.3395,3.2947,3.2035,3.1299,3.0701,3.1241,3.1558,3.158,3.1855,3.1961,3.1891,3.1457,3.082,3.0426,3.0162,2.9862,2.938,2.9838,2.9963,2.9865,3.0061,3.0117,3.0182,3.0284,3.0276,3.0318,3.0444,3.0634,3.0839,3.1626,3.2259,3.203,3.2708,3.3428,3.3787,3.3884,3.3862,3.3673,3.3072,3.2403,3.185,3.1099,3.0392,3.0026,2.9842,2.9553,2.8959,2.851,2.8382,2.8066,2.7378,2.6855,2.6543,2.5879,2.5083,2.422,2.3319,2.2076,2.0881,2.0941,2.083,2.0213,1.9686,1.9382,1.9218,1.91,1.9141,1.9086,1.9044,1.9308,2.8584,2.939,2.939,2.9431,2.9453,2.949,2.945,2.939,2.9368,2.9283,2.9263,2.9447,2.9728,3.0017,3.0288,3.061,3.0887,3.1559,3.1762,3.18,3.2414,3.257,3.2438,3.2404,3.2506,3.2657,3.2523,3.2489,3.2507,3.2266,3.2144,3.2001,3.1839,3.1634,3.1462,3.1385,3.1382,3.1571,3.1614,3.1808,3.2093,3.2471,3.2858,3.3423,3.3271,3.3246,3.2831,3.1839,3.1112,3.1019,3.1419,3.1719,3.1695,3.2032,3.2167,3.1799,3.1264,3.0711,3.0096,2.9652,2.9303,2.8999,2.9231,2.9252,2.9271,2.9526,2.9703,2.9738,2.99,2.9939,2.999,3.0292,3.0308,3.0197,3.1525,3.2087,3.1137,3.1824,3.2602,3.2962,3.3323,3.3612,3.3738,3.2823,3.2185,3.1635,3.0695,3.0065,2.9593,2.9454,2.9164,2.8535,2.8039,2.7898,2.7553,2.6904,2.6482,2.6178,2.5704,2.4848,2.4032,2.3125,2.2047,2.1039,2.0735,2.0337,1.9806,1.932,1.91,1.8934,1.8649,1.8523,1.8607,1.8597,1.8823,2.8456,2.9262,2.9355,2.9373,2.9433,2.9531,2.951,2.9429,2.939,2.9349,2.928,2.9089,2.942,3.0003,2.9824,3.0166,3.0713,3.1237,3.1668,3.1923,3.2409,3.2679,3.2553,3.2634,3.277,3.2884,3.287,3.2802,3.2719,3.2606,3.2489,3.2335,3.2179,3.2018,3.1837,3.1783,3.1634,3.1475,3.147,3.1385,3.1482,3.1964,3.2468,3.2684,3.3077,3.2747,3.2149,3.1483,3.1049,3.0847,3.1155,3.1389,3.1487,3.1418,3.1059,3.0526,3.0245,2.9904,2.9295,2.9123,2.897,2.8868,2.8813,2.8839,2.8873,2.8969,2.9175,2.9287,2.9174,2.9397,2.9448,2.9824,2.9756,2.9481,3.0367,3.0627,3.0356,3.0459,3.1082,3.1809,3.2715,3.3068,3.2964,3.2304,3.1304,3.1325,3.0424,2.9706,2.9279,2.9091,2.8629,2.7981,2.7622,2.7331,2.6855,2.6347,2.6068,2.575,2.5352,2.467,2.3886,2.3016,2.2193,2.1366,2.0456,1.9893,1.9614,1.9239,1.8904,1.8681,1.847,1.8439,1.8453,1.8391,1.8519,2.7601,2.8422,2.9132,2.9373,2.9412,2.9433,2.9453,2.9471,2.9429,2.937,2.9291,2.9212,2.9233,2.9338,2.9315,2.9282,2.9606,3.0287,3.0782,3.1447,3.2035,3.2379,3.252,3.2751,3.3068,3.3165,3.3104,3.3055,3.3037,3.2912,3.2737,3.2621,3.2422,3.2232,3.2037,3.1965,3.1839,3.1691,3.1674,3.1313,3.1022,3.1524,3.2031,3.2192,3.231,3.1578,3.0488,3.011,3.0076,3.0335,3.0989,3.1349,3.1042,3.0956,3.0559,2.9937,2.9678,2.9386,2.8834,2.861,2.8385,2.8021,2.8318,2.8527,2.8442,2.8939,2.9248,2.9386,2.9472,2.9385,2.9453,2.9609,2.935,2.8968,2.8867,2.8904,2.8698,2.9958,3.1257,3.1941,3.2059,3.2226,3.265,3.1585,3.0919,3.0782,3.0145,2.9333,2.8987,2.8726,2.8263,2.7698,2.7514,2.7331,2.7029,2.6506,2.6045,2.5658,2.5211,2.4759,2.3963,2.2918,2.2033,2.0927,1.974,1.9419,1.9378,1.8904,1.8514,1.8402,1.8145,1.7554,1.7274,1.7596,1.5255,2.7028,2.822,2.8688,2.9098,2.9415,2.9491,2.9511,2.9511,2.9491,2.9431,2.9353,2.9316,2.9233,2.9185,2.9148,2.9123,2.9281,2.9922,3.0728,3.1397,3.1843,3.1964,3.2192,3.2675,3.3112,3.3382,3.3404,3.3386,3.3339,3.3172,3.3006,3.288,3.2588,3.2405,3.2267,3.2091,3.1846,3.1498,3.1516,3.122,3.0698,3.0886,3.1196,3.128,3.1196,3.0623,2.9948,2.9924,2.9969,3.0162,3.0674,3.0973,3.0623,3.0536,3.0134,2.949,2.9204,2.8856,2.8345,2.8101,2.7931,2.7622,2.7927,2.7969,2.7996,2.8395,2.8548,2.8665,2.8694,2.8743,2.8917,2.8496,2.825,2.825,2.7577,2.7467,2.8333,2.9464,3.0247,3.0696,3.0733,3.1011,3.0942,3.0506,3.0136,2.9831,2.9323,2.857,2.8548,2.8285,2.8119,2.7744,2.7596,2.7404,2.7181,2.6737,2.6201,2.5799,2.5325,2.4926,2.4378,2.316,2.1929,2.0897,1.9964,1.9447,1.9266,1.8723,1.8293,1.8254,1.7757,1.6534,1.4972,1.3497,0.9922,2.6599,2.7961,2.8222,2.8727,2.9307,2.9532,2.9589,2.9551,2.9588,2.9531,2.9471,2.9433,2.9394,2.9334,2.9373,2.9373,2.9576,3.0153,3.0934,3.1102,3.1388,3.15,3.1704,3.2117,3.2687,3.3393,3.3616,3.3671,3.3479,3.333,3.2965,3.2877,3.2424,3.2022,3.2015,3.2035,3.1632,3.1054,3.1082,3.0797,3.0293,3.0322,3.0516,3.035,3.0272,3.0052,2.9726,2.9703,2.9839,2.9958,3.0071,3.0024,3.0011,3.0039,2.9761,2.8923,2.8732,2.8438,2.8047,2.7824,2.7789,2.7836,2.7736,2.7694,2.77,2.7757,2.7874,2.7864,2.7959,2.7947,2.7791,2.7536,2.7386,2.728,2.6366,2.6801,2.8091,2.8511,2.8539,2.939,2.9927,3.0237,2.9986,2.9607,2.9249,2.8845,2.8347,2.7939,2.7868,2.7822,2.7642,2.7257,2.6989,2.6656,2.6445,2.6642,2.6117,2.5725,2.5313,2.4939,2.4451,2.3247,2.2043,2.1341,2.0529,1.9796,1.9058,1.8533,1.827,1.8163,1.7343,1.6124,1.3111,0.9437,0.4753,2.5998,2.6407,2.7862,2.8536,2.8688,2.9362,2.9644,2.9663,2.9626,2.9626,2.9645,2.9588,2.9569,2.955,2.9608,2.9607,2.9757,3.032,3.0527,3.0396,3.0676,3.1014,3.1089,3.1369,3.174,3.2518,3.325,3.3574,3.3087,3.2805,3.262,3.231,3.1552,3.1034,3.1008,3.0774,3.0863,3.0609,3.0659,3.0362,2.9908,3.0119,3.0268,2.9899,2.9755,2.9475,2.8963,2.8775,2.8748,2.8766,2.881,2.8838,2.8999,2.9251,2.9023,2.8521,2.8287,2.8123,2.8003,2.794,2.79,2.79,2.79,2.7824,2.7736,2.7736,2.7813,2.7789,2.7833,2.7741,2.7075,2.689,2.6675,2.6371,2.6083,2.6086,2.662,2.6925,2.7655,2.903,2.9397,2.9426,2.9114,2.8757,2.829,2.809,2.7911,2.7327,2.6961,2.7069,2.7107,2.6637,2.6132,2.58,2.5492,2.5893,2.591,2.553,2.5124,2.4675,2.4108,2.3141,2.2214,2.118,2.03,1.9404,1.878,1.8367,1.8204,1.8163,1.6983,1.5464,1.0202,0.4935,-0.0117,2.5568,2.6107,2.6978,2.7792,2.8495,2.8925,2.9375,2.9735,2.97,2.9701,2.9719,2.9737,2.9719,2.9719,2.9773,2.9808,2.9957,3.0163,3.0198,3.0007,3.0255,3.0461,3.0591,3.0841,3.0937,3.1449,3.2408,3.3013,3.2508,3.227,3.2103,3.1829,3.113,3.0782,3.0715,3.074,3.0399,3.0258,3.0206,2.997,2.9272,2.9704,2.9573,2.9446,2.9319,2.905,2.8764,2.8662,2.863,2.8605,2.863,2.8637,2.8652,2.8711,2.8712,2.8335,2.8126,2.8099,2.8126,2.8109,2.8071,2.8099,2.8126,2.8081,2.8025,2.8053,2.8025,2.7974,2.7629,2.7521,2.7094,2.648,2.602,2.5877,2.5404,2.5407,2.586,2.5859,2.6975,2.8352,2.7972,2.7881,2.8329,2.7888,2.7396,2.7255,2.7328,2.6881,2.6277,2.6404,2.6672,2.6634,2.6267,2.6055,2.5674,2.5611,2.5681,2.5295,2.4786,2.4335,2.3623,2.2652,2.1673,2.0666,1.9769,1.8985,1.8733,1.8414,1.8282,1.7583,1.4707,1.1246,0.5612,0.0234,-0.4747,2.5238,2.5895,2.6124,2.6961,2.8067,2.8515,2.9007,2.9557,2.9767,2.9789,2.9753,2.9823,2.9859,2.9859,2.9907,3.0007,3.0022,3.0057,3.0102,3.0098,3.0122,3.0117,3.0323,3.0571,3.0734,3.0579,3.1305,3.2026,3.192,3.1722,3.1551,3.1242,3.0937,3.0626,3.042,3.0249,3.0031,2.989,2.9771,2.952,2.914,2.898,2.8966,2.898,2.8957,2.8947,2.8868,2.8863,2.8669,2.8579,2.8591,2.867,2.8555,2.8572,2.8587,2.8476,2.8264,2.8237,2.8246,2.8219,2.8191,2.8246,2.8264,2.8273,2.83,2.8228,2.8165,2.7995,2.7713,2.7036,2.65,2.5731,2.5362,2.5177,2.4661,2.429,2.5142,2.55,2.5601,2.6219,2.6072,2.6548,2.7248,2.7394,2.6921,2.6751,2.6804,2.6735,2.6197,2.616,2.6395,2.6709,2.6663,2.6555,2.6189,2.5621,2.5442,2.5006,2.4357,2.375,2.2963,2.2085,2.1158,2.0262,1.9433,1.8789,1.859,1.8411,1.8189,1.6374,1.2066,0.7487,0.2724,-0.3313,-0.9082,2.5034,2.5205,2.5953,2.6403,2.6821,2.8089,2.8802,2.8962,2.9507,2.9888,2.9758,2.9836,2.9834,2.994,3.0083,3.0132,3.0147,3.0171,3.0199,3.0199,3.0194,3.0226,3.0286,3.0324,3.0439,3.0279,3.0574,3.0887,3.1165,3.1164,3.1036,3.0748,3.0095,2.9518,2.9646,2.9614,2.9214,2.9204,2.9307,2.9333,2.9237,2.9197,2.9203,2.9206,2.9181,2.9119,2.9101,2.903,2.8732,2.8178,2.8542,2.8427,2.7984,2.8421,2.8664,2.8637,2.844,2.8282,2.8317,2.83,2.8183,2.8201,2.8219,2.8335,2.8146,2.8172,2.8011,2.7297,2.7222,2.67,2.5796,2.5296,2.4884,2.4574,2.4285,2.4109,2.4534,2.5018,2.5133,2.5226,2.5429,2.5929,2.654,2.6557,2.6539,2.6376,2.6247,2.6172,2.6135,2.6042,2.5783,2.5998,2.6461,2.6441,2.6122,2.5658,2.5178,2.472,2.4082,2.329,2.2347,2.1508,2.0868,1.9998,1.9197,1.857,1.8323,1.8121,1.7989,1.5274,1.1005,0.5891,0.0585,-0.6003,-1.3247,2.417,2.5037,2.5443,2.5899,2.6374,2.7132,2.7717,2.8132,2.8441,2.8863,2.9228,2.927,2.9532,2.9901,3.0152,3.018,3.0185,3.0207,3.0253,3.0259,3.0253,3.0266,3.0286,3.0299,3.0311,3.0352,3.039,3.0571,3.0718,3.0632,3.0435,3.0296,2.9814,2.953,2.9377,2.9295,2.9332,2.9392,2.9412,2.9412,2.939,2.933,2.9291,2.9275,2.9233,2.9175,2.9132,2.9141,2.8938,2.8562,2.886,2.8824,2.8393,2.8296,2.8145,2.808,2.7453,2.7572,2.8286,2.8352,2.8092,2.7813,2.7687,2.7533,2.741,2.7677,2.7671,2.6872,2.6363,2.5804,2.5165,2.4756,2.4456,2.4186,2.4114,2.421,2.4266,2.4339,2.4614,2.4685,2.483,2.5369,2.5742,2.5687,2.5706,2.5627,2.5529,2.5435,2.5566,2.5718,2.542,2.5089,2.565,2.6115,2.5768,2.5341,2.4874,2.4425,2.3997,2.3052,2.1808,2.0962,2.0404,1.9792,1.9045,1.8492,1.7959,1.7907,1.776,1.4141,0.9974,0.3991,-0.2289,-1.0497,-1.6578,2.3149,2.441,2.4651,2.5127,2.5754,2.6193,2.6759,2.7306,2.7611,2.7998,2.8384,2.8541,2.9008,2.968,2.9849,2.9953,3.024,3.0215,3.0266,3.0286,3.0286,3.0273,3.0292,3.0292,3.0359,3.0428,3.0425,3.0494,3.0433,3.0337,3.0228,3.0083,2.991,2.9716,2.9663,2.9589,2.957,2.9589,2.9589,2.9589,2.9513,2.9193,2.9078,2.8965,2.8851,2.8699,2.8674,2.8558,2.8455,2.8046,2.8187,2.8092,2.7754,2.7761,2.7789,2.7689,2.7186,2.726,2.7815,2.7886,2.7608,2.7272,2.7043,2.691,2.6636,2.709,2.7138,2.6231,2.5768,2.533,2.4913,2.4344,2.426,2.4209,2.4229,2.4321,2.4426,2.4478,2.4528,2.4652,2.4757,2.4794,2.5039,2.4876,2.482,2.4832,2.4772,2.4757,2.508,2.5496,2.5522,2.5246,2.5128,2.5628,2.5397,2.501,2.4554,2.4046,2.3597,2.2703,2.1342,2.0579,2.0082,1.9445,1.8803,1.6349,1.4584,1.6138,1.709,1.2012,0.6811,0.1009,-0.5705,-1.3952,-1.8855,2.2038,2.2814,2.3572,2.3976,2.4289,2.5772,2.6458,2.6634,2.7294,2.7612,2.7746,2.786,2.8332,2.8887,2.9123,2.9475,3.0184,3.0279,3.0203,3.0222,3.0362,3.0343,3.0348,3.0352,3.0406,3.0469,3.0477,3.0469,3.0471,3.0398,3.0323,3.0266,3.0075,2.9988,2.9874,2.9789,2.9699,2.9681,2.9701,2.9701,2.9419,2.9026,2.8559,2.839,2.7773,2.7177,2.7288,2.7363,2.7137,2.658,2.7002,2.6977,2.6825,2.7114,2.7325,2.7185,2.6918,2.6886,2.704,2.6962,2.6558,2.6441,2.6413,2.6344,2.6038,2.6377,2.6179,2.558,2.5193,2.4901,2.4516,2.4169,2.4171,2.4247,2.4284,2.4357,2.4461,2.4559,2.4623,2.4689,2.4764,2.4837,2.4893,2.4851,2.4823,2.487,2.4806,2.4791,2.5197,2.5596,2.5871,2.5708,2.5126,2.5077,2.4993,2.4617,2.4152,2.3554,2.3038,2.1955,2.067,2.0146,1.9847,1.9098,1.8166,1.4641,1.1876,1.3351,1.2947,0.8644,0.331,-0.3464,-0.905,-1.5874,-1.9216,2.0858,2.1196,2.1989,2.2934,2.3976,2.5157,2.5718,2.5779,2.6094,2.6519,2.6943,2.744,2.7867,2.8128,2.8255,2.8413,2.8828,2.9394,2.9529,2.9778,2.999,3.029,3.0328,3.034,3.0364,3.0428,3.0439,3.0469,3.049,3.0449,3.0417,3.0336,3.0221,3.0123,3.0019,2.9907,2.9841,2.9789,2.979,2.9809,2.9603,2.9017,2.8721,2.9101,2.773,2.7491,2.7718,2.7233,2.6842,2.6563,2.6673,2.6431,2.6151,2.6536,2.6493,2.6374,2.6093,2.581,2.5896,2.5943,2.6158,2.5688,2.568,2.5594,2.5319,2.5607,2.5482,2.5058,2.4762,2.4522,2.4376,2.4209,2.4228,2.4302,2.4356,2.4393,2.4478,2.4607,2.4682,2.4746,2.4818,2.4902,2.4961,2.5013,2.4974,2.4947,2.4889,2.4915,2.5265,2.5548,2.5769,2.597,2.5448,2.5086,2.4996,2.4411,2.3777,2.3157,2.2579,2.1631,2.0651,2.005,1.9657,1.8874,1.7593,1.4681,1.2553,1.1454,0.8316,0.3088,-0.2826,-0.918,-1.4213,-1.8372,-1.9596,2.0238,2.0331,2.1125,2.2096,2.3254,2.4098,2.4657,2.4928,2.4956,2.5358,2.6121,2.6711,2.712,2.7242,2.7381,2.7689,2.8103,2.8744,2.9044,2.9448,2.9929,3.0294,3.0359,3.0379,3.0383,3.0386,3.0375,3.0406,3.049,3.0479,3.0428,3.0364,3.0299,3.0226,3.0113,2.9972,2.9874,2.9859,2.9861,2.9895,2.9746,2.9103,2.8763,2.9096,2.7909,2.7203,2.7228,2.6838,2.6616,2.6376,2.6339,2.634,2.621,2.6005,2.5615,2.5299,2.4964,2.4537,2.4772,2.497,2.5497,2.5006,2.4976,2.4722,2.4578,2.4838,2.4875,2.4634,2.4413,2.4339,2.4303,2.4266,2.4303,2.4375,2.4339,2.4375,2.4528,2.4654,2.4746,2.4804,2.4929,2.508,2.5118,2.5171,2.5122,2.5068,2.5006,2.501,2.5149,2.5385,2.5514,2.5702,2.5697,2.5409,2.5153,2.4602,2.4006,2.3265,2.2649,2.1849,2.1006,2.0333,1.9588,1.8822,1.7217,1.4888,1.1574,0.8022,0.2624,-0.3196,-0.9086,-1.4867,-1.6515,-1.9906,-2.0231,2.0341,2.041,2.1201,2.1567,2.1749,2.2451,2.3314,2.4081,2.4206,2.4668,2.5398,2.5529,2.5904,2.6433,2.6546,2.6941,2.7783,2.8563,2.8959,2.9124,2.9773,3.0263,3.0183,3.0075,2.9875,3.0351,3.0117,2.9963,3.0346,3.0045,3.0089,3.0155,2.9994,3.0081,3.0147,2.9991,2.991,2.9907,2.9912,2.9796,2.9599,2.8885,2.849,2.8591,2.7554,2.6679,2.6766,2.6244,2.5989,2.5864,2.5363,2.5366,2.5668,2.5615,2.5449,2.5338,2.5297,2.5181,2.5216,2.4647,2.4447,2.4428,2.4541,2.4413,2.4303,2.4432,2.4578,2.4464,2.4447,2.4412,2.4358,2.4303,2.4375,2.4393,2.4358,2.4357,2.4512,2.47,2.4775,2.4818,2.508,2.5293,2.5321,2.533,2.5274,2.5203,2.5141,2.5156,2.5253,2.5437,2.5626,2.5828,2.5976,2.5503,2.5189,2.482,2.4247,2.347,2.2704,2.195,2.1224,2.0536,1.9743,1.8855,1.7281,1.5338,0.9382,0.3266,-0.2181,-0.7707,-1.4506,-1.9449,-2.0602,-2.0876,-2.0941,2.042,2.039,2.0689,2.0771,2.0901,2.2199,2.2967,2.3302,2.3841,2.4543,2.5168,2.5241,2.5308,2.5587,2.577,2.6184,2.7063,2.7923,2.8299,2.8415,2.9255,2.911,2.9012,2.8934,2.8867,2.8779,2.8758,2.9182,2.9591,2.9252,2.9263,2.9359,2.9209,2.9289,2.9874,3.0083,3.0053,2.9912,2.9545,2.9134,2.9015,2.8027,2.7675,2.8499,2.6948,2.6298,2.6582,2.5963,2.548,2.5362,2.4861,2.4942,2.5174,2.5125,2.5015,2.4908,2.4838,2.4727,2.469,2.4432,2.434,2.4303,2.4321,2.4376,2.4358,2.441,2.4462,2.4513,2.4532,2.4481,2.4412,2.4358,2.4393,2.4394,2.4358,2.4358,2.4462,2.467,2.4804,2.4823,2.4987,2.5171,2.5245,2.5321,2.5293,2.5215,2.5154,2.5463,2.5653,2.5823,2.6034,2.623,2.6253,2.5689,2.5186,2.4787,2.44,2.3741,2.2912,2.2095,2.1387,2.0878,2.0001,1.9185,1.7604,1.5518,0.821,0.0984,-0.5806,-1.2082,-1.6388,-1.9898,-2.0844,-2.0925,-2.0974,2.0472,2.0439,2.0421,2.0379,2.0501,2.149,2.2205,2.2849,2.3725,2.4562,2.5197,2.5262,2.5252,2.5252,2.531,2.5426,2.6227,2.7036,2.747,2.7586,2.8396,2.8425,2.8155,2.7846,2.8115,2.7874,2.7902,2.8258,2.8732,2.8202,2.8289,2.8482,2.8153,2.853,2.9155,2.9415,2.9422,2.9189,2.8802,2.8696,2.8241,2.7627,2.7347,2.7595,2.7034,2.628,2.6397,2.5989,2.5253,2.5137,2.4979,2.4945,2.4973,2.4848,2.4738,2.4615,2.4549,2.4447,2.4413,2.4449,2.4393,2.4394,2.4411,2.4429,2.4465,2.4513,2.4545,2.4596,2.4613,2.4564,2.4461,2.4408,2.4112,2.4094,2.4092,2.4055,2.4331,2.4535,2.4605,2.4643,2.4799,2.496,2.5194,2.5234,2.5274,2.5215,2.5146,2.5543,2.586,2.5926,2.595,2.6023,2.608,2.552,2.504,2.4725,2.4312,2.3935,2.3193,2.2418,2.2053,2.1614,2.0528,1.9431,1.8055,1.4727,0.6449,-0.0643,-0.3926,-0.8593,-1.3874,-1.7175,-2.0141,-2.051,-2.008,2.0509,2.0494,2.0425,2.0404,2.0398,2.0499,2.1305,2.2769,2.3638,2.4504,2.5293,2.5254,2.5302,2.5303,2.5302,2.5447,2.5707,2.6429,2.668,2.6949,2.7595,2.7662,2.7672,2.7557,2.7354,2.7537,2.7585,2.7382,2.7826,2.7701,2.7739,2.7807,2.7527,2.7727,2.8038,2.8332,2.8479,2.8515,2.8488,2.8403,2.8049,2.754,2.7399,2.7395,2.702,2.647,2.6332,2.5887,2.5763,2.5548,2.5197,2.5389,2.5362,2.5123,2.4861,2.466,2.4613,2.4515,2.4411,2.4446,2.4464,2.4482,2.4482,2.4498,2.4532,2.4564,2.4596,2.457,2.4545,2.4532,2.45,2.402,2.354,2.3553,2.3531,2.3737,2.4078,2.4229,2.4302,2.4393,2.458,2.4801,2.5118,2.5226,2.5147,2.5224,2.5184,2.5217,2.5463,2.5458,2.5442,2.5281,2.5299,2.5184,2.4801,2.447,2.4218,2.3816,2.3548,2.2951,2.2656,2.2108,2.0975,1.9854,1.8731,1.4915,0.9686,0.5337,0.1678,-0.3365,-0.8097,-1.5187,-1.841,-1.8365,-1.8272,2.0541,2.0513,2.048,2.0452,2.0394,2.0334,2.0897,2.1944,2.2782,2.3676,2.4494,2.5062,2.5274,2.5379,2.5341,2.5688,2.614,2.6516,2.6603,2.6786,2.6862,2.6583,2.639,2.6284,2.6178,2.6198,2.6256,2.6535,2.6901,2.7017,2.7027,2.6998,2.6593,2.6632,2.6929,2.7155,2.7711,2.8141,2.8128,2.8089,2.7828,2.7243,2.7235,2.7157,2.6407,2.601,2.602,2.5598,2.5437,2.522,2.5088,2.5149,2.5068,2.493,2.4734,2.4642,2.4647,2.4617,2.4479,2.4481,2.4461,2.4405,2.4424,2.4532,2.4547,2.4561,2.4575,2.4454,2.4204,2.4061,2.3624,2.3145,2.2899,2.2873,2.2828,2.2866,2.3203,2.3432,2.3501,2.3531,2.3746,2.4376,2.4753,2.4992,2.493,2.5135,2.522,2.5157,2.5168,2.5182,2.5115,2.498,2.4879,2.4856,2.4469,2.4099,2.3922,2.3725,2.3455,2.3177,2.2768,2.2125,2.1223,1.9791,1.792,1.7123,1.5721,1.1375,0.6751,0.4108,-0.0601,-0.9307,-1.6041,-1.6329,-1.521,2.0038,2.0078,2.0396,2.0451,2.041,2.0352,2.0643,2.1166,2.1952,2.3116,2.454,2.4754,2.5033,2.5302,2.5062,2.5216,2.6024,2.563,2.5649,2.6063,2.6216,2.5927,2.5532,2.5397,2.5513,2.5388,2.5446,2.5793,2.6111,2.6158,2.6167,2.6139,2.5551,2.5763,2.6034,2.6265,2.6809,2.729,2.7579,2.7612,2.7294,2.6753,2.6651,2.6702,2.5634,2.5532,2.5677,2.5177,2.5088,2.5004,2.4991,2.4964,2.4936,2.4889,2.4764,2.4692,2.4676,2.4388,2.4064,2.3959,2.4013,2.4048,2.4064,2.4041,2.4244,2.4335,2.427,2.4166,2.3757,2.3334,2.2716,2.2204,2.2174,2.2177,2.2023,2.185,2.2128,2.2464,2.2527,2.252,2.2969,2.3671,2.4129,2.4423,2.4767,2.4969,2.5018,2.4917,2.4993,2.5111,2.503,2.4883,2.478,2.4651,2.4246,2.3939,2.3774,2.3606,2.3328,2.3053,2.2761,2.1892,2.08,1.8801,1.6597,1.6644,1.7308,1.5189,1.1554,0.8733,0.5482,-0.1306,-0.9536,-1.5339,-1.3361,1.9186,1.9405,2.0154,2.047,2.0419,2.0413,2.0481,2.056,2.1285,2.2782,2.4466,2.4295,2.4394,2.4684,2.4464,2.4629,2.5109,2.4965,2.5168,2.5418,2.5572,2.5465,2.5455,2.5387,2.5397,2.5388,2.5416,2.5492,2.5434,2.5558,2.5616,2.5395,2.5406,2.5522,2.5581,2.5582,2.6005,2.6406,2.6603,2.6619,2.6638,2.6098,2.5616,2.6154,2.5659,2.5158,2.5152,2.5101,2.5089,2.5025,2.4999,2.4991,2.4977,2.4945,2.4842,2.4561,2.4471,2.3964,2.3478,2.3244,2.321,2.3241,2.3269,2.33,2.3502,2.3974,2.3967,2.3416,2.2914,2.2476,2.1913,2.1291,2.1059,2.1129,2.1127,2.1103,2.1299,2.1592,2.1764,2.182,2.2117,2.2806,2.3484,2.3797,2.4214,2.4638,2.4777,2.4612,2.4631,2.4805,2.4803,2.4699,2.4831,2.4695,2.4368,2.4042,2.3741,2.349,2.3216,2.3211,2.314,2.185,2.025,1.8686,1.7296,1.7964,1.8081,1.6273,1.4437,1.1693,0.8477,0.545,-0.1056,-0.8481,-0.8736,1.8668,1.9366,2.017,2.0492,2.048,2.0478,2.0822,2.1321,2.0849,2.1449,2.2525,2.301,2.3331,2.3609,2.3981,2.4242,2.4396,2.4762,2.5129,2.5322,2.537,2.5379,2.5388,2.5388,2.5397,2.5387,2.5404,2.5393,2.5401,2.5401,2.5401,2.5393,2.5385,2.5387,2.5397,2.5388,2.5553,2.5793,2.5793,2.6299,2.6872,2.66,2.6328,2.619,2.5688,2.516,2.513,2.5156,2.5125,2.5088,2.5076,2.5063,2.5057,2.5057,2.4663,2.4114,2.3964,2.3422,2.2772,2.2432,2.2432,2.2447,2.2472,2.2534,2.2811,2.3382,2.3349,2.2628,2.2056,2.1639,2.1129,2.0485,2.007,2.0188,2.0277,2.0396,2.0515,2.0759,2.102,2.1195,2.136,2.1919,2.2646,2.3179,2.3645,2.3954,2.4129,2.4125,2.4056,2.4136,2.4314,2.4359,2.4885,2.4826,2.4425,2.4007,2.3596,2.3382,2.3124,2.3245,2.3386,2.2089,2.0586,1.9537,1.8715,1.8882,1.8787,1.8241,1.6257,1.3873,1.2424,0.9811,0.8262,0.2333,0.1908,1.7908,1.8833,2.0037,2.054,2.0516,2.0508,2.0778,2.1012,2.0607,2.0662,2.1211,2.1977,2.2543,2.2808,2.3388,2.3921,2.4133,2.4568,2.4983,2.5225,2.5388,2.5388,2.5388,2.5407,2.5397,2.5395,2.5421,2.5437,2.5434,2.5426,2.5426,2.541,2.5404,2.5395,2.5406,2.5379,2.5389,2.537,2.5351,2.5899,2.6779,2.6288,2.6258,2.6063,2.5784,2.5275,2.5149,2.5187,2.5164,2.5149,2.5125,2.5101,2.5076,2.5076,2.4588,2.4011,2.358,2.3073,2.213,2.1662,2.1634,2.163,2.1725,2.1803,2.1751,2.2233,2.2273,2.1664,2.1498,2.1092,2.0429,1.9806,1.9773,1.9873,1.9873,1.9924,2.0045,2.0233,2.0364,2.0429,2.0672,2.1092,2.171,2.2154,2.2753,2.3854,2.3934,2.3694,2.3593,2.3362,2.3574,2.3847,2.4274,2.4397,2.394,2.3603,2.3345,2.3153,2.2941,2.2674,2.246,2.1909,2.1011,1.9857,1.9055,1.8888,1.8748,1.8728,1.8184,1.6172,1.5366,1.4453,1.3036,1.1628,1.0688,1.7258,1.8334,1.9922,2.0572,2.0506,2.0513,2.0531,2.0521,2.0434,2.0418,2.0557,2.1236,2.1978,2.2506,2.277,2.3454,2.398,2.4284,2.472,2.523,2.5393,2.5423,2.5434,2.5425,2.5415,2.5432,2.5456,2.5495,2.5505,2.549,2.5468,2.5437,2.5421,2.5432,2.5397,2.5398,2.5379,2.537,2.5361,2.5361,2.538,2.5303,2.5793,2.5917,2.5782,2.532,2.5252,2.5212,2.5201,2.5176,2.5137,2.5101,2.5101,2.5063,2.4296,2.3752,2.3348,2.242,2.1349,2.0859,2.0832,2.0827,2.0977,2.1043,2.0984,2.1027,2.1081,2.0991,2.0814,2.0532,1.9871,1.9555,1.9606,1.9628,1.9601,1.9555,1.9695,1.9816,1.9847,1.9866,2.0142,2.0492,2.0794,2.1233,2.2094,2.3218,2.355,2.3346,2.3082,2.2756,2.2666,2.295,2.3346,2.3351,2.3335,2.3131,2.2868,2.2747,2.2465,2.2001,2.1633,2.1583,2.1112,2.0043,1.9391,1.9034,1.9127,1.9206,1.8537,1.7786,1.7395,1.6673,1.5955,1.504,1.6261,1.7566,1.916,2.0175,2.0582,2.0568,2.0514,2.0503,2.051,2.0495,2.0497,2.0517,2.0582,2.1095,2.1874,2.1843,2.252,2.3697,2.4011,2.4733,2.5379,2.5426,2.5456,2.5468,2.5432,2.544,2.5484,2.5499,2.551,2.5518,2.5511,2.551,2.548,2.5488,2.5464,2.5395,2.5397,2.5397,2.5379,2.5379,2.5379,2.5387,2.5369,2.538,2.5467,2.5457,2.5332,2.5293,2.5214,2.5201,2.5176,2.5149,2.5101,2.5101,2.5018,2.4295,2.329,2.2893,2.1865,2.0885,2.0339,2.0226,2.0239,2.0358,2.0386,2.0364,2.0367,2.0367,2.0323,2.02,2.0151,1.9732,1.9641,1.9641,1.9655,1.9655,1.9564,1.9585,1.9669,1.9732,1.9757,1.9863,2.0005,2.0077,2.062,2.1338,2.2142,2.233,2.2177,2.2259,2.2028,2.1836,2.2077,2.2412,2.2752,2.2921,2.2581,2.2343,2.2209,2.2133,2.192,2.1788,2.1775,2.1145,2.006,1.9424,1.9043,1.9226,1.9201,1.9083,1.847,1.8683,1.8379,1.7805,1.7498,1.7846]},{"header":{"parameterUnit":"m.s-1","parameterCategory":1,"la1":31.0,"la2":29.5877,"lo1":-88.7671,"lo2":-86.6584,"dy":0.0162,"dx":0.0185,"nx":115,"ny":88,"refTime":"2023-05-21T06:00:00:Z","depth":0,"parameterNumber":3,"parameterNumberName":"V-component_of_WINDS"},"data":[0.0,0.0,0.0,0.0,0.0,0.0,0.0,0.0,0.0,0.0,0.0,0.0,0.0,0.0,0.0,0.0,0.0,0.0,0.0,0.0,0.0,0.0,0.0,0.0,0.0,0.0,0.0,0.0,0.0,0.0,0.0,0.0,0.0,0.0,0.0,0.0,0.0,0.0,0.0,0.0,0.0,0.0,0.0,0.0,0.0,0.0,0.0,0.0,0.0,0.0,0.0,0.0,0.0,0.0,0.0,0.0,0.0,0.0,0.0,0.0,0.0,0.0,0.0,0.0,0.0,0.0,0.0,0.0,0.0,0.0,0.0,0.0,0.0,0.0,0.0,0.0,0.0,0.0,0.0,0.0,0.0,0.0,0.0,0.0,0.0,0.0,0.0,0.0,0.0,0.0,0.0,0.0,0.0,0.0,0.0,0.0,0.0,0.0,0.0,0.0,0.0,0.0,0.0,0.0,0.0,0.0,0.0,0.0,0.0,0.0,0.0,0.0,0.0,0.0,0.0,0.0,0.0,0.0,0.0,0.0,0.0,0.0,0.0,0.0,0.0,0.0,0.0,0.0,0.0,0.0,0.0,0.0,0.0,0.0,0.0,0.0,0.0,0.0,0.0,0.0,0.0,0.0,0.0,0.0,0.0,0.0,0.0,0.0,0.0,0.0,0.0,0.0,0.0,0.0,0.0,0.0,0.0,0.0,0.0,0.0,0.0,0.0,0.0,0.0,0.0,0.0,0.0,0.0,0.0,0.0,0.0,0.0,0.0,0.0,0.0,0.0,0.0,0.0,0.0,0.0,0.0,0.0,0.0,0.0,0.0,0.0,0.0,0.0,0.0,0.0,0.0,0.0,0.0,0.0,0.0,0.0,0.0,0.0,0.0,0.0,0.0,0.0,0.0,0.0,0.0,0.0,0.0,0.0,0.0,0.0,0.0,0.0,0.0,0.0,0.0,0.0,0.0,0.0,0.0,0.0,0.0,0.0,0.0,0.0,0.0,0.0,0.0,0.0,0.0,0.0,0.0,0.0,0.0,0.0,0.0,0.0,0.0,0.0,0.0,0.0,0.0,0.0,0.0,0.0,0.0,0.0,0.0,0.0,0.0,0.0,0.0,0.0,0.0,0.0,0.0,0.0,0.0,0.0,0.0,0.0,0.0,0.0,0.0,0.0,0.0,0.0,0.0,0.0,0.0,0.0,0.0,0.0,0.0,0.0,0.0,0.0,0.0,0.0,0.0,0.0,0.0,0.0,0.0,0.0,0.0,0.0,0.0,0.0,0.0,0.0,0.0,0.0,0.0,0.0,0.0,0.0,0.0,0.0,0.0,0.0,0.0,0.0,0.0,0.0,0.0,0.0,0.0,0.0,0.0,0.0,0.0,0.0,0.0,0.0,0.0,0.0,0.0,0.0,0.0,0.0,0.0,0.0,0.0,0.0,0.0,0.0,0.0,0.0,0.0,0.0,0.0,0.0,0.0,0.0,0.0,0.0,0.0,0.0,0.0,0.0,0.0,0.0,0.0,0.0,0.0,0.0,0.0,0.0,0.0,0.0,0.0,0.0,0.0,0.0,0.0,0.0,0.0,0.0,0.0,0.0,0.0,0.0,0.0,0.0,0.0,0.0,0.0,0.0,0.0,0.0,0.0,0.0,0.0,0.0,0.0,0.0,0.0,0.0,0.0,0.0,0.0,0.0,0.0,0.0,0.0,0.0,0.0,0.0,0.0,0.0,0.0,0.0,0.0,0.0,0.0,0.0,0.0,0.0,0.0,0.0,0.0,0.0,0.0,0.0,0.0,0.0,0.0,0.0,0.0,0.0,0.0,0.0,0.0,0.0,0.0,0.0,0.0,0.0,0.0,0.0,0.0,0.0,0.0,0.0,0.0,0.0,0.0,0.0,0.0,0.0,0.0,0.0,0.0,0.0,0.0,0.0,0.0,0.0,0.0,0.0,0.0,0.0,0.0,0.0,0.0,0.0,0.0,0.0,0.0,0.0,0.0,0.0,0.0,0.0,0.0,0.0,0.0,0.0,0.0,0.0,0.0,0.0,0.0,0.0,0.0,0.0,0.0,0.0,0.0,0.0,0.0,0.0,0.0,0.0,0.0,0.0,0.0,0.0,0.0,0.0,0.0,0.0,0.0,0.0,0.0,0.0,0.0,0.0,0.0,0.0,0.0,0.0,0.0,0.0,0.0,0.0,0.0,0.0,0.0,0.0,0.0,0.0,0.0,0.0,0.0,0.0,0.0,0.0,0.0,0.0,0.0,0.0,0.0,0.0,0.0,0.0,0.0,0.0,0.0,0.0,0.0,0.0,0.0,0.0,0.0,0.0,0.0,0.0,0.0,0.0,0.0,0.0,0.0,0.0,0.0,0.0,0.0,0.0,0.0,0.0,0.0,0.0,0.0,0.0,0.0,0.0,0.0,0.0,0.0,0.0,0.0,0.0,0.0,0.0,0.0,0.0,0.0,0.0,0.0,0.0,0.0,0.0,0.0,0.0,0.0,0.0,0.0,0.0,0.0,0.0,0.0,0.0,0.0,0.0,0.0,0.0,0.0,0.0,0.0,0.0,0.0,0.0,0.0,0.0,0.0,0.0,0.0,0.0,0.0,0.0,0.0,0.0,0.0,0.0,0.0,0.0,0.0,0.0,0.0,0.0,0.0,0.0,0.0,0.0,0.0,0.0,0.0,0.0,0.0,0.0,0.0,0.0,0.0,0.0,0.0,0.0,0.0,0.0,0.0,0.0,0.0,0.0,0.0,0.0,0.0,0.0,0.0,0.0,0.0,0.0,0.0,0.0,0.0,0.0,0.0,0.0,0.0,0.0,0.0,0.0,0.0,0.0,0.0,0.0,0.0,0.0,0.0,0.0,0.0,0.0,0.0,0.0,0.0,0.0,0.0,0.0,0.0,0.0,0.0,0.0,0.0,0.0,0.0,0.0,0.0,0.0,0.0,0.0,0.0,0.0,0.0,0.0,0.0,0.0,0.0,0.0,0.0,0.0,0.0,0.0,0.0,0.0,0.0,0.0,0.0,0.0,0.0,0.0,0.0,0.0,0.0,0.0,0.0,0.0,0.0,0.0,0.0,0.0,0.0,0.0,0.0,0.0,0.0,0.0,0.0,0.0,0.0,0.0,0.0,0.0,0.0,0.0,0.0,0.0,0.0,0.0,0.0,0.0,0.0,0.0,0.0,0.0,0.0,0.0,0.0,0.0,0.0,0.0,0.0,0.0,0.0,0.0,0.0,0.0,0.0,0.0,0.0,0.0,0.0,0.0,0.0,0.0,0.0,0.0,0.0,0.0,0.0,0.0,0.0,0.0,0.0,0.0,0.0,0.0,0.0,0.0,0.0,0.0,0.0,0.0,0.0,0.0,0.0,0.0,0.0,0.0,0.0,0.0,0.0,0.0,0.0,0.0,0.0,0.0,0.0,0.0,0.0,0.0,0.0,0.0,0.0,0.0,0.0,0.0,0.0,0.0,0.0,0.0,0.0,0.0,0.0,0.0,0.0,0.0,0.0,0.0,0.0,0.0,0.0,0.0,0.0,0.0,0.0,0.0,0.0,0.0,0.0,0.0,0.0,0.0,0.0,0.0,0.0,0.0,0.0,0.0,0.0,0.0,0.0,0.0,0.0,0.0,0.0,0.0,0.0,0.0,0.0,0.0,0.0,0.0,0.0,0.0,0.0,0.0,0.0,0.0,0.0,0.0,0.0,0.0,0.0,0.0,0.0,0.0,0.0,0.0,0.0,0.0,0.0,0.0,0.0,0.0,0.0,0.0,0.0,0.0,0.0,0.0,0.0,0.0,0.0,0.0,0.0,0.0,0.0,0.0,0.0,0.0,0.0,0.0,0.0,0.0,0.0,0.0,0.0,0.0,0.0,0.0,0.0,0.0,0.0,0.0,0.0,0.0,0.0,0.0,0.0,0.0,0.0,0.0,0.0,0.0,0.0,0.0,0.0,0.0,0.0,0.0,0.0,0.0,0.0,0.0,0.0,0.0,0.0,0.0,0.0,0.0,0.0,0.0,0.0,0.0,0.0,0.0,0.0,0.0,0.0,0.0,0.0,0.0,0.0,0.0,0.0,0.0,0.0,0.0,0.0,0.0,0.0,0.0,0.0,0.0,0.0,0.0,0.0,0.0,0.0,0.0,0.0,0.0,0.0,0.0,0.0,0.0,0.0,0.0,0.0,0.0,0.0,0.0,0.0,0.0,0.0,0.0,0.0,0.0,0.0,0.0,0.0,0.0,0.0,0.0,0.0,0.0,0.0,0.0,1.1099,0.0,0.0,0.0,0.0,0.0,0.0,0.0,0.0,0.0,0.0,0.0,0.0,0.0,0.0,0.0,0.0,0.0,0.0,0.0,0.0,0.0,0.0,0.0,0.0,0.0,0.0,0.0,0.0,0.0,0.0,0.0,0.0,0.0,0.0,0.0,0.0,0.0,0.0,0.0,0.0,0.0,0.0,0.0,0.0,0.0,0.0,0.0,0.0,0.0,0.0,0.0,0.0,0.0,0.0,0.0,0.0,0.0,0.0,0.0,0.0,0.0,0.0,0.0,0.0,0.0,0.0,0.0,0.0,0.0,0.0,0.0,0.0,0.0,0.0,0.0,0.0,0.0,0.0,0.0,0.0,0.0,0.0,0.0,0.0,0.0,0.0,0.0,0.0,0.0,0.0,0.0,0.0,0.0,0.0,0.0,0.0,0.0,0.0,0.0,0.0,0.0,0.0,0.0,0.0,0.0,0.0,0.0,0.0,0.0,0.0,1.0274,1.0412,1.0705,1.0934,1.0991,0.0,0.0,0.0,0.0,0.0,0.0,0.0,0.0,0.0,0.0,0.0,0.0,0.0,0.0,0.0,0.0,0.0,0.0,0.0,0.0,0.0,0.0,0.0,0.0,0.0,0.0,0.0,0.0,0.0,0.0,0.0,0.0,0.0,0.0,0.0,0.0,0.0,0.0,0.0,0.0,0.0,0.0,0.0,0.0,0.0,0.0,0.0,0.0,0.0,0.0,0.0,0.0,0.0,0.0,0.0,0.0,0.0,0.0,0.0,0.0,0.0,0.0,0.0,0.0,0.0,0.0,0.0,0.0,0.0,0.0,0.0,0.0,0.0,0.0,0.0,0.0,0.0,0.0,0.0,0.0,0.0,0.0,0.0,0.0,0.0,0.0,0.0,0.0,0.0,0.0,0.0,0.0,0.0,0.0,0.0,0.0,0.0,0.0,0.0,0.0,0.0,0.0,0.0,0.0,0.0,0.0,0.0,0.0,0.0,0.0,0.0,0.0,1.0737,1.0873,1.1015,0.0,0.0,0.0,0.0,0.0,0.0,0.0,0.0,0.0,0.0,0.0,0.0,0.0,0.0,0.0,0.0,0.0,0.0,0.0,0.0,0.0,0.0,0.0,0.0,0.0,0.0,0.0,0.0,0.0,0.0,0.0,0.0,0.0,0.0,0.0,0.0,0.0,0.0,0.0,0.0,0.0,0.0,0.0,0.0,0.0,0.0,0.0,0.0,0.0,0.0,0.0,0.0,0.0,0.0,0.0,0.0,0.0,0.0,0.0,0.0,0.0,0.0,0.0,0.0,0.0,0.0,0.0,0.0,0.0,0.0,0.0,0.0,0.0,0.0,0.0,0.0,0.0,0.0,0.0,0.0,0.0,0.0,0.0,0.0,0.0,0.0,0.0,0.0,0.0,0.0,0.0,0.0,0.0,0.0,0.0,0.0,0.0,0.0,0.0,0.0,0.0,0.0,0.0,0.0,0.0,0.0,0.0,0.0,0.0,0.0,1.0444,1.1029,1.0953,0.0,1.133,0.0,0.0,0.0,0.0,0.0,0.0,0.0,0.0,0.0,0.0,0.0,0.0,0.0,0.0,0.0,0.0,0.0,0.0,0.0,0.0,0.0,0.0,0.0,0.0,0.0,0.0,0.0,0.0,0.0,0.0,0.0,0.0,0.0,0.0,0.0,0.0,0.0,0.0,0.0,0.0,0.0,0.0,0.0,0.0,0.0,0.0,0.0,0.0,0.0,0.0,0.0,0.0,0.0,0.0,0.0,0.0,0.0,0.0,0.0,0.0,0.0,0.0,0.0,0.0,0.0,0.0,0.0,0.0,0.0,0.0,0.0,0.0,0.0,0.0,0.0,0.0,0.0,0.0,0.0,0.0,0.0,0.0,0.0,0.0,0.0,0.0,0.0,0.0,0.0,0.0,0.0,0.0,0.0,0.0,0.0,0.0,0.0,0.0,0.0,0.0,0.0,0.0,0.0,0.0,0.0,0.0,0.0,0.0,0.0,0.0,1.1476,1.1795,1.1533,1.1329,0.0,0.0,0.0,0.0,0.0,0.0,0.0,0.0,0.0,0.0,0.0,0.0,0.0,0.0,0.0,0.0,0.0,0.0,0.0,0.0,0.0,0.0,0.0,0.0,0.0,0.0,0.0,0.0,0.0,0.0,0.0,0.0,0.0,0.0,0.0,0.0,0.0,0.0,0.0,0.0,0.0,0.0,0.0,0.0,0.0,0.0,0.0,0.0,0.0,0.0,0.0,0.0,0.0,0.0,0.0,0.0,0.0,0.0,0.0,0.0,0.0,0.0,0.0,0.0,0.0,0.0,0.0,0.0,0.0,0.0,0.0,0.0,0.0,0.0,0.0,0.0,0.0,0.0,0.0,0.0,0.0,0.0,0.0,0.0,0.0,0.0,0.0,0.0,0.0,0.0,0.0,0.0,0.0,0.0,0.0,0.0,0.0,0.0,0.0,0.0,0.0,0.0,0.0,0.0,0.0,0.0,0.0,0.0,0.0,0.0,1.205,1.2129,1.2098,1.1831,1.1518,1.1206,0.0,0.0,0.0,0.0,0.0,0.0,0.0,0.0,0.0,0.0,0.0,0.0,0.0,0.0,0.0,0.0,0.0,0.0,0.0,0.0,0.0,0.0,0.0,0.0,0.0,0.0,0.0,0.0,0.0,0.0,0.0,0.0,0.0,0.0,0.0,0.0,0.0,0.0,0.0,0.0,0.0,0.0,0.0,0.0,0.0,0.0,0.0,0.0,0.0,0.0,0.0,0.0,0.0,0.0,0.0,0.0,0.0,0.0,0.0,0.0,0.0,0.0,0.0,0.0,0.0,0.0,0.0,0.0,0.0,0.0,0.0,0.0,0.0,0.0,0.0,0.0,0.0,0.0,0.0,0.0,0.0,0.0,0.0,0.0,0.0,0.0,0.0,0.0,0.0,0.0,0.0,0.0,0.0,0.0,0.0,0.0,0.0,0.0,0.0,0.0,0.0,0.0,0.0,0.0,0.0,0.0,0.0,0.0,1.184,1.2076,1.2028,1.1709,1.1627,1.1493,0.0,0.0,0.0,0.0,0.0,0.0,0.0,0.0,0.0,0.0,0.0,0.0,0.0,0.0,0.0,0.0,0.0,0.0,0.0,0.0,0.0,0.0,0.0,0.0,0.0,0.0,0.0,0.0,0.0,0.0,0.0,0.0,0.0,0.0,0.0,0.0,0.0,0.0,0.0,0.0,0.0,0.0,0.0,0.0,0.0,0.0,0.0,0.0,0.0,0.0,0.0,0.0,0.0,0.0,0.0,0.0,0.0,0.0,0.0,0.0,0.0,0.0,0.0,0.0,0.0,0.0,0.0,0.0,0.0,0.0,0.0,0.0,0.0,0.0,0.0,0.0,0.0,0.0,0.0,0.0,0.0,0.0,0.0,0.0,0.0,0.0,0.0,0.0,0.0,0.0,0.0,0.0,0.0,0.0,0.0,0.0,0.0,0.0,0.0,0.0,0.0,0.0,0.0,0.0,0.0,0.0,0.0,0.0,0.0,1.3084,1.3351,1.3256,1.2781,1.2513,1.2165,0.0,0.0,0.0,0.0,0.0,0.0,0.0,0.0,0.0,0.0,0.0,0.0,0.0,0.0,0.0,0.0,0.0,0.0,0.0,0.0,0.0,0.0,0.0,0.0,0.0,0.0,0.0,0.0,0.0,0.0,0.0,0.0,0.0,0.0,0.0,0.0,0.0,0.0,0.0,0.0,0.0,0.0,0.0,0.0,0.0,0.0,0.0,0.0,0.0,0.0,0.0,0.0,0.0,0.0,0.0,0.0,0.0,0.0,0.0,0.0,0.0,0.0,0.0,0.0,0.0,0.0,0.0,0.0,0.0,0.0,0.0,0.0,0.0,0.0,0.0,0.0,0.0,0.0,0.0,0.0,0.0,0.0,0.0,0.0,0.0,0.0,0.0,0.0,0.0,0.0,0.0,0.0,0.0,0.0,0.0,0.0,0.0,0.0,0.0,0.0,0.0,0.0,0.0,0.0,0.0,0.0,0.0,0.0,0.0,1.3848,0.0,1.3641,0.0,1.2952,1.2581,0.0,0.0,0.0,0.0,0.0,0.0,0.0,0.0,0.0,0.0,0.0,0.0,0.0,0.0,0.0,0.0,0.0,0.0,0.0,0.0,0.0,0.0,0.0,0.0,0.0,0.0,0.0,0.0,0.0,0.0,0.0,0.0,0.0,0.0,0.0,0.0,0.0,0.0,0.0,0.0,0.0,0.0,0.0,0.0,0.0,0.0,0.0,0.0,0.0,0.0,0.0,0.0,0.0,0.0,0.0,0.0,0.0,0.0,0.0,0.0,0.0,0.0,0.0,0.0,0.0,0.0,0.0,0.0,0.0,0.0,0.0,0.0,0.0,0.0,0.0,0.0,0.0,0.0,0.0,0.0,0.0,0.0,0.0,0.0,0.0,0.0,0.0,0.0,0.0,0.0,0.0,0.0,0.0,0.0,0.0,0.0,0.0,0.0,0.0,0.0,0.0,0.0,0.0,0.0,0.0,0.0,0.0,0.0,1.3874,1.394,1.3327,1.3214,1.3479,1.2835,1.265,0.0,0.0,0.0,0.0,0.0,0.0,0.0,0.0,0.0,0.0,0.0,0.0,0.0,0.0,0.0,0.0,0.0,0.0,0.0,0.0,0.0,0.0,0.0,0.0,0.0,0.0,0.0,0.0,0.0,0.0,0.0,0.0,0.0,0.0,0.0,0.0,0.0,0.0,0.0,0.0,0.0,0.0,0.0,0.0,0.0,0.0,0.0,0.0,0.0,0.0,0.0,0.0,0.0,0.0,0.0,0.0,0.0,0.0,0.0,0.0,0.0,0.0,0.0,0.0,0.0,0.0,0.0,0.0,0.0,0.0,0.0,0.0,0.0,0.0,0.0,0.0,0.0,0.0,0.0,0.0,0.0,0.0,0.0,0.0,0.0,0.0,0.0,0.0,0.0,0.0,0.0,0.0,0.0,0.0,0.0,0.0,0.0,0.0,0.0,0.0,0.0,0.0,0.0,0.0,0.0,0.0,0.0,0.0,0.0,1.4184,1.4038,1.4051,1.4083,1.3732,1.3571,0.0,0.0,0.0,0.0,0.0,0.0,0.0,0.0,0.0,0.0,0.0,0.0,0.0,0.0,0.0,0.0,0.0,0.0,0.0,0.0,0.0,0.0,0.0,0.0,0.0,0.0,0.0,0.0,0.0,0.0,0.0,0.0,0.0,0.0,0.0,0.0,0.0,0.0,0.0,0.0,0.0,0.0,0.0,0.0,0.0,0.0,0.0,0.0,0.0,0.0,0.0,0.0,0.0,0.0,0.0,0.0,0.0,0.0,0.0,0.0,0.0,0.0,0.0,0.0,0.0,0.0,0.0,0.0,0.0,0.0,0.0,0.0,0.0,0.0,0.0,0.0,0.0,0.0,0.0,0.0,0.0,0.0,0.0,0.0,0.0,0.0,0.0,0.0,0.0,0.0,0.0,0.0,0.0,0.0,0.0,0.0,0.0,0.0,0.0,0.0,0.0,0.0,0.0,0.0,0.0,0.0,0.0,0.0,0.0,1.5161,1.5159,1.5095,1.4888,1.4672,1.4532,1.447,0.0,0.0,0.0,0.0,0.0,0.0,0.0,0.0,0.0,0.0,0.0,0.0,0.0,0.0,0.0,0.0,0.0,0.0,0.0,0.0,0.0,0.0,0.0,0.0,0.0,0.0,0.0,0.0,0.0,0.0,0.0,0.0,0.0,0.0,0.0,0.0,0.0,0.0,0.0,0.0,0.0,0.0,0.0,0.0,0.0,0.0,0.0,0.0,0.0,0.0,0.0,0.0,0.0,0.0,0.0,0.0,0.0,0.0,0.0,0.0,0.0,0.0,0.0,0.0,0.0,0.0,0.0,0.0,0.0,0.0,0.0,0.0,0.0,0.0,0.0,0.0,0.0,0.0,0.0,0.0,0.0,0.0,0.0,0.0,0.0,0.0,0.0,0.0,0.0,0.0,0.0,0.0,0.0,0.0,0.0,0.0,0.0,0.0,0.0,0.0,0.0,0.0,0.0,0.0,0.0,0.0,0.0,0.0,1.6803,1.6591,1.6236,1.5806,1.5622,1.5487,0.0,0.0,0.0,0.0,0.0,0.0,0.0,0.0,0.0,0.0,0.0,0.0,0.0,0.0,0.0,0.0,0.0,0.0,0.0,0.0,0.0,0.0,0.0,0.0,0.0,0.0,0.0,0.0,0.0,0.0,0.0,0.0,0.0,0.0,0.0,0.0,0.0,0.0,0.0,0.0,0.0,0.0,0.0,0.0,0.0,0.0,0.0,0.0,0.0,0.0,0.0,0.0,0.0,0.0,0.0,0.0,0.0,0.0,0.0,0.0,0.0,0.0,0.0,0.0,0.0,0.0,0.0,0.0,0.0,0.0,0.0,0.0,0.0,0.0,0.0,0.0,0.0,0.0,0.0,0.0,0.0,0.0,0.0,0.0,0.0,0.0,0.0,0.0,0.0,0.0,0.0,0.0,0.0,0.0,0.0,0.0,0.0,0.0,0.0,0.0,0.0,0.0,0.0,0.0,0.0,0.0,0.0,0.0,0.0,1.8247,1.8424,1.7906,1.6707,1.6255,1.6056,0.0,0.0,0.0,0.0,0.0,0.0,0.0,0.0,0.0,0.0,0.0,0.0,0.0,0.0,0.0,0.0,0.0,0.0,0.0,0.0,0.0,0.0,0.0,0.0,0.0,0.0,0.0,0.0,0.0,0.0,0.0,0.0,0.0,0.0,0.0,0.0,0.0,0.0,0.0,0.0,0.0,0.0,0.0,0.0,0.0,0.0,0.0,0.0,0.0,0.0,0.0,0.0,0.0,0.0,0.0,0.0,0.0,0.0,0.0,0.0,0.0,0.0,0.0,0.0,0.0,0.0,0.0,0.0,0.0,0.0,0.0,0.0,0.0,0.0,0.0,0.0,0.0,0.0,0.0,0.0,0.0,0.0,0.0,0.0,0.0,0.0,0.0,0.0,0.0,0.0,0.0,0.0,0.0,0.0,0.0,0.0,0.0,0.0,0.0,0.0,0.0,0.0,0.0,0.0,0.0,0.0,0.0,0.0,1.8841,1.9064,1.9325,1.9008,1.8141,1.7423,1.691,0.0,0.0,0.0,0.0,0.0,0.0,0.0,0.0,0.0,0.0,0.0,0.0,0.0,0.0,0.0,0.0,0.0,0.0,0.0,0.0,0.0,0.0,0.0,0.0,0.0,0.0,0.0,0.0,0.0,0.0,0.0,0.0,0.0,0.0,0.0,0.0,0.0,0.0,0.0,0.0,0.0,0.0,0.0,0.0,0.0,0.0,0.0,0.0,0.0,0.0,0.0,0.0,0.0,0.0,0.0,0.0,0.0,0.0,0.0,0.0,0.0,0.0,0.0,0.0,0.0,0.0,0.0,0.0,0.0,0.0,0.0,0.0,0.0,0.0,0.0,0.0,0.0,0.0,0.0,0.0,0.0,0.0,0.0,0.0,0.0,0.0,0.0,0.0,0.0,0.0,0.0,0.0,0.0,0.0,0.0,0.0,0.0,0.0,0.0,0.0,0.0,0.0,0.0,0.0,0.0,0.0,0.0,0.0,1.9213,1.9413,1.9617,1.969,1.9632,1.8785,1.7889,0.0,0.0,0.0,0.0,0.0,0.0,0.0,0.0,0.0,0.0,0.0,0.0,0.0,0.0,0.0,0.0,0.0,0.0,0.0,0.0,0.0,0.0,0.0,0.0,0.0,0.0,0.0,0.0,0.0,0.0,0.0,0.0,0.0,0.0,0.0,0.0,0.0,0.0,0.0,0.0,0.0,0.0,0.0,0.0,0.0,0.0,0.0,0.0,0.0,0.0,0.0,0.0,0.0,0.0,0.0,0.0,0.0,0.0,0.0,0.0,0.0,0.0,0.0,0.0,0.0,0.0,0.0,0.0,0.0,0.0,0.0,0.0,0.0,0.0,0.0,0.0,0.0,0.0,0.0,0.0,0.0,0.0,0.0,0.0,0.0,0.0,0.0,0.0,0.0,0.0,0.0,0.0,0.0,0.0,0.0,0.0,0.0,0.0,0.0,0.0,0.0,0.0,0.0,0.0,0.0,0.0,0.0,0.0,1.9384,1.9617,1.9792,1.9878,1.9899,1.9181,1.8395,0.0,0.0,0.0,0.0,0.0,0.0,0.0,0.0,0.0,0.0,0.0,0.0,0.0,0.0,0.0,0.0,0.0,0.0,0.0,0.0,0.0,0.0,0.0,0.0,0.0,0.0,0.0,0.0,0.0,0.0,0.0,0.0,0.0,0.0,0.0,0.0,0.0,0.0,0.0,0.0,0.0,0.0,0.0,0.0,0.0,0.0,0.0,0.0,1.833,0.0,0.0,0.0,0.0,0.0,0.0,0.0,0.0,0.0,0.0,0.0,0.0,0.0,0.0,0.0,0.0,0.0,0.0,0.0,0.0,0.0,0.0,0.0,0.0,0.0,0.0,0.0,0.0,0.0,0.0,0.0,0.0,0.0,0.0,0.0,0.0,0.0,0.0,0.0,0.0,0.0,0.0,0.0,0.0,0.0,0.0,0.0,0.0,0.0,0.0,0.0,0.0,0.0,0.0,0.0,0.0,0.0,0.0,0.0,1.9708,2.0154,2.0044,2.0122,2.043,1.9878,1.9208,0.0,0.0,0.0,0.0,0.0,0.0,0.0,0.0,0.0,0.0,0.0,0.0,0.0,0.0,0.0,0.0,0.0,0.0,0.0,0.0,0.0,0.0,0.0,0.0,0.0,0.0,0.0,0.0,0.0,0.0,0.0,0.0,0.0,0.0,0.0,0.0,0.0,0.0,0.0,0.0,0.0,0.0,0.0,0.0,0.0,0.0,0.0,0.0,0.0,0.0,0.0,0.0,0.0,0.0,0.0,0.0,0.0,0.0,0.0,0.0,0.0,0.0,0.0,0.0,0.0,0.0,0.0,0.0,0.0,0.0,0.0,0.0,0.0,0.0,0.0,0.0,0.0,0.0,0.0,0.0,0.0,0.0,0.0,0.0,0.0,0.0,0.0,0.0,0.0,0.0,0.0,0.0,0.0,0.0,0.0,0.0,0.0,0.0,0.0,0.0,0.0,0.0,0.0,0.0,0.0,0.0,0.0,1.9634,2.0124,2.0835,2.0397,2.0466,2.0999,2.0553,1.9993,1.9308,0.0,0.0,0.0,0.0,0.0,0.0,0.0,0.0,0.0,0.0,0.0,0.0,0.0,0.0,0.0,0.0,0.0,0.0,0.0,0.0,0.0,0.0,0.0,0.0,0.0,0.0,0.0,0.0,0.0,0.0,0.0,0.0,0.0,0.0,0.0,0.0,0.0,0.0,1.5537,1.6515,0.0,0.0,0.0,0.0,0.0,0.0,0.0,0.0,1.9464,0.0,0.0,0.0,0.0,0.0,0.0,0.0,0.0,0.0,0.0,0.0,0.0,0.0,0.0,0.0,0.0,0.0,0.0,0.0,0.0,0.0,0.0,0.0,0.0,0.0,0.0,0.0,0.0,0.0,0.0,0.0,0.0,0.0,0.0,0.0,0.0,0.0,0.0,0.0,0.0,0.0,0.0,0.0,0.0,0.0,0.0,0.0,0.0,0.0,0.0,0.0,0.0,0.0,0.0,0.0,0.0,2.0209,2.0324,2.0827,2.1758,2.1189,2.0959,2.1218,2.0624,2.0258,2.007,0.0,0.0,0.0,0.0,0.0,0.0,0.0,0.0,0.0,0.0,0.0,0.0,0.0,0.0,0.0,0.0,0.0,0.0,0.0,0.0,0.0,0.0,0.0,0.0,0.0,0.0,0.0,0.0,0.0,0.0,0.0,0.0,0.0,0.0,0.0,0.0,0.0,0.0,0.0,1.7706,1.7821,0.0,0.0,0.0,0.0,0.0,0.0,0.0,0.0,2.0013,0.0,0.0,0.0,0.0,0.0,0.0,0.0,0.0,0.0,0.0,0.0,0.0,0.0,0.0,0.0,0.0,0.0,0.0,0.0,0.0,0.0,0.0,0.0,0.0,0.0,0.0,0.0,0.0,0.0,0.0,0.0,0.0,0.0,0.0,0.0,0.0,0.0,0.0,0.0,0.0,0.0,0.0,0.0,0.0,0.0,0.0,0.0,0.0,0.0,0.0,0.0,0.0,0.0,0.0,0.0,2.0279,2.0774,2.1461,2.232,2.1819,2.1584,2.1704,2.1147,2.0659,0.0,0.0,0.0,0.0,0.0,0.0,0.0,0.0,0.0,0.0,0.0,0.0,0.0,0.0,0.0,0.0,0.0,0.0,0.0,0.0,0.0,0.0,0.0,0.0,0.0,0.0,0.0,0.0,0.0,0.0,0.0,0.0,0.0,0.0,0.0,0.0,0.0,0.0,0.0,0.0,1.7966,1.7961,1.7856,0.0,0.0,0.0,0.0,0.0,0.0,2.0628,2.0696,0.0,0.0,0.0,0.0,0.0,0.0,0.0,0.0,0.0,0.0,0.0,0.0,0.0,0.0,0.0,0.0,0.0,0.0,0.0,0.0,0.0,0.0,0.0,0.0,0.0,0.0,0.0,0.0,0.0,0.0,0.0,0.0,0.0,0.0,0.0,0.0,0.0,0.0,0.0,0.0,0.0,0.0,0.0,0.0,0.0,0.0,0.0,0.0,0.0,0.0,0.0,0.0,0.0,0.0,0.0,2.0421,2.1133,2.1973,2.2843,2.2324,2.2017,2.2103,2.1449,2.0859,0.0,0.0,0.0,0.0,0.0,0.0,0.0,0.0,0.0,0.0,0.0,0.0,0.0,0.0,0.0,0.0,0.0,0.0,0.0,0.0,0.0,0.0,0.0,0.0,0.0,0.0,0.0,0.0,0.0,0.0,0.0,0.0,0.0,0.0,0.0,0.0,0.0,0.0,0.0,0.0,0.0,1.7924,1.7968,1.8427,0.0,0.0,0.0,0.0,2.1093,2.1292,0.0,0.0,0.0,0.0,0.0,0.0,0.0,0.0,0.0,0.0,0.0,0.0,0.0,0.0,0.0,0.0,0.0,0.0,0.0,0.0,0.0,0.0,0.0,0.0,0.0,0.0,0.0,0.0,0.0,0.0,0.0,0.0,0.0,0.0,0.0,0.0,0.0,0.0,0.0,0.0,0.0,0.0,0.0,0.0,0.0,0.0,0.0,0.0,0.0,0.0,0.0,0.0,0.0,0.0,0.0,0.0,2.1061,2.134,2.2181,2.3541,2.2606,2.2017,2.2103,2.1003,2.0381,0.0,0.0,0.0,0.0,0.0,0.0,0.0,0.0,0.0,0.0,0.0,0.0,0.0,0.0,0.0,0.0,0.0,0.0,0.0,0.0,0.0,0.0,0.0,0.0,0.0,0.0,0.0,0.0,0.0,0.0,0.0,0.0,0.0,0.0,0.0,0.0,0.0,0.0,0.0,0.0,0.0,1.7846,1.841,1.8642,1.9135,0.0,0.0,0.0,2.1792,2.1836,0.0,0.0,0.0,0.0,0.0,0.0,0.0,0.0,0.0,0.0,0.0,0.0,0.0,0.0,0.0,0.0,0.0,0.0,0.0,0.0,0.0,0.0,0.0,0.0,0.0,0.0,0.0,0.0,0.0,0.0,0.0,0.0,0.0,0.0,0.0,0.0,0.0,0.0,0.0,0.0,0.0,0.0,0.0,0.0,0.0,0.0,0.0,0.0,0.0,0.0,0.0,0.0,0.0,0.0,0.0,2.0023,2.1056,2.1645,2.2446,2.358,2.3155,2.2823,2.2699,2.2156,2.1587,0.0,0.0,0.0,0.0,0.0,0.0,0.0,0.0,0.0,0.0,0.0,0.0,0.0,0.0,0.0,0.0,0.0,0.0,0.0,0.0,0.0,0.0,0.0,0.0,0.0,0.0,0.0,0.0,0.0,0.0,0.0,0.0,0.0,0.0,0.0,0.0,0.0,0.0,0.0,0.0,0.0,0.0,1.8518,1.9247,0.0,0.0,0.0,2.1532,2.1832,0.0,0.0,0.0,0.0,0.0,0.0,0.0,0.0,0.0,0.0,0.0,0.0,0.0,0.0,0.0,0.0,0.0,0.0,0.0,0.0,0.0,0.0,0.0,0.0,0.0,0.0,0.0,0.0,0.0,0.0,0.0,0.0,0.0,0.0,0.0,0.0,0.0,0.0,0.0,0.0,0.0,0.0,0.0,0.0,0.0,0.0,0.0,0.0,0.0,0.0,0.0,0.0,0.0,0.0,0.0,0.0,0.0,2.0947,2.1637,2.2494,2.3421,2.3402,2.3242,2.2965,2.2863,0.0,0.0,0.0,0.0,0.0,0.0,0.0,0.0,0.0,0.0,0.0,0.0,0.0,0.0,0.0,0.0,0.0,0.0,0.0,0.0,0.0,0.0,0.0,0.0,0.0,0.0,0.0,1.4159,0.0,0.0,0.0,0.0,0.0,0.0,0.0,0.0,0.0,0.0,0.0,0.0,0.0,0.0,1.8726,1.8998,1.997,2.0702,0.0,0.0,2.1797,2.1781,2.1869,2.1911,0.0,0.0,0.0,0.0,0.0,0.0,0.0,0.0,0.0,0.0,0.0,0.0,0.0,0.0,0.0,0.0,0.0,0.0,0.0,0.0,0.0,0.0,0.0,0.0,0.0,0.0,0.0,0.0,0.0,0.0,0.0,0.0,0.0,0.0,0.0,0.0,0.0,0.0,0.0,0.0,0.0,0.0,0.0,0.0,0.0,0.0,0.0,0.0,0.0,0.0,0.0,0.0,0.0,0.0,0.0,2.0864,2.1269,2.2066,2.3245,2.3011,2.2806,2.2649,2.2209,2.194,0.0,0.0,0.0,0.0,0.0,0.0,0.0,0.0,0.0,0.0,0.0,0.0,0.0,0.0,0.0,0.0,0.0,0.0,0.0,0.0,0.0,0.0,0.0,0.0,0.0,0.0,0.0,0.0,0.0,0.0,0.0,0.0,0.0,0.0,0.0,0.0,0.0,0.0,0.0,0.0,0.0,1.8946,2.0356,2.0621,2.0936,0.0,0.0,2.1724,2.1797,2.1768,2.1738,2.1797,0.0,0.0,0.0,0.0,0.0,0.0,0.0,0.0,0.0,0.0,0.0,0.0,0.0,0.0,0.0,0.0,0.0,0.0,0.0,0.0,0.0,0.0,0.0,0.0,0.0,0.0,0.0,0.0,0.0,0.0,0.0,0.0,0.0,0.0,0.0,0.0,0.0,0.0,0.0,0.0,0.0,0.0,0.0,0.0,0.0,0.0,0.0,0.0,0.0,0.0,0.0,0.0,0.0,1.9852,2.0782,2.1438,2.2249,2.3098,2.3054,2.3051,2.315,2.3011,2.2709,0.0,0.0,0.0,0.0,0.0,0.0,0.0,0.0,0.0,0.0,0.0,0.0,0.0,0.0,0.0,0.0,0.0,0.0,0.0,0.0,0.0,0.0,0.0,0.0,0.0,0.0,0.0,0.0,1.6475,1.6863,1.774,0.0,0.0,0.0,0.0,0.0,0.0,0.0,0.0,0.0,0.0,2.0141,2.1176,2.1675,0.0,0.0,2.3109,2.3077,2.3156,2.2744,2.2564,2.2945,2.2347,0.0,0.0,0.0,0.0,0.0,0.0,0.0,0.0,0.0,0.0,0.0,0.0,0.0,0.0,0.0,0.0,0.0,0.0,0.0,0.0,0.0,0.0,0.0,0.0,0.0,0.0,0.0,0.0,0.0,0.0,0.0,0.0,0.0,0.0,0.0,0.0,0.0,0.0,0.0,0.0,0.0,0.0,0.0,0.0,0.0,0.0,0.0,0.0,0.0,0.0,0.0,0.0,2.0147,2.0841,2.1499,2.2206,2.2933,2.3023,2.3157,2.3275,2.3363,2.3185,0.0,0.0,0.0,0.0,0.0,0.0,0.0,0.0,0.0,0.0,0.0,0.0,0.0,0.0,0.0,0.0,0.0,0.0,0.0,0.0,0.0,0.0,0.0,0.0,0.0,0.0,0.0,0.0,1.7881,1.8177,1.8836,0.0,0.0,0.0,0.0,0.0,0.0,0.0,0.0,0.0,0.0,2.1279,2.2266,2.2781,2.3292,2.3918,2.3951,2.3918,2.4,2.3538,2.334,2.3786,0.0,0.0,0.0,0.0,0.0,0.0,0.0,0.0,0.0,0.0,0.0,0.0,0.0,0.0,0.0,0.0,0.0,0.0,0.0,0.0,0.0,0.0,0.0,0.0,0.0,0.0,0.0,0.0,0.0,0.0,0.0,0.0,0.0,0.0,0.0,0.0,0.0,0.0,0.0,0.0,0.0,0.0,0.0,0.0,0.0,0.0,0.0,0.0,0.0,0.0,0.0,0.0,0.0,0.0,2.1094,2.1449,2.1941,2.2572,2.2904,2.2979,2.274,2.3083,2.3157,2.2876,0.0,0.0,0.0,0.0,0.0,0.0,0.0,0.0,0.0,0.0,0.0,0.0,0.0,0.0,0.0,0.0,0.0,0.0,0.0,0.0,0.0,0.0,0.0,0.0,0.0,0.0,1.9528,1.9909,2.0067,0.0,0.0,0.0,0.0,0.0,0.0,0.0,0.0,0.0,0.0,2.1705,2.225,2.3832,2.4,2.4016,2.4131,2.405,2.3951,2.405,2.3951,2.3902,0.0,0.0,0.0,0.0,0.0,0.0,0.0,0.0,0.0,0.0,0.0,0.0,0.0,0.0,0.0,0.0,0.0,0.0,0.0,0.0,0.0,0.0,0.0,0.0,0.0,0.0,0.0,0.0,0.6456,0.0,0.0,0.0,0.0,0.0,0.0,0.0,0.0,0.0,0.0,0.0,1.0549,1.121,0.0,0.0,0.0,0.0,0.0,0.0,0.0,0.0,0.0,0.0,0.0,0.0,2.0927,2.1136,2.186,2.24,2.2675,2.2752,2.2797,2.2855,2.2917,2.2744,2.2323,0.0,0.0,0.0,0.0,0.0,0.0,0.0,0.0,0.0,0.0,0.0,0.0,0.0,0.0,0.0,0.0,0.0,0.0,0.0,0.0,0.0,0.0,0.0,0.0,0.0,1.8585,0.0,0.0,0.0,0.0,0.0,0.0,0.0,0.0,0.0,0.0,0.0,2.1383,2.1882,2.2825,2.3857,2.4828,2.4995,2.5179,0.0,0.0,0.0,0.0,0.0,0.0,0.0,0.0,0.0,0.0,0.0,0.0,0.0,0.0,2.5144,2.3882,2.3852,2.4066,2.4081,0.0,0.0,0.0,0.0,0.0,0.0,0.0,0.0,0.0,0.0,0.0,0.0,0.0,0.0,0.0,0.0,0.6696,0.0,0.0,0.0,0.0,0.0,0.0,0.0,0.0,1.0341,1.0774,1.1275,1.1959,1.2432,0.0,1.3281,1.3524,0.0,0.0,0.0,0.0,0.0,0.0,0.0,0.0,2.1352,2.1365,2.208,2.2477,2.2491,2.2523,2.2583,2.2672,2.2658,2.2433,2.1917,2.1441,2.0876,0.0,0.0,0.0,0.0,0.0,0.0,0.0,0.0,0.0,0.0,0.0,0.0,0.0,0.0,0.0,0.0,0.0,0.0,0.0,0.0,0.0,0.0,0.0,1.9635,0.0,0.0,0.0,0.0,0.0,0.0,0.0,0.0,0.0,2.134,2.2312,2.3234,2.322,2.4132,2.5088,2.5765,0.0,0.0,0.0,0.0,0.0,0.0,0.0,2.6216,2.6666,2.6147,2.576,2.617,2.6217,2.6201,2.6148,0.0,0.0,2.482,2.4961,2.538,2.543,2.5845,2.6394,2.7115,2.7882,2.8754,0.0,0.0,0.0,0.0,0.0,0.0,0.0,0.0,0.6622,0.6804,0.0,0.7129,0.0,0.0,0.0,0.0,0.0,0.0,0.0,0.0,1.1646,1.2083,1.234,1.2658,1.2964,1.3256,1.3591,1.4032,1.4588,1.4388,0.0,0.0,0.0,0.0,0.0,0.0,2.1793,2.1793,2.203,2.2184,2.2184,2.2324,2.2324,2.2231,2.2324,2.2238,2.1844,2.1685,2.1112,2.0001,1.998,0.0,0.0,0.0,0.0,0.0,0.0,0.0,0.0,0.0,0.0,0.0,0.0,0.0,0.0,0.0,0.0,0.0,0.0,0.0,0.0,2.0686,0.0,0.0,0.0,0.0,0.0,0.0,0.0,0.0,0.0,0.0,2.3687,2.4751,2.5625,2.5528,0.0,0.0,0.0,0.0,2.6673,2.6657,2.6621,2.662,2.662,2.7244,2.7734,2.7662,0.0,0.0,2.8493,2.8493,2.8481,2.8661,2.8594,2.8189,2.6571,2.7106,2.7825,2.7876,2.8544,2.942,2.9777,3.0007,3.0592,0.8464,0.0,0.0,0.0,0.0,0.7029,0.7166,0.7364,0.7193,0.7269,0.7553,0.7428,0.0,0.0,0.0,0.0,0.0,0.0,1.1101,1.1739,1.2075,1.235,1.2669,1.3303,1.3716,1.3964,1.4923,1.5486,1.5683,1.6218,1.6657,1.708,0.0,0.0,0.0,0.0,2.165,2.1664,2.1935,2.2085,2.2169,2.2147,2.2184,2.2324,2.2463,2.2469,2.2388,2.1869,2.1469,2.1126,2.0253,0.0,0.0,0.0,0.0,0.0,0.0,0.0,0.0,0.0,0.0,0.0,0.0,0.0,0.0,0.0,0.0,0.0,0.0,0.0,2.0352,2.1022,2.2019,0.0,0.0,0.0,0.0,0.0,0.0,0.0,0.0,0.0,2.8243,2.764,2.7147,0.0,0.0,2.8135,2.7692,2.81,2.8218,2.7553,0.0,0.0,0.0,2.8393,2.8508,2.8581,2.8656,2.8678,2.8641,2.8548,2.8565,2.8695,2.8753,2.8622,2.8339,2.8429,2.8706,2.8706,2.9108,2.9903,3.115,3.172,3.2456,0.9152,0.8452,0.8468,0.8211,0.7855,0.795,0.7957,0.7954,0.7905,0.7929,0.8039,0.7948,0.8238,0.8825,0.9413,0.0,0.0,0.0,1.1887,1.2423,1.2775,1.3265,1.3861,1.4383,1.4892,1.5349,1.6079,1.6514,1.6621,1.7255,1.7811,1.8282,0.0,0.0,2.0356,2.1137,2.1506,2.152,2.1807,2.1944,2.206,2.1991,2.1996,2.2137,2.2231,2.2324,2.2417,2.2016,2.1645,2.1494,2.0472,1.9792,0.0,0.0,0.0,0.0,0.0,0.0,0.0,0.0,0.0,0.0,0.0,1.7515,1.718,0.0,0.0,0.0,1.8688,1.9716,2.0944,2.1794,0.0,0.0,0.0,0.0,0.0,0.0,0.0,2.8327,2.9928,3.0628,2.9824,2.953,2.9262,2.8835,2.9367,2.9537,2.9039,0.0,2.8987,2.8367,2.8689,2.9047,2.9011,2.9211,2.9462,2.9803,2.9741,2.9609,2.9609,2.9532,2.9549,2.9664,2.9741,2.9762,2.9875,2.9949,3.0057,3.0114,3.059,3.1463,3.2914,3.3389,3.4052,0.9779,0.9485,0.94,0.9175,0.8795,0.9043,0.8822,0.8335,0.8658,0.8704,0.8551,0.861,0.904,0.9761,1.0682,0.0,0.0,1.2148,1.265,1.3174,1.3778,1.4558,1.5452,1.5646,1.6187,1.7044,1.7079,1.7178,1.7423,1.7763,1.861,1.9913,1.9635,1.9946,2.0727,2.1211,2.1442,2.1442,2.1691,2.1746,2.1793,2.1793,2.1793,2.1793,2.1807,2.1935,2.2137,2.203,2.1778,2.1355,2.0665,1.9977,1.9336,0.0,0.0,0.0,0.0,0.0,0.0,0.0,0.0,0.0,0.0,0.0,0.0,0.0,0.0,0.0,2.0252,0.0,2.1579,2.2916,0.0,0.0,0.0,2.5848,2.73,2.7915,2.8619,2.9655,0.0,0.0,0.0,0.0,3.1709,3.1688,3.097,3.0424,3.0409,2.9826,2.931,2.9149,2.9219,2.927,2.9502,3.0082,3.0709,3.1162,3.1196,3.1032,3.0948,3.0891,3.1021,3.1106,3.1173,3.1179,3.1278,3.1342,3.1631,3.18,3.2451,3.3384,3.4392,3.4677,3.5065,1.0388,1.0216,1.0216,0.9858,0.9259,0.9514,0.9474,0.9302,0.9468,0.9563,0.9623,0.9845,1.0242,1.0763,1.1085,1.157,1.2106,1.2387,1.3134,1.4129,1.444,1.5072,1.5992,1.6053,1.6359,1.6895,1.7369,1.771,1.7874,1.8627,1.9371,2.0106,2.0524,2.1173,2.2102,2.1887,2.1851,2.1951,2.1654,2.1554,2.165,2.1787,2.1868,2.1793,2.1983,2.2044,2.1888,2.1996,2.1927,2.168,2.0914,2.0379,2.0211,1.9612,0.0,0.0,0.0,0.0,0.0,0.0,0.0,0.0,0.0,1.8965,1.8784,0.0,2.0306,0.0,2.1231,2.2284,2.3211,2.456,0.0,0.0,2.7886,2.8467,3.0427,2.9748,2.9433,3.0342,3.1133,3.1533,3.1392,3.2283,3.2957,3.3029,3.2124,3.119,3.0604,3.0768,3.0711,3.0122,3.0336,3.0891,3.1376,3.2161,3.2483,3.2241,3.1979,3.1695,3.128,3.1078,3.1055,3.1235,3.1274,3.1351,3.1487,3.1691,3.2063,3.2661,3.263,3.286,3.441,3.4552,3.4968,1.0713,1.0805,1.0954,1.0859,1.0563,1.0303,1.0034,0.9747,1.0084,1.0178,1.0126,1.0639,1.1077,1.1369,1.1832,1.2192,1.2567,1.303,1.3672,1.4414,1.4924,1.5611,1.6558,1.662,1.7031,1.7714,1.7996,1.8242,1.8474,1.9255,1.9883,2.0353,2.1209,2.1988,2.2617,2.2352,2.214,2.1912,2.1524,2.1496,2.1888,2.1766,2.1678,2.1602,2.1759,2.1793,2.1698,2.1807,2.1807,2.1698,2.0994,2.0541,2.0448,1.9894,1.9481,0.0,0.0,0.0,0.0,0.0,0.0,0.0,0.0,0.0,0.0,0.0,2.0481,0.0,2.2295,0.0,2.4263,2.5875,2.7476,2.8843,2.8627,2.9125,3.0983,3.0344,3.0112,3.1008,3.1456,3.1674,3.1607,3.195,3.2261,3.2425,3.1896,3.1487,3.1418,3.1521,3.1346,3.0781,3.1269,3.1975,3.2621,3.3094,3.3169,3.2574,3.229,3.1979,3.137,3.1173,3.1134,3.1257,3.1274,3.1329,3.1524,3.1671,3.1938,3.2454,3.2404,3.2861,3.45,3.4746,3.5162,1.0749,1.1137,1.1489,1.1751,1.1892,1.1198,1.0618,1.0228,1.0687,1.0807,1.0649,1.144,1.1873,1.2044,1.2764,1.3096,1.3165,1.3872,1.4306,1.4561,1.5307,1.6164,1.7104,1.7221,1.782,1.8732,1.8738,1.8869,1.9107,1.9812,2.0324,2.0722,2.1788,2.2521,2.2872,2.2802,2.2444,2.1773,2.1576,2.1709,2.2227,2.1803,2.1491,2.1423,2.1423,2.152,2.1568,2.1554,2.1568,2.1554,2.1015,2.063,2.0456,2.0026,1.9726,0.0,1.943,0.0,0.0,0.0,0.0,0.0,0.0,0.0,0.0,1.9987,2.0561,2.1495,2.3386,2.4642,2.5005,2.6976,2.8343,2.8448,2.8504,2.9048,3.0309,3.0297,3.0478,3.1275,3.1401,3.1222,3.0866,3.074,3.0838,3.113,3.1308,3.1579,3.2173,3.1888,3.1483,3.1331,3.1992,3.2638,3.3246,3.3575,3.3491,3.2737,3.2517,3.2121,3.1365,3.119,3.1213,3.1312,3.1291,3.1346,3.1596,3.1614,3.1726,3.2089,3.2249,3.2809,3.4305,3.4692,3.5023,1.0759,1.0701,1.1141,1.1403,1.1614,1.1952,1.1978,1.1776,1.1825,1.2235,1.2905,1.3146,1.3394,1.3675,1.3805,1.4054,1.4262,1.4447,1.4954,1.5733,1.5935,1.6548,1.7555,1.7718,1.8089,1.8637,1.9171,1.9471,1.9648,2.0458,2.1117,2.1629,2.2234,2.2794,0.0,0.0,0.0,0.0,2.2485,2.2492,2.2167,2.2247,2.201,2.1437,2.1602,0.0,2.1471,2.141,2.1375,2.1277,2.1002,0.0,0.0,0.0,0.0,0.0,0.0,0.0,0.0,0.0,0.0,0.0,1.9891,1.977,2.0464,2.1369,2.2114,2.2585,2.4113,2.523,2.5607,2.7508,2.9083,2.9739,2.9821,3.0123,3.0866,3.0298,2.9962,3.012,3.0256,3.0266,3.0222,3.0359,3.0683,3.1146,3.1583,3.1775,3.1884,3.1624,3.155,3.2009,3.2605,3.3244,3.3977,3.4583,3.4486,3.371,3.3228,3.2669,3.1579,3.123,3.1269,3.1423,3.1479,3.1517,3.1726,3.1856,3.2001,3.2144,3.2387,3.2822,3.3792,3.3659,3.3784,1.0875,0.0,1.1647,1.2007,0.0,1.2932,1.3182,1.3142,1.2758,1.2986,1.3638,1.3863,1.4034,1.4257,1.4257,1.4354,1.4619,1.4831,1.528,1.5909,1.6295,1.6991,1.7957,1.8115,1.8588,1.9235,1.9606,1.9781,1.9975,2.0706,2.11,2.1241,2.2179,2.2689,2.2761,2.3382,2.3535,2.3267,2.2801,2.2804,2.3393,2.2854,2.2596,2.2739,0.0,0.0,0.0,0.0,0.0,0.0,0.0,0.0,0.0,0.0,0.0,2.2023,2.1903,2.186,2.1834,2.1135,2.0941,2.1513,2.1088,2.0836,2.1,2.1611,2.2241,2.2979,2.4522,2.5676,2.6174,2.8192,2.9677,2.9858,3.0105,3.0258,3.0148,2.9785,2.947,2.9544,2.9605,2.9649,2.9665,2.9754,2.9999,3.0336,3.0637,3.0991,3.1461,3.1666,3.1928,3.2522,3.3165,3.3796,3.4521,3.474,3.461,3.3634,3.3102,3.2466,3.1499,3.1274,3.1329,3.15,3.1559,3.1596,3.1802,3.1948,3.2055,3.2267,3.2439,3.2712,3.3219,3.3152,3.327,1.0973,1.1494,1.2142,1.2685,1.3154,1.3669,1.4059,1.4264,0.0,0.0,0.0,1.4266,1.4483,1.4612,1.4602,1.4646,1.4817,1.518,1.5517,1.5891,1.6553,1.7367,1.8151,1.8518,1.9078,1.9831,1.9982,2.0147,2.0276,2.0902,2.1069,2.0924,2.2055,2.2504,2.2346,2.3043,2.3675,2.415,2.3132,2.3286,2.4667,2.3672,2.3406,2.4123,2.3501,2.3191,2.3189,2.303,2.303,2.3136,2.3136,2.3017,2.2884,2.2898,2.287,2.2735,2.2722,2.2802,2.291,2.2616,2.2528,2.2784,2.2372,2.1916,2.1496,2.1643,2.2183,2.308,2.4819,2.6031,2.6457,2.8529,2.9769,2.9307,2.9705,2.9769,2.9216,2.9029,2.9029,2.9121,2.9248,2.9295,2.9327,2.9453,2.9579,2.9782,3.0078,3.018,3.1181,3.1828,3.2412,3.305,3.3544,3.413,3.4805,3.4777,3.4108,3.3388,3.2816,3.2171,3.1528,3.1257,3.1334,3.1521,3.1579,3.1691,3.1858,3.1984,3.2091,3.2354,3.2473,3.2623,3.2884,3.3042,3.3201,1.0697,1.074,1.1668,1.2394,1.2889,1.367,1.4255,1.4647,1.4526,1.4713,1.5167,1.5234,1.5359,1.5494,1.5302,1.5359,1.5551,1.5418,1.5746,0.0,1.6911,1.7493,1.8046,1.8854,1.9397,1.9688,2.0391,2.077,2.084,2.1422,2.1832,2.1981,2.2298,2.2616,2.2977,2.3233,2.3582,2.3949,2.4327,2.4563,2.4633,2.4985,2.4818,2.4109,2.3892,2.3595,2.3202,2.3004,2.2818,2.2871,2.2751,2.2617,2.2536,2.3078,2.3286,2.3149,2.3273,2.3398,2.3577,2.3497,2.3662,2.3999,2.3519,2.2862,2.2184,2.2583,2.3031,2.3493,2.5058,2.6228,2.6482,2.7725,2.8585,2.8429,2.862,2.8683,2.8556,2.8493,2.8508,2.8587,2.9002,2.9249,2.9234,2.9763,3.0359,3.0958,3.0586,3.099,3.1325,3.2079,3.28,3.3582,3.374,3.4074,3.4795,3.5021,3.4375,3.3379,3.3068,3.2437,3.1376,3.1213,3.1308,3.1479,3.1596,3.1691,3.1875,3.2161,3.2301,3.2473,3.2608,3.2805,3.2993,3.3183,3.3292,1.0885,1.1107,1.1866,1.2406,1.2889,1.3832,1.4419,1.4734,1.5078,1.5352,1.5633,1.5586,1.5733,1.5989,1.5586,1.5536,1.5798,1.543,1.5791,1.6619,1.6884,1.7596,1.8599,1.9144,1.9655,2.0183,2.0699,2.0927,2.0961,2.142,2.1663,2.1788,2.2173,2.2604,2.2957,2.3138,2.3542,2.421,2.4398,2.4623,2.4925,2.5819,2.5755,2.4872,2.445,2.4211,2.3943,2.4083,2.3983,2.3777,2.3944,2.3857,2.3484,2.3677,2.3764,2.3707,2.3866,2.3966,2.4023,2.3912,2.3702,2.3608,2.3377,2.3152,2.2906,2.3164,2.3468,2.3745,2.4991,2.5864,2.6059,2.7369,2.8086,2.7625,2.8112,2.8404,2.8324,2.8072,2.8076,2.8379,2.8394,2.8364,2.8278,2.8867,2.9288,2.9474,2.9527,2.9842,3.0396,3.1182,3.2095,3.3174,3.3679,3.4136,3.4704,3.4154,3.3566,3.3044,3.2336,3.1716,3.1139,3.1151,3.1269,3.1462,3.1634,3.1802,3.1984,3.2232,3.2422,3.2557,3.2674,3.287,3.3055,3.3286,3.3655,1.1138,1.1409,1.1966,1.2488,1.3067,1.3987,1.4515,1.4833,1.5374,1.5813,1.6042,1.5978,1.6098,1.6406,1.5919,1.5841,1.596,1.5507,1.5762,1.6538,1.6779,1.7492,1.8701,1.9262,1.9907,2.056,2.0775,2.0903,2.0967,2.121,2.14,2.1526,2.2037,2.253,2.3034,2.3156,2.3664,2.4528,2.4585,2.4865,2.5572,2.6511,2.6598,2.5875,2.5342,2.5095,2.4989,2.5223,2.5189,2.4898,2.515,2.5056,2.4537,2.4242,2.4131,2.4177,2.4093,2.4184,2.4321,2.4133,2.3848,2.3594,2.3406,2.3487,2.3688,2.3741,2.3884,2.4142,2.4982,2.5597,2.5868,2.689,2.7501,2.6966,2.7542,2.7868,2.7868,2.7602,2.7586,2.7966,2.7787,2.7565,2.7682,2.8062,2.841,2.8284,2.8327,2.8845,2.9516,3.0269,3.1162,3.2421,3.3315,3.3874,3.4301,3.3348,3.2681,3.2713,3.1788,3.1141,3.0955,3.1015,3.1151,3.1291,3.1542,3.1748,3.1948,3.2161,3.2336,3.2438,3.2557,3.2705,3.293,3.3208,3.3723,1.1253,1.1322,1.1827,1.2552,1.3442,1.3863,1.4378,1.5019,1.5454,1.6147,1.685,1.6733,1.6684,1.6901,1.6674,1.6427,1.6326,1.5813,1.567,1.6011,1.6661,1.7201,1.7822,1.9137,1.9944,2.0172,2.0635,2.0903,2.0903,2.1106,2.136,2.1635,2.1874,2.2476,2.3329,2.3567,2.4092,2.4976,2.5549,2.6112,2.6696,2.7222,2.7327,2.7067,2.6757,2.6493,2.5993,2.5906,2.572,2.568,2.5556,2.5368,2.5152,2.4542,2.4213,2.4298,2.3837,2.3833,2.4559,2.4426,2.4487,2.5055,2.4447,2.4239,2.4563,2.4349,2.4292,2.4531,2.516,2.5616,2.5686,2.6099,2.6332,2.6247,2.649,2.6635,2.6707,2.6765,2.6817,2.6846,2.7223,2.7549,2.8051,2.8369,2.8711,2.8713,2.8693,2.8928,2.9271,2.9465,2.9946,3.1404,3.2295,3.2905,3.348,3.2886,3.2136,3.2204,3.1885,3.1196,3.075,3.0692,3.0895,3.0861,3.114,3.1411,3.1637,3.1875,3.2091,3.2109,3.2197,3.2351,3.257,3.2727,3.3124,1.1412,1.1433,1.1776,1.2287,1.2964,1.3285,1.3803,1.4541,1.5097,1.5836,1.6618,1.6911,1.7071,1.7164,1.6645,1.6392,1.6354,1.5651,1.5604,1.6061,1.6515,1.7046,1.7738,1.883,1.9528,1.9791,2.0237,2.0582,2.0786,2.1031,2.136,2.1698,2.1812,2.2219,2.2811,2.3009,2.3654,2.4822,2.4935,2.5625,2.6738,2.631,2.5866,2.568,2.5341,2.5236,2.5341,2.5441,2.5484,2.5523,2.5679,2.5511,2.5013,2.4722,2.4381,2.4103,2.3755,2.3658,2.3996,2.3968,2.4001,2.4354,2.4099,2.3969,2.4216,2.4157,2.4155,2.4326,2.4799,2.5174,2.5286,2.5397,2.5439,2.5508,2.5591,2.5882,2.6385,2.624,2.6378,2.7073,2.7046,2.7045,2.7451,2.7346,2.7412,2.7743,2.7653,2.7371,2.7328,2.7705,2.8301,2.8887,2.943,3.0591,3.21,3.1658,3.1118,3.1156,3.0823,3.0277,3.0114,3.0172,3.0342,3.0293,3.0625,3.0925,3.1218,3.13,3.1435,3.1476,3.1445,3.1416,3.1078,3.1254,3.159,1.1509,1.1578,1.1732,1.2058,1.256,1.2805,1.3376,1.4192,1.4806,1.553,1.6351,1.684,1.7154,1.7197,1.675,1.6607,1.6541,1.5862,1.5761,1.6224,1.652,1.6941,1.7579,1.8471,1.9131,1.9462,1.9781,2.0183,2.0518,2.085,2.1106,2.1371,2.1624,2.1996,2.244,2.2823,2.3638,2.4738,2.4711,2.5314,2.6244,2.5472,2.4962,2.5191,2.4844,2.4831,2.514,2.5422,2.5626,2.5639,2.5769,2.5686,2.5244,2.4937,2.4462,2.3753,2.3513,2.3378,2.339,2.3437,2.3497,2.3509,2.3509,2.3509,2.37,2.37,2.37,2.3826,2.4131,2.4421,2.4721,2.4765,2.4765,2.4765,2.4892,2.5238,2.5723,2.5562,2.5896,2.694,2.6486,2.629,2.662,2.6459,2.6418,2.6721,2.6036,2.5461,2.5515,2.6145,2.6498,2.6905,2.7073,2.8169,3.0523,3.0188,2.975,2.9975,2.9798,2.9398,2.9303,2.9499,2.9694,2.9645,2.9978,3.0218,3.0444,3.0534,3.0342,3.0379,3.0302,2.9995,2.9479,2.959,2.9811,1.1483,1.1365,1.1685,1.1988,1.2305,1.2613,1.3328,1.4148,1.4632,1.5388,1.6235,1.6515,1.6742,1.6922,1.7142,1.7316,1.7104,1.6635,1.6326,1.6315,1.6665,1.6959,1.7185,1.8061,1.8741,1.9075,1.9407,1.9802,2.0107,2.0324,2.0518,2.0711,2.1094,2.1696,2.2543,2.3191,2.4117,2.4786,2.5127,2.5554,2.5591,2.5066,2.5345,2.6274,2.6485,2.6228,2.6219,2.6276,2.6289,2.6314,2.597,2.5881,2.5983,2.5227,2.4323,2.3408,2.3034,2.2909,2.2969,2.3017,2.3198,2.333,2.309,2.309,2.3343,2.315,2.309,2.3125,2.3258,2.3497,2.4015,2.4073,2.4118,2.4118,2.4234,2.4376,2.4563,2.4842,2.5162,2.5801,2.5688,2.5713,2.6155,2.6219,2.6078,2.6051,2.5413,2.4922,2.5408,2.5017,2.5226,2.5995,2.6051,2.6162,2.8655,2.8696,2.8455,2.8774,2.8804,2.8559,2.8606,2.8654,2.8795,2.8872,2.893,2.9141,2.9476,2.9419,2.9065,2.8882,2.8666,2.8294,2.7688,2.7912,2.8119,1.1373,1.1303,1.131,1.156,1.1872,1.1864,1.2567,1.3643,1.3991,1.4816,1.586,1.6061,1.6193,1.6491,1.6551,1.6682,1.6775,1.641,1.6169,1.6178,1.6503,1.6712,1.6874,1.7735,1.8347,1.8607,1.8942,1.9341,1.9791,2.0053,2.0313,2.0571,2.0903,2.1314,2.1794,2.2098,2.2657,2.3508,2.3903,2.4345,2.4936,2.4847,2.5073,2.5496,2.4999,2.4676,2.4651,2.4789,2.5001,2.5357,2.5176,2.5277,2.5484,2.4631,2.3948,2.3501,2.2844,2.2494,2.2543,2.2653,2.2653,2.2726,2.28,2.2824,2.2921,2.286,2.28,2.286,2.286,2.2969,2.3138,2.3258,2.3365,2.3437,2.3424,2.3543,2.3811,2.4175,2.4689,2.5383,2.5665,2.6057,2.5829,2.5469,2.5031,2.4881,2.4167,2.3837,2.392,2.3688,2.3855,2.4398,2.4419,2.4571,2.5697,2.6709,2.707,2.7542,2.7705,2.7715,2.772,2.7724,2.7807,2.7372,2.7469,2.7581,2.7811,2.7713,2.7465,2.7425,2.7176,2.657,2.5849,2.612,2.624,1.1122,1.1115,1.1059,1.1122,1.1303,1.124,1.186,1.2867,1.3228,1.4036,1.4963,1.5261,1.546,1.5704,1.5799,1.5982,1.6237,1.6187,1.6215,1.6206,1.6622,1.6833,1.6938,1.7523,1.7998,1.8124,1.8405,1.8741,1.9131,1.9441,1.977,2.0107,2.0377,2.0775,2.1042,2.1423,2.1952,2.2662,2.3045,2.3651,2.4284,2.4447,2.4469,2.4319,2.3744,2.3615,2.3786,2.385,2.3972,2.4218,2.4154,2.4336,2.4612,2.378,2.3292,2.3394,2.2635,2.2111,2.2271,2.238,2.2501,2.2476,2.2551,2.2625,2.2613,2.248,2.2395,2.2371,2.2371,2.2371,2.2371,2.242,2.2519,2.2775,2.2787,2.2787,2.3067,2.3529,2.4192,2.4918,2.5505,2.5677,2.5347,2.4413,2.3827,2.3615,2.2868,2.2445,2.2519,2.258,2.2689,2.2884,2.309,2.3339,2.406,2.4778,2.5577,2.6094,2.6544,2.6643,2.6638,2.6674,2.6526,2.6061,2.5868,2.5944,2.5967,2.5925,2.5908,2.5931,2.557,2.4986,2.4537,2.4253,2.45,1.0681,1.0807,1.0807,1.0807,1.0807,1.0933,1.1369,1.1906,1.2382,1.3003,1.3735,1.4203,1.4604,1.4775,1.5134,1.5346,1.5621,1.614,1.648,1.6549,1.6913,1.712,1.712,1.7482,1.7716,1.7706,1.793,1.8144,1.8337,1.8586,1.8844,1.9208,1.9671,2.0129,2.041,2.13,2.2065,2.2536,2.2983,2.3475,2.3818,2.3948,2.3704,2.3307,2.3315,2.3421,2.3849,2.3573,2.3349,2.3246,2.308,2.3269,2.3583,2.2852,2.2523,2.2983,2.235,2.1957,2.1957,2.2289,2.2391,2.2367,2.2345,2.2262,2.2232,2.1973,2.1761,2.1824,2.1761,2.1761,2.1749,2.16,2.1776,2.2223,2.2247,2.2247,2.2504,2.2868,2.3506,2.4338,2.4871,2.4625,2.3921,2.3293,2.2805,2.2294,2.1888,2.1577,2.1628,2.169,2.1753,2.1877,2.2125,2.2359,2.2665,2.3075,2.3923,2.47,2.5066,2.5299,2.5272,2.5289,2.5032,2.4647,2.4413,2.448,2.4864,2.4766,2.4471,2.4344,2.3894,2.3453,2.3051,2.2776,2.298,1.0434,1.0434,1.0301,1.0238,1.0238,1.0301,1.0722,1.1297,1.1638,1.2072,1.2721,1.3538,1.3901,1.418,1.4687,1.507,1.5346,1.5842,1.6202,1.6412,1.6673,1.6899,1.7038,1.7235,1.7373,1.7373,1.7529,1.7666,1.7725,1.8134,1.8529,1.8942,1.9274,1.9681,2.0009,2.0424,2.0842,2.1599,2.2103,2.2596,2.3077,2.3352,2.343,2.3212,2.2828,2.2506,2.2372,2.248,2.2354,2.2023,2.1811,2.197,2.2491,2.265,2.2798,2.2983,2.2126,2.1632,2.164,2.1426,2.1293,2.127,2.1346,2.1388,2.1504,2.1504,2.1549,2.1635,2.1612,2.1549,2.1624,2.1296,2.1285,2.1812,2.1675,2.1661,2.2057,2.2654,2.3329,2.393,2.4302,2.4019,2.3347,2.2706,2.2139,2.1442,2.1144,2.1031,2.0944,2.1008,2.121,2.14,2.14,2.1323,2.1554,2.1741,2.2216,2.302,2.352,2.3903,2.3892,2.3749,2.352,2.3348,2.316,2.3226,2.356,2.3497,2.3184,2.2721,2.2241,2.181,2.1397,2.1498,2.1828,1.0047,0.9977,0.9849,0.9843,0.9786,0.9786,1.0078,1.0679,1.0893,1.1262,1.1918,1.2691,1.318,1.3607,1.4213,1.4735,1.5125,1.5363,1.5726,1.614,1.6473,1.6682,1.676,1.6821,1.6881,1.6959,1.7038,1.7116,1.7245,1.7579,1.7998,1.8395,1.8674,1.9008,1.9396,1.9539,1.9951,2.0671,2.1076,2.1596,2.2078,2.2488,2.2655,2.2559,2.2315,2.1854,2.1295,2.128,2.1254,2.0919,2.0643,2.0873,2.138,2.1592,2.1885,2.1976,2.1475,2.0963,2.0952,2.072,2.0566,2.0512,2.0708,2.085,2.0871,2.0975,2.0944,2.1019,2.0955,2.0955,2.0955,2.0775,2.0778,2.1316,2.1339,2.1558,2.2083,2.2421,2.2936,2.3408,2.3666,2.3274,2.2623,2.1996,2.1443,2.0633,2.0302,2.0183,2.0118,2.0259,2.0375,2.0456,2.031,2.0301,2.0403,2.0514,2.0545,2.1265,2.2002,2.2292,2.2469,2.2258,2.2008,2.2117,2.1971,2.2147,2.248,2.2112,2.1744,2.1217,2.0864,2.0765,2.0653,2.0665,2.0962,0.9652,0.9518,0.9518,0.9524,0.946,0.9402,0.9612,0.9932,1.0193,1.0595,1.1178,1.1869,1.2439,1.305,1.3668,1.4244,1.4751,1.4791,1.5138,1.572,1.6167,1.6403,1.6542,1.6403,1.6403,1.6473,1.6403,1.6482,1.6769,1.6968,1.7166,1.7647,1.793,1.8124,1.8576,1.8854,1.9437,2.0039,2.0249,2.0573,2.102,2.1413,2.1554,2.1439,2.1617,2.1345,2.0565,2.0225,2.0042,1.9809,1.9722,1.9899,2.0236,2.0026,2.0318,2.0741,2.0324,2.0041,1.9997,2.0017,2.009,1.986,2.0058,2.0482,2.0312,2.0183,2.0161,2.0161,1.9977,1.9922,2.0042,1.9911,2.0106,2.0619,2.1073,2.1685,2.2399,2.2022,2.2199,2.278,2.2776,2.2424,2.1722,2.1132,2.0526,1.9869,1.9489,1.9306,1.9138,1.9251,1.921,1.9169,1.9134,1.9225,1.9309,1.9313,1.9349,1.9762,2.0463,2.0859,2.1296,2.1159,2.089,2.0941,2.1129,2.1287,2.1216,2.0913,2.0707,2.0399,2.0216,2.0043,1.9945,1.9875,2.0099,0.9481,0.9472,0.9478,0.9344,0.9204,0.9344,0.9472,0.953,0.9798,1.0174,1.0621,1.1388,1.1884,1.2262,1.3222,1.3711,1.3837,1.4103,1.4461,1.4988,1.5379,1.5833,1.6123,1.6053,1.5842,1.5842,1.5982,1.6132,1.6149,1.6482,1.6821,1.7116,1.7382,1.7725,1.8134,1.8327,1.8907,1.9558,1.9689,1.9955,2.0479,2.0503,2.0627,2.0767,2.0624,2.0265,1.9797,1.9154,1.8899,1.9091,1.9145,1.9339,1.9637,1.9712,1.9875,2.0024,1.9944,1.9634,1.9198,1.8847,1.8479,1.8181,1.8555,1.8723,1.9026,1.9336,1.9465,1.9507,1.9386,1.9288,1.9222,1.9023,1.905,1.9458,2.044,2.115,2.1,2.114,2.1502,2.1629,2.1586,2.1365,2.1041,2.0566,2.0052,1.9422,1.8965,1.8624,1.84,1.8287,1.8199,1.8008,1.7989,1.8081,1.8139,1.8121,1.82,1.8414,1.8975,1.9509,2.0055,2.045,2.014,1.9989,2.0489,2.074,2.039,2.0032,1.981,1.9642,1.9183,1.8892,1.8838,1.8796,1.9224,0.9425,0.9408,0.9408,0.928,0.9145,0.9157,0.9285,0.9408,0.9542,0.9798,1.0219,1.0863,1.1337,1.1673,1.2468,1.2914,1.3111,1.3477,1.3893,1.4242,1.4687,1.5188,1.5559,1.563,1.5417,1.5141,1.5426,1.5497,1.5505,1.5912,1.6202,1.6482,1.6751,1.7176,1.7529,1.7666,1.8027,1.8596,1.8715,1.8924,1.9284,1.9414,1.9451,1.9492,1.9403,1.9291,1.8955,1.829,1.8144,1.8454,1.8507,1.8498,1.8577,1.8774,1.8853,1.8825,1.8692,1.8362,1.7905,1.7466,1.7175,1.6997,1.7219,1.749,1.7762,1.8094,1.8291,1.8046,1.7966,1.7901,1.7931,1.7843,1.7853,1.7965,1.913,1.9856,1.9646,1.9983,2.0175,2.0298,2.042,2.0396,2.0072,1.9625,1.9053,1.8449,1.7811,1.7534,1.7258,1.7263,1.7179,1.6976,1.6931,1.7012,1.7051,1.7057,1.728,1.7492,1.825,1.8724,1.9202,1.9838,2.0027,1.9965,2.0112,2.0072,1.972,1.9405,1.91,1.8769,1.8167,1.8044,1.8126,1.8276,1.8659,0.9314,0.9296,0.9326,0.9332,0.921,0.8958,0.9092,0.935,0.9408,0.9536,0.9868,1.0301,1.0708,1.1218,1.1523,1.1883,1.2409,1.2779,1.3117,1.3469,1.3924,1.4379,1.4664,1.4958,1.4848,1.4641,1.4721,1.4776,1.4911,1.5204,1.5497,1.5771,1.6132,1.6491,1.6839,1.6899,1.7176,1.7627,1.7714,1.7666,1.7812,1.7992,1.809,1.8024,1.8241,1.8152,1.782,1.7451,1.7388,1.7899,1.7716,1.7579,1.7364,1.7326,1.7128,1.6921,1.7025,1.6833,1.6322,1.631,1.6224,1.6084,1.6302,1.665,1.667,1.6894,1.6929,1.6654,1.6338,1.6379,1.6408,1.6617,1.6579,1.651,1.7006,1.7772,1.842,1.8665,1.8768,1.9113,1.9271,1.9092,1.8841,1.8184,1.7531,1.7453,1.6864,1.6466,1.623,1.6126,1.6033,1.5831,1.5867,1.6019,1.6056,1.6066,1.6368,1.6722,1.7834,1.8506,1.8915,1.9485,1.9982,2.0187,1.9754,1.9549,1.9359,1.8988,1.8577,1.8358,1.8071,1.7963,1.7976,1.8152,1.8438,0.9101,0.9166,0.9255,0.9332,0.9274,0.921,0.9145,0.9151,0.935,0.9472,0.9588,0.9703,1.0066,1.0533,1.0597,1.0803,1.1217,1.1626,1.197,1.2467,1.2943,1.3082,1.3304,1.3818,1.4122,1.3992,1.4137,1.4201,1.4194,1.4482,1.4919,1.5125,1.5638,1.607,1.6412,1.6551,1.6751,1.7028,1.7019,1.6825,1.6582,1.6762,1.6763,1.658,1.682,1.6702,1.6296,1.5926,1.574,1.5876,1.6477,1.6757,1.6419,1.6373,1.6163,1.5918,1.5947,1.579,1.5331,1.5212,1.5093,1.4821,1.5136,1.5408,1.5685,1.5876,1.5963,1.5872,1.5753,1.5542,1.5414,1.5661,1.5442,1.516,1.5268,1.5449,1.5501,1.6777,1.7774,1.8072,1.7862,1.768,1.8005,1.706,1.6526,1.6367,1.5944,1.5515,1.5251,1.5033,1.4949,1.4805,1.4939,1.5072,1.5292,1.5458,1.5961,1.6504,1.749,1.8321,1.8722,1.9146,1.9751,1.96,1.9146,1.9,1.9126,1.8577,1.8193,1.8084,1.8066,1.8019,1.8045,1.8142,1.81,0.8717,0.8898,0.8908,0.9035,0.9134,0.9087,0.9022,0.9022,0.9087,0.928,0.9396,0.9384,0.964,0.9907,0.9894,1.0028,1.0226,1.0523,1.0881,1.1273,1.159,1.1713,1.1717,1.2379,1.2876,1.315,1.3411,1.3404,1.347,1.3825,1.4266,1.4553,1.5196,1.5718,1.6,1.6175,1.6227,1.6136,1.6058,1.5822,1.5726,1.5399,1.53,1.5172,1.53,1.5268,1.5177,1.492,1.4698,1.4792,1.521,1.5443,1.5268,1.5225,1.5024,1.4784,1.496,1.4782,1.4365,1.4241,1.4232,1.3847,1.4153,1.4328,1.4574,1.4781,1.4782,1.4684,1.4541,1.4488,1.4182,1.3975,1.3855,1.3855,1.3674,1.3545,1.3819,1.5094,1.6167,1.6321,1.6084,1.6057,1.5936,1.5544,1.5107,1.4711,1.4461,1.4089,1.4001,1.3872,1.3943,1.3908,1.3985,1.4189,1.4529,1.4974,1.5666,1.6357,1.7324,1.8027,1.8537,1.9007,1.9486,1.9317,1.9195,1.9027,1.9016,1.8399,1.8055,1.8095,1.8149,1.8122,1.8082,1.8075,1.7992,0.8259,0.8548,0.8427,0.8578,0.882,0.8748,0.8765,0.8823,0.8835,0.8958,0.9151,0.921,0.9268,0.939,0.9332,0.9332,0.9467,0.9652,0.9902,0.9956,1.0274,1.0311,1.0378,1.0746,1.1255,1.2072,1.2485,1.2505,1.2517,1.2961,1.3403,1.3871,1.4521,1.4932,1.5356,1.5452,1.5342,1.5146,1.4909,1.4689,1.4612,1.414,1.3907,1.3751,1.3876,1.3934,1.394,1.3851,1.3835,1.3811,1.3704,1.3762,1.3835,1.4007,1.3957,1.3718,1.3936,1.387,1.3604,1.3571,1.3554,1.3277,1.3528,1.3657,1.3735,1.3839,1.3822,1.3666,1.3561,1.3405,1.2959,1.2767,1.2625,1.2576,1.2225,1.2214,1.2728,1.3447,1.3842,1.4414,1.4516,1.4503,1.4303,1.3963,1.3484,1.3145,1.2919,1.2732,1.27,1.2753,1.2816,1.2855,1.2873,1.329,1.362,1.4541,1.5231,1.5997,1.6994,1.7707,1.8342,1.8993,1.9416,1.9555,1.9481,1.9201,1.8893,1.8452,1.819,1.8242,1.8276,1.8306,1.8213,1.8031,1.7895,0.7886,0.7885,0.7989,0.8115,0.8294,0.8281,0.8291,0.8366,0.8635,0.8705,0.8641,0.8835,0.8829,0.8894,0.87,0.877,0.8814,0.8909,0.8826,0.8788,0.9014,0.904,0.9062,0.9218,0.9477,0.9942,1.0803,1.1315,1.1473,1.1859,1.2359,1.2727,1.3393,1.3898,1.405,1.4187,1.4228,1.403,1.3731,1.3439,1.316,1.3018,1.277,1.2538,1.263,1.2588,1.2444,1.2437,1.2351,1.221,1.2155,1.2241,1.2459,1.31,1.3226,1.3149,1.319,1.3264,1.3058,1.3103,1.3233,1.3233,1.3233,1.3346,1.3528,1.3528,1.3415,1.3329,1.3053,1.2789,1.2553,1.2113,1.1876,1.1741,1.1477,1.1275,1.1368,1.1498,1.2025,1.2925,1.3012,1.2948,1.2735,1.2429,1.2081,1.1851,1.1776,1.16,1.1514,1.156,1.1716,1.1721,1.1703,1.2237,1.2779,1.3913,1.4809,1.5492,1.6394,1.7438,1.8084,1.8907,1.931,1.9239,1.9097,1.882,1.8536,1.8287,1.8284,1.8242,1.8372,1.8512,1.8217,1.7947,1.7851,0.7271,0.7302,0.7229,0.7512,0.7902,0.7886,0.794,0.8107,0.8306,0.8376,0.8312,0.8247,0.8312,0.8312,0.8117,0.7987,0.7957,0.7941,0.781,0.769,0.7824,0.7807,0.7769,0.7976,0.8073,0.8427,0.914,0.9857,1.0172,1.0719,1.1211,1.1742,1.2419,1.2908,1.3117,1.3207,1.306,1.2844,1.2512,1.2109,1.1752,1.1776,1.1575,1.1525,1.1475,1.1517,1.1549,1.1435,1.1567,1.163,1.1567,1.1498,1.1722,1.2039,1.2484,1.2468,1.2744,1.2805,1.2744,1.2736,1.2867,1.2805,1.2744,1.2797,1.292,1.2858,1.292,1.2749,1.2374,1.2038,1.1992,1.1445,1.1179,1.1118,1.0783,1.0524,1.0448,1.0186,1.0762,1.1527,1.1372,1.1336,1.1374,1.1056,1.0654,1.0531,1.0559,1.0521,1.0351,1.0401,1.0574,1.1032,1.115,1.1874,1.2453,1.3403,1.4382,1.5049,1.6019,1.7039,1.7721,1.8425,1.8592,1.8526,1.8435,1.8494,1.8249,1.8016,1.8123,1.8208,1.8324,1.8352,1.8074,1.785,1.7715,0.6704,0.6818,0.6635,0.691,0.7389,0.7374,0.7502,0.7713,0.7837,0.7982,0.8042,0.7852,0.7792,0.7792,0.7526,0.7204,0.7138,0.7077,0.6881,0.6811,0.6885,0.6815,0.6792,0.6847,0.7096,0.6989,0.7227,0.7911,0.8852,0.9472,1.0024,1.0529,1.1337,1.1833,1.1983,1.1992,1.1905,1.1623,1.1279,1.089,1.0678,1.0548,1.0471,1.0548,1.0611,1.0751,1.0793,1.0863,1.0933,1.1114,1.119,1.1149,1.1176,1.1399,1.1622,1.1941,1.2436,1.2498,1.2428,1.249,1.2552,1.2428,1.2436,1.2367,1.2305,1.2421,1.2466,1.2173,1.1692,1.1337,1.1249,1.0658,1.0376,1.0364,1.0026,0.9691,0.9714,0.9597,0.9381,0.9738,0.9683,0.986,1.0052,1.0106,0.9865,0.9473,0.9558,0.9402,0.9341,0.9328,0.9542,1.0319,1.0908,1.1615,1.2282,1.2914,1.3886,1.4656,1.5818,1.7019,1.7461,1.7884,1.7991,1.8244,1.828,1.8303,1.8031,1.7935,1.8189,1.8345,1.8316,1.8187,1.7959,1.7661,1.7446,0.6242,0.6284,0.6351,0.64,0.6501,0.6743,0.6782,0.6953,0.7357,0.7521,0.7558,0.7647,0.7577,0.7396,0.6876,0.6749,0.6683,0.6482,0.635,0.635,0.628,0.6218,0.6024,0.5826,0.6055,0.5954,0.5874,0.6495,0.7482,0.8205,0.868,0.9181,0.9706,1.002,1.0425,1.0632,1.0417,1.027,1.0091,0.9957,0.9996,1.0053,0.9913,0.9843,0.9977,1.0098,1.0091,1.0351,1.06,1.0465,1.0885,1.0912,1.0812,1.0981,1.1219,1.1498,1.1926,1.2297,1.2166,1.2305,1.2328,1.2189,1.2197,1.2174,1.202,1.1958,1.189,1.1869,1.1346,1.0923,1.0553,0.9964,0.9677,0.9556,0.9383,0.9134,0.9112,0.8982,0.8777,0.8625,0.8756,0.8865,0.9009,0.908,0.9073,0.8761,0.8465,0.8378,0.8366,0.8399,0.844,0.9143,1.0091,1.0885,1.163,1.2307,1.3177,1.4057,1.5416,1.6689,1.6916,1.7262,1.806,1.8245,1.8217,1.8248,1.8164,1.8201,1.8386,1.8365,1.8315,1.8129,1.7881,1.7557,1.7186,0.5747,0.6069,0.605,0.6158,0.6271,0.6202,0.6272,0.6559,0.6697,0.6863,0.7017,0.7095,0.709,0.6972,0.6478,0.6346,0.6416,0.6214,0.6086,0.6156,0.6086,0.602,0.5818,0.5752,0.5686,0.5352,0.5359,0.5459,0.625,0.6931,0.7588,0.7976,0.8549,0.9028,0.9192,0.9448,0.946,0.9338,0.9274,0.9274,0.9408,0.953,0.9588,0.9512,0.964,0.9691,0.9818,1.0034,1.0319,1.0325,1.0647,1.0634,1.0616,1.065,1.0663,1.0779,1.1092,1.1421,1.1789,1.2035,1.1997,1.1806,1.1752,1.1616,1.1353,1.1112,1.097,1.0653,1.0451,1.0165,0.9976,0.9627,0.9266,0.8983,0.8896,0.8633,0.8474,0.8262,0.8117,0.7961,0.7829,0.7938,0.8055,0.8099,0.8105,0.7896,0.7683,0.7655,0.7695,0.7801,0.7772,0.7851,0.8895,0.9959,1.0673,1.1415,1.2267,1.3262,1.4705,1.5769,1.6137,1.6599,1.7581,1.7978,1.7837,1.7936,1.8196,1.8302,1.8391,1.8346,1.8275,1.8,1.7684,1.7299,1.687,0.5132,0.5748,0.5748,0.5859,0.6005,0.5747,0.581,0.6054,0.6121,0.6271,0.6423,0.6524,0.6497,0.6444,0.6209,0.6094,0.6152,0.6079,0.602,0.6024,0.6024,0.5885,0.5683,0.5683,0.5422,0.5024,0.516,0.5103,0.5229,0.576,0.6494,0.6876,0.7596,0.8102,0.8366,0.8624,0.8759,0.8694,0.8765,0.8765,0.8812,0.8995,0.9099,0.9133,0.9235,0.9325,0.9525,0.9625,0.9867,0.9794,0.9982,1.0017,1.0033,1.0242,1.039,1.049,1.0709,1.0945,1.1238,1.1479,1.1436,1.1227,1.1064,1.0872,1.0559,1.0196,1.0012,0.9873,0.9827,0.966,0.9439,0.9284,0.901,0.8752,0.858,0.8256,0.7937,0.7777,0.7616,0.7478,0.7333,0.6993,0.7062,0.7133,0.7117,0.7003,0.6928,0.6982,0.7132,0.7311,0.75,0.7538,0.7923,0.9075,1.0132,1.081,1.1581,1.2518,1.3969,1.5098,1.5649,1.6516,1.7534,1.7663,1.761,1.7841,1.8172,1.8241,1.8327,1.8235,1.8097,1.7764,1.743,1.7,1.6535,0.4534,0.511,0.5388,0.537,0.5218,0.5478,0.5443,0.5358,0.5739,0.5932,0.5961,0.5985,0.6022,0.5943,0.5859,0.5796,0.5935,0.5749,0.5734,0.5738,0.5627,0.5624,0.5488,0.5352,0.5156,0.4894,0.4964,0.4894,0.4758,0.5087,0.562,0.602,0.6736,0.7199,0.7657,0.7982,0.8236,0.8301,0.8376,0.8376,0.8366,0.8392,0.8459,0.8409,0.8359,0.8374,0.8278,0.8759,0.8948,0.8829,0.9166,0.9421,0.9499,0.9735,1.0013,1.0164,1.0265,1.0455,1.0651,1.0689,1.0596,1.0415,1.0271,1.0179,0.9995,0.9928,0.9788,0.9437,0.9357,0.9248,0.9105,0.8917,0.8798,0.8527,0.8362,0.8209,0.783,0.745,0.7235,0.7079,0.681,0.6539,0.6322,0.6485,0.6593,0.649,0.6879,0.6933,0.6929,0.7099,0.7419,0.7493,0.7324,0.8209,0.9719,1.0386,1.0627,1.1808,1.3301,1.4531,1.5506,1.646,1.7329,1.7809,1.7851,1.8,1.8114,1.8208,1.8235,1.8122,1.786,1.7413,1.6932,1.6438,1.6053,0.396,0.4264,0.4674,0.4927,0.5096,0.5175,0.5057,0.4952,0.5072,0.5335,0.5604,0.5708,0.586,0.5851,0.562,0.5523,0.5538,0.5382,0.5406,0.5452,0.5491,0.5477,0.5484,0.5418,0.5286,0.5024,0.4957,0.4894,0.4761,0.4891,0.509,0.5554,0.6148,0.6609,0.7068,0.7526,0.7787,0.7982,0.8052,0.8057,0.8071,0.7843,0.7965,0.8413,0.7951,0.8143,0.8408,0.8521,0.8528,0.8631,0.8795,0.8844,0.8941,0.9202,0.9382,0.9599,0.9626,0.9714,0.9876,1.0024,1.0172,0.9925,0.9729,0.9569,0.9467,0.9194,0.8961,0.8812,0.8829,0.8804,0.8692,0.8692,0.8639,0.8309,0.815,0.8103,0.7777,0.7289,0.6961,0.6804,0.6534,0.6209,0.605,0.5832,0.5996,0.6105,0.6495,0.6851,0.6829,0.6905,0.7207,0.757,0.7478,0.7729,0.9159,0.9493,0.9607,1.1108,1.2645,1.3847,1.5073,1.602,1.6863,1.7447,1.7981,1.7968,1.801,1.8153,1.8039,1.7741,1.735,1.6907,1.6422,1.59,1.5587,0.3432,0.3585,0.3915,0.4345,0.4731,0.4793,0.4681,0.4508,0.4569,0.4757,0.5137,0.5374,0.5518,0.5604,0.5509,0.5257,0.5272,0.5133,0.5121,0.5192,0.5277,0.5342,0.5422,0.5425,0.5289,0.5153,0.5219,0.5156,0.4761,0.4827,0.5024,0.5286,0.5752,0.6218,0.6745,0.7265,0.7657,0.7792,0.7862,0.7731,0.7762,0.7594,0.7506,0.8001,0.7674,0.7736,0.8001,0.8077,0.8137,0.8253,0.8368,0.8431,0.8579,0.8701,0.8695,0.8773,0.8902,0.8991,0.92,0.9398,0.966,0.9412,0.9214,0.8998,0.8764,0.8613,0.8444,0.8242,0.8287,0.8321,0.8368,0.8533,0.8427,0.8156,0.8262,0.8156,0.7616,0.7128,0.6804,0.6588,0.61,0.5445,0.5167,0.5007,0.534,0.55,0.5773,0.6178,0.6504,0.6683,0.6956,0.737,0.7734,0.8072,0.8599,0.9321,1.0128,1.0787,1.2234,1.3389,1.4505,1.5531,1.6582,1.7475,1.7829,1.7822,1.7822,1.7808,1.7559,1.7245,1.6735,1.6153,1.5879,1.5413,1.5245,0.2904,0.3233,0.3358,0.3657,0.408,0.4364,0.4321,0.4138,0.4214,0.4405,0.465,0.4905,0.4918,0.4959,0.51,0.5115,0.4961,0.5036,0.5041,0.5004,0.4915,0.5064,0.5186,0.5235,0.5133,0.5011,0.5107,0.5081,0.4671,0.4826,0.5035,0.5114,0.5356,0.5847,0.6408,0.7269,0.7596,0.7526,0.7666,0.7567,0.7311,0.7269,0.7236,0.7394,0.719,0.7211,0.7486,0.7464,0.7575,0.7723,0.7694,0.7816,0.8093,0.8323,0.8453,0.8601,0.8958,0.9165,0.924,0.9032,0.8898,0.8891,0.8751,0.8585,0.8546,0.8353,0.8164,0.7949,0.8062,0.8168,0.8268,0.8368,0.8215,0.8162,0.8268,0.8209,0.767,0.6966,0.6696,0.6534,0.5445,0.446,0.4181,0.4125,0.457,0.4842,0.5058,0.5462,0.6004,0.6401,0.6687,0.7284,0.7756,0.8225,0.8735,0.9839,1.0606,1.1132,1.1882,1.2994,1.4114,1.5196,1.6275,1.7353,1.774,1.7722,1.7552,1.7411,1.7147,1.6814,1.59,1.5332,1.5106,1.5028,1.4937,0.2281,0.2684,0.2954,0.3197,0.3498,0.4014,0.4153,0.4056,0.415,0.4328,0.4608,0.4849,0.4919,0.4916,0.4893,0.4912,0.4772,0.461,0.4609,0.4628,0.4568,0.4611,0.4725,0.4842,0.4766,0.4816,0.4942,0.5014,0.4819,0.483,0.4766,0.4781,0.5085,0.5627,0.6282,0.6876,0.7007,0.7181,0.7366,0.7399,0.6899,0.6664,0.6708,0.704,0.6719,0.674,0.7123,0.7017,0.7006,0.7212,0.7187,0.7329,0.7576,0.7802,0.7827,0.8033,0.8311,0.8575,0.8562,0.8472,0.844,0.8427,0.8374,0.8275,0.8328,0.8049,0.7889,0.7729,0.7735,0.7895,0.8168,0.8268,0.8162,0.8221,0.8268,0.8268,0.7889,0.7074,0.6588,0.6593,0.5941,0.5007,0.4508,0.4181,0.446,0.4673,0.4889,0.5238,0.5746,0.614,0.6431,0.7151,0.7714,0.8223,0.8919,0.9764,1.0045,1.02,1.1299,1.2628,1.3757,1.4484,1.5768,1.6751,1.7224,1.7617,1.7506,1.7335,1.686,1.6328,1.5757,1.5199,1.5006,1.4926,1.4823,0.1746,0.2103,0.2598,0.2909,0.3155,0.3644,0.3865,0.3926,0.413,0.4331,0.4556,0.4739,0.4794,0.4794,0.4805,0.4712,0.4565,0.4464,0.4351,0.4369,0.4371,0.4439,0.4396,0.4473,0.4642,0.4665,0.4732,0.4856,0.4744,0.4719,0.4671,0.4702,0.4774,0.5223,0.5799,0.6185,0.6523,0.6672,0.6782,0.6889,0.652,0.6315,0.6314,0.6625,0.6615,0.6492,0.6827,0.6842,0.6648,0.6853,0.6986,0.7035,0.722,0.7301,0.7328,0.7467,0.7681,0.8062,0.8228,0.818,0.8162,0.8221,0.8109,0.8055,0.8008,0.7729,0.7563,0.7461,0.7408,0.7568,0.783,0.7931,0.7893,0.7887,0.7828,0.7816,0.7788,0.6977,0.6651,0.6661,0.6298,0.5534,0.4783,0.4677,0.457,0.4673,0.4831,0.5139,0.5438,0.5688,0.6111,0.6791,0.754,0.8108,0.8745,0.9491,0.9638,0.9368,1.057,1.2046,1.2224,1.2795,1.4508,1.6161,1.6837,1.7319,1.7481,1.7332,1.7174,1.6775,1.6173,1.5601,1.504,1.4901,1.4926,0.1254,0.1478,0.2237,0.2732,0.3049,0.3293,0.3565,0.381,0.4062,0.4211,0.4233,0.4567,0.4632,0.4519,0.4632,0.4601,0.4475,0.4423,0.4345,0.4268,0.4309,0.4258,0.4321,0.4426,0.4455,0.4546,0.4616,0.4644,0.4594,0.4636,0.4642,0.4591,0.4606,0.4827,0.5197,0.5636,0.5988,0.6191,0.6316,0.6427,0.6218,0.6169,0.6263,0.6451,0.6425,0.6538,0.6687,0.6695,0.6783,0.6905,0.6929,0.7041,0.7212,0.7263,0.7187,0.7246,0.7408,0.7788,0.8109,0.8002,0.7949,0.7955,0.7955,0.7842,0.7735,0.7568,0.7461,0.7278,0.7154,0.7267,0.7374,0.7344,0.7309,0.7201,0.7138,0.72,0.7419,0.712,0.6797,0.6536,0.6128,0.5441,0.4769,0.4505,0.4718,0.4732,0.4838,0.5073,0.5238,0.5064,0.5524,0.6303,0.7075,0.794,0.8661,0.9393,0.9662,0.9562,1.0056,1.1132,1.1111,1.1755,1.3817,1.5512,1.6499,1.7158,1.7654,1.7873,1.7831,1.7313,1.6695,1.5934,1.5312,1.5274,1.5264,0.0493,0.0761,0.1387,0.1969,0.2504,0.2948,0.3403,0.3771,0.3966,0.4068,0.4154,0.4532,0.4457,0.419,0.4525,0.4472,0.4374,0.4259,0.4333,0.4302,0.4194,0.421,0.418,0.4222,0.4263,0.4267,0.4394,0.45,0.4441,0.4461,0.4402,0.4336,0.4391,0.4397,0.4627,0.5033,0.5449,0.5789,0.6043,0.6035,0.6042,0.5977,0.61,0.627,0.6218,0.6365,0.6487,0.6323,0.6401,0.6464,0.643,0.6504,0.6658,0.6797,0.6918,0.7241,0.7359,0.7526,0.7836,0.7895,0.783,0.7812,0.7818,0.7735,0.7622,0.7509,0.7396,0.7186,0.6998,0.707,0.7166,0.7131,0.7001,0.6884,0.6762,0.6773,0.6873,0.6498,0.6242,0.636,0.592,0.546,0.47,0.4801,0.5015,0.4886,0.4959,0.5175,0.512,0.4952,0.5281,0.6055,0.6608,0.7481,0.8605,0.9432,0.9665,0.9888,1.032,1.0746,1.1105,1.2013,1.3651,1.505,1.6349,1.7348,1.8165,1.8203,1.8057,1.7794,1.7197,1.6367,1.5694,1.5564,1.5613,-0.0175,0.0088,0.0757,0.152,0.219,0.2679,0.3131,0.3447,0.3723,0.3868,0.3997,0.4254,0.4245,0.4177,0.4306,0.4333,0.4238,0.4231,0.4235,0.4245,0.4152,0.4106,0.4101,0.4079,0.4098,0.4135,0.4144,0.4201,0.4194,0.4143,0.4086,0.414,0.4104,0.4138,0.4298,0.4572,0.4969,0.5366,0.5611,0.5743,0.5739,0.5748,0.5847,0.5981,0.5918,0.6012,0.6164,0.5986,0.6023,0.6119,0.6173,0.6282,0.6391,0.6495,0.681,0.7139,0.7192,0.734,0.753,0.7669,0.7629,0.7582,0.753,0.7407,0.7412,0.7382,0.7189,0.6987,0.6925,0.6912,0.6999,0.7001,0.6832,0.6622,0.6523,0.642,0.6085,0.5653,0.5721,0.5982,0.5727,0.5302,0.5129,0.5247,0.5321,0.5307,0.5546,0.5982,0.5655,0.5109,0.5492,0.6204,0.6524,0.7069,0.8171,0.9249,0.9666,1.002,1.0509,1.0872,1.1163,1.2072,1.3443,1.4955,1.6382,1.716,1.7768,1.8182,1.8136,1.771,1.7256,1.6589,1.5871,1.5541,1.5713,-0.0712,-0.0593,0.0308,0.1252,0.2101,0.2506,0.2742,0.2889,0.3324,0.3608,0.3711,0.3794,0.3918,0.3965,0.4094,0.4177,0.4146,0.4178,0.4268,0.4196,0.4222,0.4147,0.4089,0.4021,0.4079,0.4135,0.4082,0.3981,0.3971,0.3934,0.3943,0.3965,0.4024,0.4042,0.4166,0.4281,0.4585,0.4894,0.5111,0.5235,0.5238,0.525,0.527,0.5559,0.563,0.5635,0.5749,0.5795,0.585,0.595,0.6059,0.6173,0.6228,0.6277,0.6598,0.6811,0.6844,0.6985,0.7178,0.7273,0.7318,0.7217,0.7059,0.6957,0.6962,0.7158,0.7043,0.677,0.6679,0.6711,0.6752,0.6713,0.6539,0.6309,0.6108,0.6051,0.5857,0.5434,0.5225,0.5491,0.5668,0.5318,0.5153,0.5276,0.5646,0.5632,0.555,0.6079,0.6084,0.5329,0.5612,0.6215,0.6249,0.6617,0.78,0.881,0.9592,1.0092,1.0519,1.0578,1.0545,1.1741,1.3213,1.4468,1.5642,1.6389,1.7009,1.7299,1.7359,1.7014,1.6637,1.6527,1.6118,1.562,1.6259,-0.0938,-0.0592,0.0484,0.1208,0.1657,0.2107,0.2372,0.2476,0.2791,0.3015,0.3216,0.3542,0.3643,0.3634,0.3906,0.4002,0.4028,0.4088,0.4262,0.4294,0.4245,0.419,0.4135,0.4135,0.4079,0.4021,0.391,0.3852,0.3796,0.3796,0.3796,0.3852,0.3907,0.4021,0.4079,0.4135,0.4333,0.4548,0.4664,0.4934,0.5163,0.5231,0.5297,0.5388,0.5402,0.5348,0.5399,0.5462,0.5513,0.5677,0.5732,0.5786,0.59,0.59,0.6035,0.6293,0.6477,0.6606,0.6745,0.6858,0.6858,0.6809,0.6657,0.6515,0.6541,0.6815,0.6861,0.6542,0.6481,0.6513,0.651,0.641,0.6232,0.598,0.5814,0.5752,0.5689,0.5224,0.4805,0.5088,0.5474,0.5414,0.5228,0.5351,0.5841,0.564,0.5129,0.5238,0.572,0.5461,0.5558,0.5961,0.5688,0.619,0.7351,0.8266,0.8999,0.9745,1.0295,1.0167,0.9987,1.1499,1.3052,1.3743,1.4622,1.529,1.5834,1.6138,1.6115,1.5889,1.6045,1.5932,1.5957,1.5608,1.6747,-0.1213,-0.074,0.0306,0.1032,0.1435,0.1794,0.2046,0.2255,0.253,0.272,0.2887,0.3187,0.3369,0.3307,0.3652,0.3789,0.3822,0.3946,0.4069,0.4165,0.4135,0.4135,0.4135,0.4138,0.4079,0.3965,0.3799,0.3688,0.3574,0.363,0.363,0.3741,0.391,0.3965,0.4024,0.419,0.4249,0.4359,0.4356,0.4625,0.5024,0.4991,0.5045,0.5125,0.5129,0.5085,0.5117,0.5124,0.5234,0.5403,0.5513,0.5622,0.5732,0.5732,0.5846,0.5987,0.6098,0.6182,0.6294,0.6365,0.646,0.6407,0.6076,0.5791,0.5981,0.6218,0.6072,0.5856,0.6368,0.6499,0.6588,0.6483,0.6329,0.6076,0.6076,0.6044,0.5701,0.5233,0.503,0.5094,0.525,0.5015,0.4763,0.4356,0.4836,0.5288,0.4815,0.5199,0.5555,0.534,0.5551,0.567,0.5381,0.5633,0.6639,0.7499,0.8267,0.9062,0.9738,1.0154,1.0295,1.1588,1.2813,1.2957,1.3342,1.404,1.4516,1.4764,1.4725,1.4497,1.4904,1.5364,1.5399,1.5571,1.6696,-0.151,-0.0961,0.0043,0.0763,0.1299,0.1479,0.1751,0.2066,0.2328,0.2462,0.2615,0.2843,0.304,0.3213,0.3301,0.3348,0.353,0.3738,0.386,0.3883,0.3852,0.3913,0.3971,0.4027,0.3968,0.3858,0.3691,0.3413,0.3188,0.3299,0.3466,0.3688,0.3799,0.3858,0.4079,0.4193,0.419,0.4245,0.4301,0.4301,0.4418,0.4519,0.4664,0.4745,0.472,0.475,0.4794,0.4901,0.4956,0.5179,0.5458,0.5622,0.5622,0.5614,0.5721,0.5812,0.5821,0.5903,0.5971,0.5981,0.6072,0.6021,0.5474,0.5295,0.5525,0.5438,0.5305,0.5575,0.6067,0.6326,0.6409,0.6496,0.6276,0.6142,0.6227,0.6307,0.5787,0.5356,0.5318,0.5323,0.5115,0.492,0.4562,0.4079,0.4045,0.4513,0.4845,0.5497,0.5755,0.5097,0.487,0.5035,0.4962,0.5391,0.571,0.6415,0.7101,0.7666,0.8344,0.9452,1.0493,1.1116,1.1463,1.1456,1.1941,1.2539,1.2962,1.3262,1.3161,1.3101,1.3836,1.443,1.462,1.504,1.6332,-0.1575,-0.0878,-0.0176,0.0404,0.0853,0.1165,0.1344,0.1524,0.1928,0.2109,0.2292,0.2573,0.2871,0.322,0.3021,0.3115,0.3436,0.3588,0.3641,0.368,0.363,0.3691,0.3749,0.3858,0.3802,0.3638,0.3527,0.3302,0.3077,0.3132,0.3302,0.3524,0.3469,0.3635,0.3965,0.4079,0.4079,0.419,0.419,0.419,0.4021,0.4132,0.4304,0.4376,0.4432,0.4467,0.4574,0.4787,0.4956,0.5179,0.5403,0.5622,0.5622,0.5546,0.5553,0.5645,0.5708,0.5706,0.5743,0.5736,0.5848,0.566,0.5217,0.4941,0.503,0.4937,0.4937,0.5114,0.5507,0.5683,0.5798,0.6099,0.6099,0.6056,0.6056,0.6215,0.6081,0.5873,0.5798,0.5712,0.5555,0.5407,0.5286,0.4713,0.4051,0.4104,0.3337,0.391,0.4327,0.4182,0.4146,0.4341,0.4458,0.391,0.3733,0.48,0.5571,0.6159,0.6767,0.7548,0.8583,0.9866,1.0199,1.0276,1.0437,1.0884,1.1269,1.1766,1.1809,1.1938,1.2781,1.3415,1.3724,1.4361,1.5582]}]]